GEFSMW_prec_meanprecacc_114.txt.gz
Total_Precipitation_Accumulation
0.18 0.21 0.28 0.39 0.49 0.62 0.75 0.81 0.80 0.89 1.06 1.00 0.89 0.81 0.73 0.67 0.57 0.48 0.44 0.36 0.27 0.20 0.13 0.10 0.08 0.06 0.05 0.04 0.03 0.03 0.02 0.02 0.02 0.02 0.01 0.00 0.00 0.00 0.00 0.00 0.00 0.01 0.00
0.13 0.17 0.21 0.26 0.33 0.46 0.63 0.74 0.82 0.92 0.98 0.92 0.90 0.96 1.06 1.03 0.94 0.84 0.63 0.48 0.39 0.31 0.24 0.17 0.13 0.11 0.09 0.08 0.07 0.07 0.06 0.04 0.04 0.05 0.07 0.03 0.01 0.00 0.01 0.01 0.01 0.01 0.01
0.09 0.11 0.14 0.18 0.23 0.30 0.42 0.56 0.70 0.81 0.91 1.01 1.18 1.23 1.22 1.08 0.90 0.76 0.69 0.64 0.62 0.54 0.44 0.39 0.30 0.24 0.18 0.14 0.14 0.14 0.12 0.11 0.09 0.09 0.14 0.13 0.07 0.04 0.02 0.02 0.02 0.03 0.03
0.05 0.08 0.10 0.13 0.17 0.21 0.29 0.39 0.54 0.66 0.76 0.86 0.94 0.97 0.93 0.82 0.73 0.75 0.79 0.83 0.79 0.72 0.67 0.58 0.48 0.39 0.33 0.27 0.27 0.25 0.23 0.22 0.20 0.18 0.17 0.19 0.19 0.20 0.13 0.06 0.05 0.05 0.05
0.03 0.05 0.07 0.10 0.11 0.16 0.23 0.32 0.42 0.50 0.59 0.68 0.73 0.84 0.86 0.83 0.85 0.83 0.80 0.76 0.74 0.72 0.71 0.65 0.59 0.49 0.45 0.43 0.43 0.40 0.39 0.37 0.35 0.33 0.31 0.31 0.30 0.31 0.35 0.22 0.11 0.10 0.10
0.02 0.03 0.04 0.07 0.09 0.11 0.16 0.24 0.35 0.45 0.51 0.58 0.63 0.69 0.72 0.75 0.74 0.73 0.74 0.73 0.73 0.70 0.67 0.65 0.62 0.60 0.55 0.52 0.52 0.55 0.53 0.51 0.49 0.47 0.46 0.49 0.48 0.44 0.50 0.47 0.31 0.26 0.22
0.01 0.02 0.02 0.03 0.05 0.08 0.10 0.16 0.20 0.28 0.36 0.46 0.55 0.58 0.66 0.70 0.64 0.62 0.64 0.69 0.68 0.62 0.61 0.66 0.66 0.65 0.64 0.65 0.65 0.61 0.57 0.57 0.55 0.55 0.55 0.57 0.57 0.56 0.61 0.65 0.55 0.45 0.35
0.01 0.01 0.01 0.02 0.04 0.05 0.07 0.09 0.12 0.15 0.21 0.29 0.35 0.40 0.48 0.52 0.53 0.52 0.48 0.49 0.52 0.57 0.64 0.66 0.65 0.63 0.61 0.61 0.61 0.57 0.55 0.57 0.59 0.60 0.62 0.61 0.59 0.62 0.66 0.72 0.77 0.68 0.50
0.01 0.01 0.01 0.01 0.02 0.03 0.04 0.05 0.07 0.10 0.14 0.19 0.23 0.27 0.30 0.32 0.34 0.36 0.37 0.40 0.43 0.47 0.49 0.51 0.53 0.54 0.53 0.54 0.57 0.54 0.52 0.53 0.54 0.56 0.60 0.61 0.58 0.60 0.64 0.70 0.82 0.93 0.83
0.01 0.01 0.01 0.01 0.02 0.02 0.03 0.04 0.05 0.07 0.09 0.12 0.14 0.17 0.22 0.25 0.28 0.30 0.29 0.32 0.34 0.36 0.37 0.37 0.38 0.39 0.40 0.42 0.45 0.46 0.47 0.49 0.47 0.47 0.50 0.51 0.52 0.55 0.61 0.68 0.75 0.87 0.96
0.01 0.01 0.01 0.01 0.01 0.02 0.03 0.04 0.04 0.05 0.06 0.07 0.09 0.10 0.12 0.17 0.21 0.24 0.24 0.25 0.25 0.25 0.26 0.26 0.26 0.26 0.27 0.28 0.30 0.33 0.35 0.39 0.42 0.44 0.46 0.49 0.51 0.54 0.56 0.59 0.64 0.71 0.80
0.01 0.01 0.01 0.01 0.02 0.03 0.04 0.04 0.04 0.05 0.05 0.06 0.06 0.08 0.10 0.12 0.14 0.17 0.19 0.18 0.19 0.19 0.18 0.18 0.17 0.17 0.17 0.17 0.18 0.21 0.24 0.29 0.34 0.37 0.43 0.46 0.49 0.52 0.54 0.55 0.57 0.58 0.61
0.03 0.02 0.02 0.03 0.04 0.05 0.05 0.05 0.05 0.05 0.05 0.05 0.06 0.07 0.08 0.09 0.10 0.11 0.12 0.11 0.12 0.12 0.12 0.12 0.12 0.12 0.12 0.13 0.14 0.16 0.20 0.23 0.26 0.29 0.34 0.38 0.42 0.42 0.41 0.40 0.42 0.43 0.48
0.04 0.03 0.03 0.05 0.06 0.07 0.06 0.06 0.07 0.08 0.08 0.08 0.08 0.08 0.08 0.09 0.10 0.09 0.09 0.09 0.09 0.10 0.09 0.09 0.09 0.10 0.12 0.14 0.16 0.19 0.21 0.23 0.24 0.26 0.28 0.30 0.30 0.29 0.29 0.30 0.32 0.38 0.44
0.04 0.04 0.04 0.05 0.08 0.09 0.08 0.08 0.09 0.10 0.11 0.13 0.13 0.11 0.10 0.10 0.11 0.10 0.10 0.09 0.09 0.10 0.12 0.13 0.13 0.13 0.14 0.16 0.19 0.21 0.23 0.24 0.24 0.24 0.22 0.21 0.22 0.22 0.22 0.26 0.31 0.38 0.45
0.05 0.04 0.04 0.05 0.05 0.07 0.08 0.09 0.09 0.11 0.13 0.14 0.14 0.14 0.13 0.12 0.13 0.13 0.12 0.11 0.11 0.13 0.15 0.17 0.20 0.21 0.22 0.28 0.26 0.23 0.23 0.24 0.23 0.22 0.20 0.20 0.20 0.18 0.20 0.23 0.31 0.44 0.57
0.06 0.06 0.06 0.06 0.07 0.07 0.07 0.08 0.07 0.08 0.10 0.14 0.15 0.15 0.14 0.15 0.17 0.16 0.17 0.19 0.22 0.23 0.24 0.24 0.26 0.28 0.33 0.34 0.28 0.23 0.19 0.19 0.18 0.17 0.15 0.14 0.13 0.14 0.13 0.16 0.27 0.37 0.46
0.07 0.08 0.08 0.08 0.08 0.08 0.08 0.07 0.07 0.09 0.11 0.13 0.15 0.16 0.17 0.19 0.20 0.23 0.25 0.27 0.29 0.31 0.32 0.32 0.29 0.28 0.29 0.27 0.21 0.18 0.15 0.15 0.14 0.12 0.11 0.11 0.10 0.10 0.14 0.21 0.29 0.24 0.21
0.07 0.07 0.07 0.07 0.07 0.08 0.08 0.09 0.11 0.13 0.14 0.18 0.22 0.23 0.25 0.27 0.29 0.31 0.33 0.35 0.35 0.35 0.32 0.31 0.30 0.28 0.27 0.22 0.17 0.14 0.12 0.11 0.10 0.08 0.08 0.08 0.07 0.10 0.22 0.33 0.36 0.24 0.15
0.07 0.08 0.09 0.09 0.10 0.12 0.13 0.14 0.16 0.19 0.20 0.23 0.29 0.29 0.31 0.34 0.36 0.35 0.35 0.32 0.32 0.32 0.30 0.26 0.23 0.21 0.20 0.18 0.13 0.11 0.09 0.09 0.08 0.07 0.06 0.08 0.09 0.16 0.28 0.32 0.34 0.27 0.18
0.08 0.09 0.10 0.12 0.16 0.20 0.22 0.22 0.24 0.26 0.26 0.27 0.29 0.28 0.27 0.28 0.28 0.28 0.28 0.27 0.26 0.24 0.22 0.20 0.17 0.14 0.11 0.09 0.07 0.07 0.08 0.10 0.11 0.09 0.06 0.06 0.14 0.23 0.27 0.25 0.21 0.26 0.34
0.10 0.10 0.11 0.13 0.15 0.22 0.27 0.27 0.25 0.25 0.23 0.23 0.24 0.24 0.24 0.23 0.21 0.21 0.22 0.21 0.20 0.18 0.15 0.12 0.11 0.09 0.06 0.04 0.03 0.05 0.08 0.12 0.12 0.09 0.06 0.08 0.16 0.17 0.14 0.11 0.16 0.29 0.30
0.10 0.10 0.10 0.11 0.13 0.17 0.22 0.26 0.25 0.24 0.22 0.22 0.22 0.21 0.19 0.18 0.17 0.15 0.14 0.14 0.12 0.10 0.08 0.06 0.05 0.04 0.03 0.03 0.03 0.04 0.09 0.11 0.10 0.08 0.11 0.13 0.11 0.08 0.06 0.10 0.15 0.17 0.15
0.09 0.09 0.09 0.11 0.13 0.14 0.16 0.19 0.19 0.18 0.18 0.18 0.18 0.18 0.16 0.14 0.12 0.11 0.10 0.09 0.08 0.07 0.05 0.04 0.03 0.03 0.02 0.02 0.02 0.05 0.07 0.08 0.09 0.10 0.10 0.07 0.05 0.05 0.07 0.10 0.11 0.09 0.16
0.11 0.10 0.10 0.10 0.12 0.11 0.11 0.12 0.12 0.11 0.12 0.13 0.13 0.13 0.12 0.11 0.10 0.09 0.08 0.07 0.06 0.06 0.06 0.04 0.04 0.04 0.03 0.04 0.10 0.12 0.10 0.12 0.13 0.13 0.05 0.04 0.04 0.05 0.07 0.10 0.11 0.12 0.20
0.12 0.12 0.10 0.09 0.10 0.10 0.09 0.10 0.10 0.09 0.09 0.09 0.09 0.09 0.09 0.09 0.08 0.08 0.07 0.07 0.06 0.06 0.05 0.04 0.04 0.04 0.05 0.09 0.11 0.12 0.14 0.14 0.14 0.11 0.05 0.06 0.08 0.11 0.14 0.16 0.16 0.17 0.24

GEFSMW_prec_meanprecacc_120.txt.gz
Total_Precipitation_Accumulation
0.31 0.39 0.49 0.72 1.01 1.21 1.32 1.28 1.16 1.18 1.34 1.31 1.13 0.99 0.86 0.78 0.66 0.56 0.49 0.40 0.30 0.23 0.16 0.12 0.10 0.08 0.07 0.06 0.05 0.04 0.03 0.03 0.02 0.02 0.02 0.00 0.00 0.00 0.00 0.00 0.00 0.01 0.00
0.25 0.34 0.39 0.52 0.73 0.99 1.17 1.24 1.24 1.27 1.31 1.27 1.23 1.21 1.24 1.18 1.06 0.93 0.71 0.54 0.44 0.35 0.28 0.21 0.17 0.15 0.14 0.13 0.12 0.11 0.08 0.06 0.06 0.06 0.07 0.04 0.01 0.00 0.01 0.01 0.01 0.01 0.01
0.20 0.25 0.29 0.37 0.50 0.67 0.89 1.00 1.11 1.16 1.22 1.38 1.62 1.64 1.54 1.32 1.08 0.87 0.78 0.74 0.71 0.63 0.52 0.46 0.36 0.29 0.24 0.20 0.20 0.19 0.16 0.14 0.11 0.12 0.16 0.15 0.08 0.04 0.02 0.02 0.02 0.03 0.03
0.15 0.19 0.21 0.25 0.35 0.44 0.62 0.79 0.97 1.08 1.08 1.17 1.33 1.41 1.37 1.12 0.94 0.92 0.95 0.98 0.94 0.87 0.80 0.70 0.58 0.47 0.39 0.33 0.34 0.32 0.29 0.27 0.23 0.21 0.20 0.22 0.22 0.22 0.14 0.06 0.05 0.05 0.05
0.11 0.13 0.13 0.16 0.20 0.30 0.47 0.63 0.77 0.95 0.98 1.00 1.08 1.27 1.36 1.31 1.23 1.13 1.05 0.97 0.94 0.91 0.88 0.81 0.74 0.62 0.55 0.51 0.50 0.47 0.46 0.43 0.40 0.37 0.34 0.33 0.32 0.33 0.36 0.23 0.11 0.10 0.10
0.08 0.08 0.08 0.11 0.14 0.19 0.28 0.42 0.58 0.78 0.92 0.98 1.04 1.11 1.20 1.27 1.23 1.12 1.06 1.02 0.98 0.92 0.88 0.85 0.80 0.76 0.70 0.64 0.63 0.64 0.60 0.56 0.53 0.50 0.49 0.52 0.50 0.46 0.52 0.49 0.32 0.27 0.23
0.05 0.06 0.06 0.07 0.10 0.13 0.17 0.24 0.32 0.45 0.65 0.83 0.95 1.01 1.08 1.15 1.14 1.10 1.07 1.07 1.00 0.90 0.86 0.91 0.88 0.85 0.82 0.79 0.78 0.71 0.65 0.64 0.61 0.61 0.60 0.61 0.61 0.60 0.64 0.69 0.58 0.47 0.36
0.03 0.04 0.05 0.07 0.08 0.09 0.10 0.14 0.19 0.25 0.36 0.53 0.63 0.72 0.85 0.95 0.95 0.95 0.91 0.90 0.88 0.86 0.89 0.92 0.92 0.88 0.84 0.81 0.77 0.72 0.67 0.67 0.68 0.68 0.69 0.66 0.64 0.68 0.72 0.77 0.82 0.73 0.53
0.03 0.03 0.04 0.05 0.06 0.06 0.06 0.08 0.10 0.15 0.22 0.31 0.41 0.50 0.58 0.65 0.69 0.69 0.68 0.71 0.72 0.71 0.70 0.71 0.76 0.76 0.73 0.73 0.74 0.70 0.66 0.66 0.64 0.65 0.67 0.67 0.63 0.65 0.69 0.76 0.87 0.99 0.87
0.03 0.03 0.03 0.03 0.04 0.04 0.04 0.05 0.06 0.09 0.14 0.19 0.26 0.33 0.42 0.46 0.52 0.57 0.55 0.53 0.55 0.56 0.56 0.56 0.56 0.57 0.57 0.58 0.61 0.60 0.60 0.61 0.57 0.56 0.57 0.57 0.56 0.60 0.65 0.73 0.80 0.91 1.00
0.03 0.03 0.03 0.02 0.02 0.03 0.05 0.05 0.05 0.06 0.08 0.12 0.17 0.19 0.24 0.29 0.35 0.40 0.41 0.40 0.39 0.39 0.40 0.39 0.40 0.40 0.41 0.41 0.42 0.44 0.47 0.50 0.51 0.51 0.54 0.56 0.57 0.59 0.60 0.63 0.68 0.75 0.83
0.03 0.03 0.03 0.02 0.03 0.04 0.05 0.05 0.05 0.06 0.07 0.08 0.10 0.13 0.17 0.20 0.22 0.26 0.28 0.27 0.27 0.28 0.28 0.28 0.27 0.27 0.27 0.27 0.27 0.30 0.33 0.37 0.41 0.44 0.48 0.51 0.54 0.56 0.57 0.58 0.60 0.61 0.63
0.04 0.03 0.03 0.04 0.06 0.06 0.06 0.06 0.06 0.05 0.06 0.07 0.08 0.10 0.13 0.16 0.16 0.17 0.18 0.17 0.16 0.16 0.16 0.17 0.18 0.19 0.19 0.19 0.19 0.21 0.25 0.28 0.31 0.34 0.37 0.41 0.45 0.46 0.44 0.43 0.44 0.46 0.49
0.05 0.04 0.04 0.06 0.08 0.09 0.07 0.07 0.08 0.08 0.09 0.09 0.10 0.10 0.12 0.15 0.15 0.14 0.13 0.12 0.12 0.12 0.12 0.11 0.12 0.14 0.16 0.18 0.19 0.22 0.24 0.25 0.26 0.28 0.30 0.31 0.31 0.31 0.30 0.32 0.34 0.40 0.46
0.06 0.05 0.05 0.06 0.09 0.11 0.09 0.08 0.10 0.11 0.12 0.14 0.14 0.13 0.13 0.15 0.14 0.13 0.12 0.12 0.11 0.12 0.14 0.15 0.16 0.16 0.17 0.19 0.22 0.23 0.25 0.26 0.26 0.25 0.23 0.22 0.23 0.23 0.23 0.26 0.31 0.39 0.46
0.05 0.05 0.04 0.05 0.06 0.07 0.09 0.09 0.10 0.11 0.13 0.15 0.15 0.16 0.15 0.16 0.16 0.15 0.15 0.14 0.13 0.14 0.17 0.19 0.22 0.23 0.24 0.30 0.28 0.24 0.25 0.26 0.25 0.23 0.21 0.21 0.21 0.19 0.20 0.23 0.32 0.45 0.57
0.07 0.07 0.06 0.06 0.07 0.07 0.08 0.08 0.08 0.08 0.11 0.15 0.17 0.18 0.17 0.19 0.20 0.18 0.19 0.22 0.25 0.27 0.27 0.28 0.29 0.31 0.35 0.37 0.30 0.25 0.22 0.21 0.20 0.18 0.16 0.15 0.14 0.15 0.13 0.17 0.27 0.37 0.47
0.08 0.08 0.08 0.08 0.08 0.09 0.08 0.07 0.08 0.10 0.11 0.14 0.17 0.17 0.18 0.21 0.22 0.25 0.27 0.29 0.32 0.34 0.36 0.35 0.32 0.30 0.31 0.30 0.24 0.21 0.18 0.17 0.16 0.14 0.12 0.12 0.11 0.11 0.15 0.22 0.29 0.24 0.21
0.07 0.07 0.07 0.08 0.08 0.08 0.09 0.10 0.12 0.14 0.15 0.19 0.22 0.23 0.26 0.29 0.30 0.33 0.35 0.36 0.38 0.37 0.34 0.33 0.32 0.31 0.29 0.25 0.19 0.16 0.14 0.13 0.12 0.10 0.09 0.10 0.08 0.11 0.23 0.34 0.36 0.24 0.15
0.08 0.09 0.09 0.10 0.11 0.12 0.14 0.14 0.17 0.20 0.21 0.24 0.29 0.29 0.32 0.36 0.38 0.38 0.37 0.35 0.34 0.35 0.33 0.29 0.26 0.25 0.24 0.21 0.16 0.14 0.11 0.11 0.10 0.09 0.08 0.09 0.10 0.17 0.29 0.33 0.34 0.28 0.19
0.09 0.10 0.10 0.13 0.17 0.21 0.23 0.23 0.25 0.27 0.27 0.28 0.30 0.29 0.28 0.31 0.31 0.31 0.31 0.29 0.28 0.27 0.25 0.24 0.22 0.19 0.16 0.14 0.11 0.10 0.11 0.12 0.12 0.10 0.07 0.07 0.15 0.24 0.27 0.25 0.21 0.26 0.34
0.12 0.12 0.13 0.15 0.16 0.23 0.28 0.28 0.26 0.26 0.25 0.24 0.26 0.27 0.27 0.27 0.26 0.25 0.25 0.24 0.23 0.22 0.19 0.16 0.16 0.14 0.12 0.10 0.08 0.09 0.11 0.14 0.13 0.09 0.06 0.08 0.17 0.18 0.14 0.12 0.17 0.29 0.31
0.13 0.12 0.12 0.13 0.15 0.19 0.24 0.28 0.27 0.26 0.24 0.23 0.24 0.24 0.22 0.23 0.22 0.19 0.18 0.16 0.14 0.13 0.12 0.10 0.09 0.09 0.09 0.10 0.10 0.09 0.12 0.14 0.11 0.09 0.12 0.14 0.12 0.09 0.07 0.11 0.16 0.17 0.15
0.12 0.12 0.11 0.13 0.15 0.16 0.18 0.21 0.22 0.21 0.21 0.20 0.20 0.21 0.20 0.18 0.16 0.14 0.13 0.12 0.11 0.10 0.09 0.08 0.08 0.07 0.08 0.09 0.09 0.10 0.10 0.11 0.11 0.11 0.11 0.09 0.07 0.06 0.07 0.11 0.11 0.10 0.17
0.13 0.14 0.13 0.13 0.14 0.13 0.14 0.14 0.14 0.15 0.16 0.16 0.15 0.15 0.15 0.15 0.14 0.12 0.11 0.11 0.10 0.11 0.11 0.09 0.09 0.09 0.08 0.09 0.15 0.17 0.13 0.15 0.17 0.16 0.08 0.05 0.06 0.06 0.07 0.10 0.11 0.13 0.20
0.13 0.14 0.13 0.13 0.13 0.13 0.12 0.12 0.12 0.13 0.13 0.13 0.13 0.12 0.12 0.11 0.11 0.10 0.09 0.10 0.10 0.12 0.12 0.11 0.10 0.09 0.09 0.13 0.16 0.16 0.18 0.18 0.17 0.14 0.08 0.08 0.09 0.12 0.15 0.17 0.17 0.18 0.25

GEFSMW_prec_meanprecacc_126.txt.gz
Total_Precipitation_Accumulation
0.45 0.58 0.70 0.98 1.34 1.62 1.72 1.74 1.64 1.66 1.85 1.74 1.53 1.30 1.10 1.01 0.85 0.66 0.55 0.45 0.35 0.27 0.20 0.15 0.13 0.11 0.10 0.09 0.08 0.07 0.06 0.05 0.04 0.04 0.03 0.01 0.01 0.01 0.01 0.01 0.01 0.01 0.01
0.37 0.51 0.59 0.76 1.02 1.41 1.63 1.69 1.73 1.76 1.83 1.75 1.62 1.53 1.49 1.39 1.27 1.11 0.81 0.60 0.48 0.38 0.30 0.24 0.20 0.18 0.18 0.16 0.15 0.14 0.13 0.11 0.09 0.09 0.10 0.05 0.02 0.01 0.01 0.01 0.01 0.01 0.01
0.30 0.40 0.48 0.59 0.75 0.97 1.32 1.48 1.54 1.60 1.64 1.83 2.07 1.99 1.83 1.56 1.29 1.05 0.94 0.84 0.77 0.66 0.54 0.48 0.39 0.32 0.28 0.24 0.24 0.23 0.20 0.19 0.16 0.16 0.20 0.18 0.10 0.06 0.03 0.03 0.03 0.03 0.03
0.25 0.31 0.36 0.42 0.56 0.66 0.92 1.24 1.42 1.49 1.48 1.58 1.79 1.83 1.67 1.35 1.14 1.08 1.09 1.11 1.03 0.92 0.84 0.74 0.62 0.51 0.43 0.37 0.38 0.37 0.34 0.33 0.30 0.27 0.25 0.26 0.25 0.26 0.17 0.07 0.06 0.06 0.06
0.23 0.24 0.23 0.27 0.35 0.47 0.69 1.01 1.23 1.39 1.39 1.37 1.46 1.64 1.68 1.60 1.47 1.34 1.21 1.13 1.09 1.01 0.95 0.86 0.80 0.68 0.61 0.56 0.55 0.52 0.51 0.49 0.46 0.43 0.39 0.37 0.35 0.36 0.40 0.25 0.13 0.12 0.12
0.17 0.18 0.18 0.20 0.24 0.32 0.46 0.74 0.99 1.19 1.32 1.34 1.37 1.43 1.47 1.57 1.49 1.34 1.27 1.19 1.13 1.05 0.98 0.94 0.88 0.83 0.77 0.72 0.70 0.70 0.66 0.62 0.60 0.58 0.56 0.57 0.55 0.50 0.56 0.53 0.36 0.30 0.24
0.12 0.12 0.13 0.15 0.18 0.23 0.30 0.48 0.61 0.78 1.00 1.18 1.27 1.32 1.35 1.42 1.42 1.34 1.28 1.26 1.15 1.02 0.95 1.00 0.97 0.93 0.88 0.86 0.86 0.80 0.74 0.73 0.70 0.69 0.68 0.69 0.66 0.66 0.70 0.75 0.63 0.51 0.39
0.11 0.10 0.11 0.14 0.16 0.18 0.21 0.29 0.37 0.47 0.62 0.83 0.93 1.00 1.11 1.17 1.19 1.21 1.16 1.13 1.07 1.02 1.02 1.03 1.02 0.98 0.93 0.88 0.85 0.81 0.76 0.76 0.75 0.75 0.76 0.74 0.70 0.74 0.78 0.83 0.89 0.79 0.58
0.10 0.10 0.13 0.15 0.14 0.15 0.14 0.18 0.22 0.29 0.38 0.52 0.66 0.73 0.79 0.83 0.88 0.91 0.89 0.93 0.95 0.93 0.90 0.87 0.88 0.88 0.85 0.84 0.83 0.78 0.73 0.73 0.72 0.72 0.74 0.74 0.70 0.72 0.77 0.84 0.96 1.07 0.94
0.12 0.13 0.16 0.15 0.12 0.11 0.11 0.12 0.13 0.16 0.21 0.29 0.41 0.51 0.58 0.62 0.69 0.75 0.72 0.69 0.73 0.76 0.78 0.76 0.74 0.73 0.72 0.73 0.74 0.72 0.70 0.71 0.66 0.64 0.65 0.65 0.64 0.68 0.75 0.83 0.90 1.02 1.10
0.12 0.14 0.15 0.13 0.11 0.11 0.12 0.10 0.09 0.10 0.12 0.17 0.25 0.32 0.38 0.44 0.53 0.56 0.56 0.57 0.56 0.55 0.58 0.58 0.57 0.57 0.58 0.58 0.58 0.59 0.60 0.61 0.60 0.61 0.64 0.65 0.66 0.68 0.70 0.74 0.79 0.86 0.94
0.11 0.13 0.13 0.10 0.10 0.11 0.10 0.09 0.08 0.09 0.10 0.11 0.15 0.21 0.28 0.33 0.37 0.42 0.43 0.41 0.44 0.43 0.42 0.42 0.42 0.40 0.38 0.38 0.39 0.41 0.44 0.48 0.51 0.53 0.57 0.60 0.62 0.65 0.65 0.66 0.66 0.66 0.68
0.10 0.11 0.10 0.10 0.12 0.12 0.11 0.10 0.10 0.09 0.09 0.10 0.11 0.13 0.19 0.24 0.27 0.29 0.31 0.30 0.30 0.32 0.32 0.31 0.31 0.31 0.29 0.27 0.27 0.29 0.33 0.36 0.39 0.42 0.45 0.49 0.53 0.53 0.50 0.49 0.49 0.50 0.54
0.08 0.07 0.08 0.10 0.13 0.14 0.12 0.11 0.11 0.11 0.12 0.12 0.12 0.12 0.15 0.21 0.23 0.21 0.19 0.20 0.21 0.23 0.24 0.22 0.23 0.24 0.26 0.26 0.27 0.29 0.31 0.32 0.32 0.34 0.36 0.37 0.37 0.37 0.36 0.37 0.39 0.44 0.50
0.08 0.07 0.07 0.09 0.12 0.14 0.13 0.12 0.13 0.14 0.16 0.18 0.17 0.15 0.15 0.20 0.21 0.20 0.18 0.17 0.17 0.19 0.21 0.21 0.23 0.24 0.25 0.27 0.29 0.30 0.32 0.33 0.33 0.32 0.30 0.28 0.29 0.28 0.29 0.32 0.36 0.43 0.50
0.06 0.06 0.06 0.06 0.08 0.10 0.12 0.13 0.14 0.16 0.20 0.20 0.19 0.18 0.18 0.20 0.21 0.21 0.21 0.20 0.19 0.20 0.22 0.25 0.28 0.29 0.31 0.38 0.36 0.32 0.32 0.33 0.32 0.31 0.28 0.27 0.28 0.25 0.27 0.31 0.38 0.50 0.62
0.08 0.07 0.06 0.07 0.08 0.08 0.09 0.09 0.10 0.12 0.16 0.21 0.22 0.22 0.22 0.23 0.25 0.24 0.26 0.30 0.33 0.34 0.33 0.33 0.34 0.36 0.41 0.43 0.36 0.32 0.28 0.28 0.28 0.26 0.23 0.21 0.20 0.21 0.19 0.23 0.34 0.43 0.52
0.09 0.09 0.08 0.08 0.08 0.09 0.08 0.08 0.09 0.12 0.14 0.17 0.21 0.21 0.22 0.25 0.26 0.30 0.34 0.37 0.39 0.41 0.43 0.43 0.39 0.37 0.38 0.36 0.29 0.26 0.24 0.24 0.23 0.21 0.19 0.18 0.17 0.16 0.20 0.27 0.35 0.30 0.26
0.08 0.08 0.08 0.08 0.08 0.08 0.09 0.10 0.12 0.15 0.17 0.22 0.26 0.26 0.29 0.31 0.33 0.36 0.38 0.41 0.44 0.43 0.40 0.39 0.38 0.37 0.35 0.30 0.24 0.22 0.20 0.20 0.18 0.16 0.15 0.15 0.14 0.17 0.29 0.39 0.42 0.30 0.19
0.08 0.09 0.10 0.10 0.11 0.13 0.15 0.15 0.17 0.21 0.23 0.27 0.32 0.32 0.34 0.39 0.40 0.40 0.40 0.39 0.39 0.41 0.38 0.34 0.31 0.30 0.29 0.26 0.22 0.19 0.18 0.18 0.16 0.14 0.12 0.14 0.16 0.23 0.34 0.37 0.40 0.33 0.23
0.09 0.10 0.11 0.13 0.17 0.22 0.24 0.24 0.26 0.29 0.29 0.30 0.33 0.32 0.32 0.34 0.33 0.34 0.33 0.33 0.32 0.31 0.28 0.26 0.26 0.23 0.21 0.19 0.16 0.15 0.15 0.17 0.17 0.14 0.11 0.11 0.21 0.29 0.32 0.29 0.25 0.31 0.38
0.13 0.12 0.13 0.15 0.17 0.24 0.30 0.30 0.29 0.29 0.28 0.27 0.29 0.30 0.31 0.31 0.29 0.28 0.28 0.27 0.25 0.24 0.21 0.18 0.18 0.16 0.15 0.14 0.12 0.13 0.15 0.20 0.19 0.15 0.11 0.13 0.22 0.23 0.19 0.16 0.20 0.33 0.34
0.13 0.12 0.13 0.13 0.15 0.19 0.25 0.31 0.31 0.29 0.28 0.27 0.28 0.28 0.27 0.27 0.27 0.23 0.22 0.20 0.16 0.14 0.13 0.12 0.11 0.11 0.12 0.14 0.15 0.15 0.19 0.21 0.18 0.15 0.18 0.20 0.18 0.14 0.11 0.14 0.19 0.19 0.17
0.12 0.12 0.12 0.13 0.16 0.18 0.19 0.23 0.24 0.24 0.25 0.25 0.25 0.25 0.25 0.23 0.21 0.18 0.17 0.16 0.14 0.13 0.11 0.10 0.10 0.10 0.10 0.12 0.14 0.16 0.17 0.18 0.19 0.18 0.18 0.16 0.13 0.11 0.12 0.15 0.14 0.11 0.18
0.13 0.14 0.14 0.14 0.15 0.15 0.16 0.16 0.16 0.17 0.20 0.22 0.21 0.20 0.20 0.20 0.19 0.16 0.15 0.14 0.13 0.15 0.15 0.13 0.12 0.12 0.11 0.13 0.20 0.23 0.20 0.22 0.24 0.23 0.15 0.12 0.11 0.10 0.11 0.14 0.14 0.15 0.22
0.14 0.14 0.14 0.14 0.14 0.14 0.15 0.15 0.14 0.16 0.17 0.19 0.19 0.18 0.18 0.17 0.16 0.15 0.13 0.13 0.13 0.14 0.16 0.15 0.14 0.13 0.14 0.17 0.21 0.23 0.25 0.26 0.25 0.22 0.16 0.15 0.15 0.16 0.19 0.21 0.21 0.21 0.28

GEFSMW_prec_meanprecacc_132.txt.gz
Total_Precipitation_Accumulation
0.59 0.75 0.95 1.21 1.52 1.86 2.03 1.97 1.90 2.05 2.28 2.11 1.86 1.62 1.41 1.26 1.06 0.86 0.72 0.57 0.44 0.37 0.29 0.21 0.17 0.15 0.13 0.12 0.11 0.10 0.09 0.07 0.06 0.06 0.04 0.02 0.02 0.01 0.01 0.01 0.01 0.01 0.01
0.50 0.67 0.80 0.99 1.22 1.68 1.93 1.94 1.97 2.10 2.27 2.13 1.98 1.89 1.82 1.66 1.49 1.33 1.02 0.77 0.59 0.48 0.40 0.31 0.25 0.22 0.21 0.20 0.19 0.18 0.16 0.14 0.13 0.13 0.13 0.07 0.03 0.01 0.02 0.03 0.02 0.02 0.02
0.44 0.56 0.66 0.80 0.94 1.27 1.65 1.78 1.80 1.92 2.06 2.21 2.47 2.43 2.26 1.95 1.57 1.29 1.16 1.02 0.90 0.77 0.63 0.56 0.45 0.36 0.31 0.28 0.27 0.26 0.24 0.22 0.20 0.20 0.25 0.23 0.13 0.08 0.05 0.04 0.04 0.04 0.04
0.41 0.47 0.52 0.62 0.75 0.94 1.26 1.56 1.74 1.83 1.86 1.95 2.17 2.28 2.12 1.77 1.48 1.33 1.29 1.29 1.18 1.06 0.96 0.83 0.70 0.55 0.46 0.39 0.41 0.39 0.37 0.37 0.34 0.32 0.29 0.31 0.30 0.30 0.20 0.09 0.07 0.07 0.07
0.37 0.39 0.38 0.44 0.54 0.71 0.97 1.26 1.52 1.73 1.74 1.69 1.77 1.98 2.06 1.96 1.82 1.67 1.48 1.32 1.24 1.15 1.07 0.97 0.87 0.73 0.64 0.58 0.57 0.55 0.54 0.53 0.50 0.48 0.44 0.42 0.39 0.41 0.44 0.29 0.15 0.14 0.13
0.37 0.35 0.32 0.35 0.40 0.49 0.65 0.91 1.18 1.48 1.66 1.67 1.68 1.72 1.77 1.86 1.80 1.66 1.59 1.42 1.29 1.19 1.10 1.03 0.96 0.89 0.82 0.75 0.72 0.73 0.69 0.66 0.63 0.61 0.59 0.61 0.59 0.53 0.60 0.58 0.39 0.32 0.27
0.31 0.28 0.28 0.28 0.32 0.38 0.46 0.63 0.77 1.02 1.32 1.48 1.55 1.57 1.60 1.67 1.68 1.63 1.57 1.52 1.35 1.18 1.10 1.10 1.05 1.00 0.93 0.89 0.89 0.83 0.76 0.75 0.72 0.71 0.71 0.72 0.71 0.70 0.75 0.80 0.67 0.55 0.42
0.33 0.28 0.26 0.26 0.30 0.33 0.36 0.44 0.53 0.69 0.92 1.10 1.19 1.23 1.35 1.41 1.41 1.45 1.41 1.36 1.29 1.21 1.19 1.18 1.12 1.06 0.99 0.93 0.88 0.84 0.78 0.78 0.78 0.78 0.79 0.77 0.73 0.78 0.82 0.89 0.95 0.86 0.64
0.28 0.27 0.26 0.27 0.29 0.29 0.29 0.34 0.41 0.47 0.61 0.74 0.88 0.97 1.03 1.05 1.07 1.11 1.10 1.12 1.13 1.11 1.06 1.03 1.01 0.98 0.93 0.91 0.89 0.82 0.76 0.76 0.75 0.75 0.78 0.78 0.74 0.76 0.82 0.90 1.03 1.15 1.03
0.26 0.26 0.26 0.25 0.26 0.25 0.24 0.26 0.28 0.31 0.37 0.46 0.60 0.71 0.77 0.81 0.88 0.92 0.89 0.83 0.85 0.90 0.91 0.90 0.88 0.86 0.84 0.82 0.82 0.78 0.76 0.75 0.70 0.68 0.69 0.68 0.68 0.72 0.79 0.87 0.96 1.09 1.18
0.29 0.30 0.29 0.27 0.26 0.25 0.23 0.23 0.21 0.22 0.23 0.29 0.40 0.46 0.52 0.59 0.68 0.74 0.73 0.72 0.66 0.65 0.68 0.68 0.68 0.68 0.70 0.70 0.69 0.68 0.68 0.68 0.66 0.66 0.68 0.70 0.70 0.73 0.74 0.78 0.84 0.92 1.02
0.27 0.30 0.30 0.26 0.24 0.25 0.25 0.23 0.21 0.20 0.19 0.21 0.25 0.31 0.39 0.46 0.49 0.58 0.59 0.58 0.58 0.53 0.52 0.52 0.51 0.49 0.46 0.47 0.48 0.49 0.52 0.56 0.58 0.60 0.63 0.66 0.68 0.70 0.70 0.71 0.71 0.72 0.75
0.24 0.26 0.25 0.26 0.26 0.25 0.24 0.25 0.23 0.20 0.19 0.18 0.20 0.23 0.30 0.36 0.37 0.41 0.48 0.44 0.48 0.46 0.42 0.41 0.41 0.40 0.38 0.34 0.34 0.36 0.39 0.43 0.46 0.49 0.52 0.56 0.59 0.59 0.56 0.55 0.55 0.56 0.60
0.19 0.19 0.21 0.23 0.25 0.26 0.26 0.26 0.24 0.22 0.21 0.19 0.20 0.21 0.24 0.31 0.33 0.31 0.34 0.35 0.39 0.44 0.38 0.34 0.35 0.36 0.37 0.37 0.35 0.37 0.39 0.39 0.39 0.41 0.44 0.44 0.44 0.43 0.43 0.45 0.46 0.52 0.58
0.13 0.13 0.14 0.16 0.20 0.22 0.22 0.21 0.21 0.21 0.23 0.24 0.23 0.22 0.22 0.27 0.31 0.29 0.30 0.30 0.31 0.40 0.41 0.36 0.35 0.36 0.37 0.38 0.40 0.40 0.41 0.42 0.42 0.40 0.37 0.36 0.37 0.36 0.37 0.40 0.44 0.51 0.59
0.08 0.08 0.08 0.09 0.11 0.14 0.17 0.18 0.19 0.21 0.25 0.26 0.25 0.23 0.24 0.26 0.30 0.29 0.29 0.29 0.29 0.34 0.39 0.40 0.41 0.42 0.42 0.50 0.48 0.43 0.42 0.43 0.41 0.39 0.36 0.35 0.37 0.35 0.37 0.40 0.48 0.59 0.70
0.08 0.08 0.07 0.08 0.08 0.09 0.11 0.12 0.13 0.15 0.20 0.25 0.27 0.27 0.27 0.28 0.31 0.32 0.34 0.38 0.42 0.43 0.43 0.43 0.44 0.47 0.51 0.54 0.46 0.43 0.38 0.37 0.36 0.35 0.32 0.30 0.29 0.32 0.29 0.34 0.46 0.55 0.62
0.09 0.10 0.09 0.09 0.09 0.09 0.09 0.10 0.11 0.14 0.17 0.20 0.24 0.25 0.26 0.29 0.31 0.37 0.40 0.45 0.47 0.48 0.51 0.51 0.47 0.45 0.47 0.45 0.38 0.35 0.31 0.31 0.31 0.29 0.28 0.28 0.28 0.28 0.33 0.39 0.45 0.39 0.35
0.08 0.09 0.09 0.09 0.09 0.09 0.10 0.11 0.14 0.18 0.20 0.24 0.28 0.29 0.32 0.35 0.37 0.42 0.43 0.46 0.50 0.50 0.47 0.45 0.45 0.43 0.43 0.38 0.32 0.29 0.25 0.25 0.24 0.22 0.22 0.24 0.23 0.29 0.42 0.51 0.51 0.38 0.27
0.08 0.09 0.10 0.11 0.12 0.14 0.16 0.17 0.19 0.23 0.25 0.29 0.34 0.34 0.38 0.43 0.45 0.45 0.44 0.43 0.44 0.47 0.44 0.40 0.38 0.36 0.35 0.33 0.29 0.26 0.23 0.23 0.21 0.20 0.18 0.22 0.24 0.32 0.44 0.46 0.49 0.42 0.31
0.09 0.10 0.11 0.14 0.18 0.23 0.25 0.26 0.28 0.31 0.31 0.32 0.35 0.34 0.36 0.39 0.38 0.38 0.38 0.37 0.37 0.36 0.33 0.33 0.33 0.30 0.28 0.26 0.24 0.21 0.20 0.22 0.23 0.20 0.16 0.17 0.28 0.37 0.40 0.37 0.32 0.39 0.47
0.13 0.12 0.14 0.15 0.17 0.25 0.31 0.32 0.30 0.31 0.30 0.29 0.32 0.33 0.34 0.36 0.34 0.33 0.34 0.32 0.30 0.29 0.26 0.24 0.24 0.23 0.23 0.21 0.20 0.20 0.21 0.25 0.24 0.20 0.17 0.18 0.29 0.30 0.27 0.24 0.28 0.42 0.44
0.13 0.12 0.13 0.13 0.15 0.20 0.26 0.32 0.32 0.30 0.30 0.30 0.32 0.31 0.30 0.31 0.32 0.29 0.28 0.26 0.22 0.20 0.18 0.17 0.16 0.15 0.16 0.19 0.21 0.22 0.26 0.28 0.24 0.21 0.25 0.26 0.24 0.21 0.19 0.23 0.28 0.28 0.25
0.12 0.13 0.12 0.13 0.16 0.18 0.20 0.24 0.26 0.26 0.27 0.27 0.28 0.29 0.30 0.28 0.26 0.24 0.24 0.23 0.21 0.18 0.16 0.15 0.14 0.13 0.14 0.16 0.18 0.21 0.23 0.25 0.26 0.25 0.24 0.23 0.21 0.20 0.20 0.23 0.22 0.18 0.24
0.13 0.14 0.14 0.14 0.15 0.15 0.16 0.16 0.17 0.19 0.22 0.25 0.24 0.24 0.24 0.25 0.25 0.23 0.22 0.22 0.21 0.22 0.21 0.18 0.17 0.16 0.15 0.16 0.24 0.27 0.26 0.28 0.30 0.29 0.21 0.18 0.19 0.18 0.19 0.21 0.21 0.21 0.29
0.14 0.14 0.14 0.14 0.15 0.15 0.15 0.15 0.15 0.17 0.19 0.21 0.22 0.22 0.22 0.22 0.22 0.22 0.20 0.21 0.21 0.23 0.24 0.22 0.20 0.18 0.18 0.21 0.25 0.27 0.30 0.31 0.31 0.29 0.22 0.21 0.21 0.22 0.25 0.26 0.27 0.28 0.35

GEFSMW_prec_meanprecacc_138.txt.gz
Total_Precipitation_Accumulation
0.67 0.86 1.08 1.35 1.60 1.95 2.15 2.12 2.05 2.18 2.40 2.23 1.98 1.78 1.56 1.37 1.17 0.97 0.84 0.74 0.65 0.58 0.44 0.33 0.27 0.23 0.20 0.18 0.15 0.14 0.11 0.08 0.07 0.06 0.05 0.02 0.02 0.02 0.01 0.01 0.02 0.01 0.01
0.59 0.78 0.95 1.17 1.35 1.78 2.06 2.08 2.13 2.24 2.40 2.26 2.10 2.03 1.98 1.78 1.57 1.43 1.12 0.88 0.75 0.67 0.59 0.47 0.37 0.32 0.29 0.26 0.24 0.22 0.20 0.16 0.15 0.15 0.14 0.08 0.03 0.02 0.02 0.03 0.03 0.03 0.03
0.54 0.66 0.81 0.99 1.07 1.37 1.76 1.91 1.94 2.07 2.20 2.37 2.61 2.57 2.43 2.11 1.68 1.39 1.27 1.14 1.04 0.93 0.80 0.73 0.59 0.47 0.40 0.34 0.33 0.31 0.28 0.26 0.22 0.22 0.27 0.26 0.15 0.09 0.05 0.04 0.04 0.05 0.05
0.51 0.60 0.70 0.80 0.89 1.04 1.37 1.70 1.88 1.99 2.01 2.10 2.32 2.43 2.27 1.92 1.59 1.40 1.38 1.40 1.31 1.22 1.13 0.99 0.86 0.70 0.57 0.48 0.47 0.44 0.41 0.41 0.38 0.35 0.32 0.33 0.32 0.32 0.22 0.10 0.08 0.08 0.08
0.53 0.57 0.60 0.63 0.71 0.85 1.14 1.47 1.72 1.93 1.92 1.85 1.93 2.13 2.22 2.11 1.94 1.76 1.58 1.47 1.41 1.30 1.25 1.15 1.04 0.91 0.78 0.70 0.67 0.62 0.59 0.57 0.54 0.51 0.47 0.45 0.41 0.42 0.46 0.30 0.16 0.15 0.14
0.60 0.59 0.56 0.56 0.63 0.70 0.86 1.16 1.43 1.72 1.87 1.82 1.84 1.89 1.94 2.04 1.96 1.79 1.70 1.56 1.50 1.41 1.27 1.21 1.15 1.06 0.98 0.90 0.85 0.84 0.78 0.72 0.68 0.65 0.62 0.63 0.60 0.55 0.62 0.59 0.40 0.33 0.27
0.49 0.49 0.49 0.49 0.56 0.62 0.68 0.89 1.04 1.30 1.55 1.68 1.72 1.76 1.80 1.86 1.85 1.76 1.69 1.66 1.51 1.39 1.32 1.28 1.24 1.20 1.11 1.06 1.03 0.97 0.89 0.84 0.79 0.76 0.74 0.75 0.73 0.72 0.77 0.82 0.69 0.56 0.43
0.49 0.47 0.47 0.50 0.58 0.59 0.64 0.74 0.84 0.98 1.19 1.35 1.42 1.46 1.56 1.62 1.60 1.60 1.54 1.51 1.45 1.37 1.38 1.39 1.31 1.26 1.21 1.12 1.05 0.98 0.91 0.90 0.87 0.83 0.83 0.80 0.76 0.80 0.85 0.91 0.97 0.88 0.65
0.43 0.44 0.44 0.49 0.54 0.56 0.58 0.64 0.72 0.76 0.85 0.99 1.14 1.23 1.26 1.26 1.25 1.27 1.25 1.27 1.29 1.25 1.21 1.22 1.20 1.16 1.12 1.09 1.05 0.96 0.88 0.88 0.87 0.83 0.83 0.81 0.77 0.80 0.86 0.93 1.06 1.19 1.05
0.41 0.41 0.41 0.43 0.46 0.48 0.48 0.53 0.58 0.57 0.61 0.69 0.81 0.92 1.01 1.02 1.05 1.07 1.03 0.98 1.01 1.04 1.05 1.05 1.04 1.02 1.00 0.98 0.97 0.92 0.89 0.88 0.83 0.80 0.77 0.74 0.72 0.76 0.83 0.92 1.00 1.13 1.22
0.40 0.41 0.41 0.42 0.42 0.42 0.41 0.43 0.42 0.43 0.45 0.52 0.61 0.64 0.74 0.81 0.86 0.88 0.84 0.82 0.78 0.79 0.81 0.80 0.81 0.83 0.85 0.84 0.81 0.80 0.81 0.81 0.78 0.78 0.80 0.78 0.77 0.79 0.80 0.84 0.90 0.98 1.08
0.37 0.40 0.42 0.40 0.40 0.40 0.40 0.41 0.38 0.37 0.37 0.43 0.48 0.49 0.56 0.65 0.67 0.72 0.70 0.68 0.68 0.64 0.64 0.63 0.61 0.61 0.61 0.62 0.62 0.62 0.64 0.68 0.69 0.70 0.74 0.75 0.76 0.77 0.77 0.77 0.78 0.78 0.81
0.34 0.35 0.35 0.37 0.38 0.38 0.38 0.42 0.41 0.36 0.34 0.36 0.39 0.40 0.44 0.51 0.54 0.57 0.62 0.57 0.59 0.56 0.52 0.52 0.52 0.50 0.49 0.47 0.46 0.48 0.51 0.54 0.56 0.57 0.60 0.63 0.67 0.66 0.62 0.61 0.61 0.62 0.67
0.26 0.27 0.28 0.31 0.34 0.36 0.38 0.39 0.40 0.38 0.37 0.34 0.34 0.35 0.38 0.45 0.47 0.46 0.49 0.50 0.53 0.57 0.51 0.45 0.45 0.46 0.46 0.47 0.46 0.47 0.50 0.50 0.50 0.51 0.52 0.51 0.50 0.49 0.49 0.50 0.52 0.58 0.65
0.18 0.19 0.20 0.22 0.26 0.30 0.32 0.31 0.32 0.34 0.37 0.36 0.35 0.34 0.35 0.40 0.44 0.41 0.42 0.43 0.45 0.54 0.56 0.52 0.47 0.47 0.47 0.48 0.51 0.51 0.52 0.53 0.53 0.51 0.47 0.45 0.45 0.43 0.43 0.46 0.50 0.57 0.66
0.11 0.10 0.10 0.12 0.13 0.17 0.21 0.23 0.24 0.28 0.34 0.36 0.34 0.32 0.33 0.36 0.41 0.41 0.42 0.43 0.44 0.50 0.56 0.59 0.59 0.56 0.54 0.61 0.59 0.54 0.54 0.55 0.54 0.52 0.47 0.45 0.47 0.44 0.44 0.47 0.55 0.66 0.77
0.09 0.08 0.07 0.08 0.09 0.10 0.12 0.14 0.15 0.18 0.23 0.29 0.32 0.32 0.33 0.36 0.40 0.43 0.46 0.52 0.58 0.60 0.61 0.63 0.65 0.65 0.66 0.67 0.58 0.55 0.49 0.49 0.49 0.48 0.44 0.40 0.39 0.42 0.39 0.43 0.54 0.63 0.71
0.10 0.10 0.09 0.09 0.09 0.10 0.10 0.11 0.12 0.15 0.18 0.21 0.26 0.28 0.29 0.33 0.36 0.44 0.50 0.56 0.60 0.63 0.66 0.67 0.64 0.62 0.62 0.59 0.51 0.48 0.43 0.43 0.43 0.42 0.41 0.40 0.39 0.38 0.43 0.49 0.56 0.50 0.46
0.09 0.09 0.09 0.09 0.09 0.10 0.11 0.12 0.15 0.19 0.21 0.25 0.29 0.31 0.36 0.39 0.41 0.46 0.48 0.52 0.57 0.60 0.58 0.57 0.57 0.56 0.57 0.51 0.43 0.41 0.36 0.37 0.36 0.35 0.35 0.37 0.37 0.42 0.55 0.62 0.62 0.48 0.36
0.08 0.09 0.11 0.11 0.12 0.14 0.16 0.18 0.20 0.23 0.25 0.30 0.35 0.36 0.42 0.49 0.50 0.52 0.50 0.47 0.48 0.53 0.52 0.48 0.46 0.43 0.45 0.45 0.39 0.36 0.33 0.34 0.33 0.32 0.31 0.35 0.36 0.44 0.56 0.57 0.60 0.53 0.41
0.09 0.10 0.11 0.14 0.18 0.23 0.26 0.27 0.29 0.32 0.32 0.33 0.36 0.36 0.39 0.43 0.44 0.43 0.44 0.42 0.41 0.41 0.40 0.39 0.41 0.38 0.36 0.36 0.33 0.30 0.27 0.29 0.31 0.29 0.26 0.27 0.39 0.47 0.51 0.47 0.41 0.49 0.57
0.13 0.12 0.14 0.15 0.17 0.25 0.31 0.32 0.31 0.32 0.31 0.30 0.33 0.34 0.36 0.38 0.38 0.37 0.39 0.38 0.35 0.33 0.32 0.30 0.32 0.32 0.31 0.30 0.28 0.27 0.27 0.31 0.29 0.26 0.23 0.26 0.39 0.40 0.37 0.34 0.38 0.52 0.53
0.13 0.12 0.13 0.13 0.15 0.20 0.26 0.33 0.33 0.31 0.31 0.31 0.33 0.32 0.31 0.32 0.34 0.33 0.33 0.32 0.28 0.25 0.24 0.24 0.23 0.24 0.26 0.29 0.30 0.29 0.33 0.34 0.30 0.26 0.31 0.34 0.34 0.31 0.29 0.34 0.40 0.39 0.35
0.12 0.13 0.12 0.13 0.16 0.18 0.20 0.24 0.26 0.27 0.28 0.28 0.29 0.31 0.31 0.29 0.28 0.28 0.28 0.28 0.27 0.25 0.23 0.22 0.21 0.21 0.23 0.25 0.26 0.29 0.30 0.31 0.32 0.32 0.32 0.31 0.30 0.30 0.31 0.34 0.33 0.28 0.33
0.13 0.14 0.14 0.14 0.15 0.15 0.16 0.16 0.17 0.19 0.23 0.25 0.26 0.25 0.26 0.27 0.26 0.25 0.25 0.27 0.26 0.28 0.29 0.26 0.25 0.24 0.22 0.23 0.32 0.35 0.32 0.34 0.35 0.35 0.27 0.24 0.25 0.25 0.26 0.29 0.30 0.31 0.37
0.14 0.14 0.14 0.14 0.15 0.15 0.15 0.15 0.16 0.17 0.19 0.22 0.23 0.24 0.24 0.24 0.24 0.24 0.23 0.25 0.26 0.29 0.31 0.32 0.31 0.28 0.27 0.30 0.34 0.36 0.37 0.39 0.39 0.36 0.27 0.26 0.26 0.28 0.30 0.33 0.34 0.36 0.44

GEFSMW_prec_meanprecacc_144.txt.gz
Total_Precipitation_Accumulation
0.75 0.97 1.19 1.44 1.70 2.07 2.24 2.19 2.16 2.33 2.54 2.37 2.13 1.90 1.66 1.47 1.28 1.11 0.98 0.87 0.76 0.67 0.54 0.44 0.39 0.34 0.30 0.27 0.24 0.22 0.19 0.14 0.12 0.11 0.08 0.04 0.03 0.02 0.01 0.02 0.02 0.02 0.01
0.66 0.87 1.07 1.29 1.47 1.89 2.15 2.16 2.23 2.36 2.53 2.40 2.24 2.16 2.09 1.88 1.67 1.52 1.24 1.01 0.87 0.77 0.69 0.58 0.48 0.43 0.40 0.37 0.35 0.32 0.28 0.24 0.22 0.22 0.21 0.12 0.06 0.03 0.03 0.03 0.03 0.03 0.03
0.60 0.74 0.90 1.10 1.20 1.47 1.85 2.00 2.06 2.20 2.31 2.47 2.71 2.68 2.54 2.20 1.77 1.47 1.35 1.24 1.17 1.05 0.89 0.84 0.73 0.59 0.51 0.45 0.44 0.41 0.37 0.33 0.29 0.28 0.34 0.31 0.18 0.10 0.06 0.05 0.05 0.05 0.05
0.57 0.67 0.78 0.89 1.01 1.14 1.47 1.81 1.99 2.10 2.11 2.19 2.42 2.53 2.38 2.02 1.67 1.47 1.44 1.46 1.40 1.34 1.26 1.10 0.99 0.86 0.72 0.60 0.58 0.55 0.51 0.50 0.45 0.40 0.36 0.37 0.35 0.34 0.23 0.11 0.08 0.08 0.08
0.61 0.65 0.69 0.73 0.82 0.95 1.25 1.57 1.81 2.01 2.02 1.93 2.01 2.23 2.32 2.20 2.02 1.84 1.65 1.52 1.48 1.41 1.38 1.28 1.16 1.04 0.94 0.86 0.80 0.73 0.70 0.67 0.63 0.57 0.51 0.48 0.44 0.44 0.48 0.32 0.17 0.15 0.14
0.67 0.66 0.67 0.68 0.73 0.80 0.96 1.25 1.53 1.83 1.99 1.92 1.92 1.99 2.04 2.12 2.03 1.86 1.78 1.62 1.56 1.50 1.37 1.33 1.26 1.16 1.10 1.03 1.00 0.98 0.91 0.85 0.79 0.74 0.68 0.68 0.65 0.58 0.64 0.61 0.41 0.34 0.28
0.59 0.57 0.57 0.58 0.67 0.74 0.80 0.99 1.15 1.40 1.68 1.81 1.84 1.86 1.92 1.95 1.94 1.89 1.84 1.77 1.59 1.47 1.41 1.37 1.36 1.31 1.21 1.17 1.16 1.11 1.02 0.97 0.91 0.87 0.82 0.81 0.78 0.77 0.82 0.88 0.73 0.60 0.45
0.62 0.59 0.56 0.60 0.69 0.71 0.77 0.88 0.97 1.10 1.32 1.51 1.59 1.60 1.71 1.77 1.71 1.73 1.70 1.64 1.55 1.44 1.44 1.47 1.41 1.38 1.33 1.25 1.20 1.14 1.07 1.05 1.01 0.95 0.93 0.88 0.82 0.85 0.90 0.96 1.03 0.93 0.68
0.54 0.56 0.57 0.63 0.66 0.68 0.73 0.81 0.88 0.92 1.03 1.19 1.32 1.41 1.44 1.43 1.37 1.37 1.37 1.39 1.39 1.33 1.28 1.29 1.30 1.28 1.25 1.22 1.21 1.14 1.06 1.04 1.02 0.98 0.95 0.92 0.85 0.85 0.90 0.98 1.12 1.26 1.12
0.53 0.55 0.57 0.58 0.58 0.60 0.63 0.70 0.74 0.74 0.80 0.90 0.97 1.11 1.21 1.19 1.19 1.19 1.16 1.11 1.11 1.11 1.11 1.11 1.12 1.11 1.11 1.10 1.09 1.06 1.03 1.01 0.95 0.92 0.90 0.86 0.82 0.84 0.90 0.98 1.07 1.21 1.31
0.54 0.59 0.61 0.60 0.57 0.58 0.59 0.61 0.57 0.58 0.63 0.71 0.77 0.81 0.92 0.99 1.01 1.01 0.95 0.95 0.90 0.87 0.86 0.85 0.86 0.90 0.93 0.94 0.92 0.91 0.92 0.94 0.92 0.92 0.94 0.92 0.89 0.89 0.88 0.91 0.97 1.05 1.15
0.49 0.53 0.59 0.57 0.56 0.57 0.58 0.59 0.52 0.51 0.53 0.59 0.63 0.65 0.73 0.82 0.84 0.88 0.84 0.79 0.79 0.73 0.71 0.69 0.66 0.66 0.68 0.71 0.71 0.71 0.74 0.80 0.81 0.82 0.86 0.87 0.88 0.90 0.87 0.86 0.85 0.84 0.86
0.43 0.45 0.46 0.50 0.52 0.53 0.54 0.58 0.56 0.50 0.49 0.51 0.54 0.57 0.63 0.68 0.71 0.72 0.76 0.69 0.70 0.66 0.61 0.59 0.57 0.55 0.54 0.55 0.55 0.57 0.61 0.65 0.68 0.69 0.71 0.73 0.77 0.77 0.73 0.71 0.70 0.69 0.72
0.33 0.33 0.36 0.41 0.45 0.48 0.50 0.52 0.55 0.53 0.52 0.50 0.48 0.50 0.55 0.63 0.66 0.61 0.63 0.62 0.64 0.67 0.59 0.52 0.50 0.50 0.52 0.54 0.55 0.57 0.60 0.61 0.62 0.63 0.63 0.61 0.59 0.58 0.58 0.60 0.61 0.67 0.73
0.22 0.24 0.26 0.28 0.33 0.38 0.40 0.41 0.44 0.47 0.49 0.49 0.46 0.46 0.48 0.55 0.60 0.54 0.53 0.54 0.55 0.63 0.64 0.58 0.52 0.52 0.52 0.55 0.59 0.60 0.62 0.62 0.62 0.60 0.57 0.54 0.54 0.52 0.51 0.55 0.59 0.66 0.76
0.13 0.14 0.15 0.17 0.18 0.23 0.27 0.29 0.32 0.38 0.43 0.44 0.44 0.43 0.43 0.47 0.56 0.55 0.53 0.52 0.54 0.58 0.63 0.66 0.65 0.61 0.60 0.69 0.67 0.62 0.62 0.64 0.63 0.61 0.55 0.53 0.56 0.53 0.52 0.55 0.63 0.74 0.87
0.10 0.09 0.09 0.10 0.11 0.13 0.16 0.19 0.21 0.25 0.30 0.37 0.40 0.40 0.42 0.46 0.54 0.57 0.57 0.61 0.67 0.69 0.69 0.71 0.72 0.72 0.74 0.76 0.67 0.64 0.59 0.59 0.59 0.57 0.54 0.50 0.48 0.51 0.46 0.50 0.62 0.71 0.79
0.11 0.11 0.10 0.10 0.10 0.11 0.12 0.12 0.15 0.18 0.22 0.26 0.31 0.33 0.35 0.40 0.43 0.52 0.59 0.64 0.68 0.72 0.76 0.77 0.74 0.70 0.70 0.67 0.59 0.58 0.53 0.55 0.55 0.52 0.50 0.51 0.50 0.49 0.53 0.58 0.65 0.58 0.53
0.10 0.10 0.10 0.10 0.10 0.10 0.11 0.12 0.15 0.19 0.21 0.26 0.31 0.33 0.39 0.43 0.45 0.50 0.54 0.58 0.64 0.69 0.66 0.66 0.67 0.66 0.66 0.60 0.53 0.51 0.48 0.49 0.48 0.47 0.46 0.48 0.47 0.54 0.67 0.73 0.73 0.59 0.46
0.09 0.10 0.11 0.11 0.12 0.15 0.17 0.18 0.20 0.23 0.25 0.30 0.36 0.37 0.43 0.51 0.53 0.55 0.54 0.51 0.55 0.62 0.60 0.55 0.53 0.51 0.53 0.53 0.48 0.47 0.44 0.46 0.44 0.43 0.42 0.47 0.48 0.58 0.70 0.69 0.71 0.65 0.53
0.10 0.11 0.12 0.14 0.18 0.23 0.26 0.27 0.29 0.32 0.32 0.33 0.36 0.36 0.40 0.45 0.46 0.47 0.47 0.45 0.45 0.47 0.46 0.45 0.46 0.43 0.43 0.44 0.41 0.39 0.38 0.40 0.42 0.40 0.37 0.38 0.53 0.62 0.65 0.61 0.54 0.61 0.70
0.14 0.13 0.14 0.16 0.18 0.25 0.31 0.32 0.31 0.32 0.31 0.31 0.33 0.34 0.36 0.39 0.40 0.40 0.42 0.42 0.39 0.39 0.37 0.35 0.36 0.36 0.36 0.37 0.36 0.36 0.36 0.41 0.38 0.35 0.32 0.35 0.49 0.52 0.51 0.49 0.54 0.67 0.68
0.14 0.13 0.14 0.14 0.16 0.20 0.26 0.33 0.33 0.31 0.31 0.31 0.33 0.33 0.32 0.33 0.36 0.35 0.36 0.35 0.32 0.30 0.29 0.28 0.28 0.29 0.30 0.34 0.38 0.39 0.43 0.44 0.39 0.35 0.40 0.43 0.43 0.41 0.40 0.48 0.57 0.57 0.50
0.13 0.13 0.13 0.14 0.17 0.18 0.20 0.24 0.26 0.27 0.28 0.28 0.29 0.31 0.32 0.30 0.28 0.29 0.31 0.32 0.31 0.30 0.27 0.27 0.26 0.26 0.27 0.30 0.32 0.37 0.40 0.41 0.42 0.42 0.42 0.39 0.38 0.38 0.40 0.44 0.44 0.42 0.49
0.13 0.15 0.14 0.15 0.16 0.15 0.16 0.16 0.17 0.19 0.23 0.26 0.26 0.25 0.26 0.28 0.27 0.26 0.27 0.30 0.30 0.33 0.34 0.32 0.31 0.30 0.28 0.30 0.39 0.42 0.41 0.43 0.44 0.45 0.38 0.33 0.33 0.33 0.35 0.38 0.39 0.41 0.50
0.14 0.14 0.14 0.14 0.15 0.15 0.15 0.15 0.16 0.17 0.20 0.22 0.23 0.24 0.24 0.24 0.24 0.25 0.24 0.27 0.29 0.33 0.36 0.38 0.38 0.35 0.34 0.37 0.41 0.43 0.45 0.47 0.49 0.46 0.38 0.36 0.34 0.35 0.38 0.41 0.43 0.45 0.54

GEFSMW_prec_meanprecacc_150.txt.gz
Total_Precipitation_Accumulation
0.75 0.98 1.20 1.46 1.75 2.12 2.29 2.25 2.20 2.36 2.57 2.40 2.16 1.94 1.71 1.53 1.35 1.19 1.07 0.97 0.87 0.77 0.64 0.54 0.49 0.45 0.42 0.38 0.33 0.32 0.29 0.25 0.23 0.22 0.18 0.12 0.08 0.05 0.03 0.03 0.02 0.02 0.02
0.67 0.89 1.09 1.33 1.51 1.95 2.21 2.22 2.27 2.41 2.57 2.44 2.29 2.22 2.14 1.94 1.75 1.61 1.33 1.11 0.98 0.89 0.80 0.68 0.58 0.53 0.51 0.48 0.44 0.41 0.39 0.36 0.36 0.37 0.36 0.25 0.16 0.09 0.06 0.05 0.04 0.03 0.04
0.62 0.77 0.94 1.14 1.24 1.52 1.90 2.05 2.12 2.28 2.38 2.52 2.76 2.74 2.60 2.28 1.85 1.57 1.46 1.33 1.27 1.16 1.01 0.95 0.85 0.69 0.61 0.57 0.54 0.49 0.46 0.43 0.40 0.40 0.48 0.45 0.31 0.21 0.14 0.09 0.07 0.06 0.06
0.60 0.71 0.82 0.93 1.06 1.20 1.54 1.87 2.07 2.20 2.21 2.27 2.48 2.59 2.44 2.09 1.75 1.56 1.55 1.58 1.50 1.45 1.39 1.24 1.15 1.01 0.84 0.72 0.69 0.64 0.60 0.59 0.55 0.51 0.46 0.45 0.42 0.42 0.32 0.19 0.13 0.12 0.10
0.63 0.69 0.73 0.77 0.85 1.01 1.33 1.65 1.88 2.10 2.12 2.03 2.10 2.30 2.39 2.27 2.10 1.93 1.77 1.66 1.61 1.53 1.50 1.44 1.34 1.22 1.10 0.99 0.93 0.85 0.81 0.77 0.72 0.67 0.60 0.57 0.52 0.51 0.54 0.38 0.22 0.19 0.18
0.71 0.71 0.71 0.71 0.76 0.83 1.00 1.29 1.58 1.90 2.07 2.01 2.02 2.08 2.12 2.20 2.12 1.96 1.91 1.78 1.74 1.65 1.50 1.47 1.43 1.36 1.29 1.20 1.16 1.13 1.03 0.94 0.87 0.82 0.77 0.76 0.72 0.64 0.69 0.65 0.46 0.38 0.31
0.64 0.62 0.60 0.61 0.70 0.78 0.84 1.03 1.19 1.46 1.75 1.87 1.90 1.91 1.98 2.02 2.03 1.99 1.97 1.92 1.75 1.63 1.53 1.47 1.48 1.47 1.38 1.32 1.30 1.25 1.15 1.09 1.01 0.96 0.92 0.90 0.86 0.83 0.88 0.93 0.79 0.65 0.49
0.67 0.64 0.60 0.64 0.74 0.76 0.82 0.92 1.02 1.14 1.37 1.57 1.63 1.65 1.76 1.82 1.78 1.82 1.82 1.77 1.68 1.57 1.56 1.55 1.49 1.49 1.47 1.38 1.33 1.27 1.18 1.15 1.11 1.05 1.03 0.99 0.93 0.96 1.00 1.06 1.12 1.02 0.75
0.60 0.62 0.63 0.67 0.72 0.75 0.79 0.87 0.93 0.96 1.08 1.25 1.37 1.47 1.49 1.50 1.45 1.47 1.49 1.50 1.51 1.46 1.38 1.37 1.37 1.36 1.36 1.34 1.31 1.25 1.16 1.13 1.11 1.06 1.03 1.00 0.94 0.95 1.01 1.09 1.23 1.38 1.21
0.58 0.62 0.65 0.64 0.65 0.68 0.71 0.79 0.81 0.80 0.86 0.96 1.03 1.18 1.27 1.27 1.30 1.30 1.27 1.24 1.23 1.23 1.21 1.19 1.19 1.18 1.19 1.18 1.17 1.13 1.10 1.09 1.02 0.98 0.97 0.92 0.89 0.92 0.99 1.08 1.17 1.31 1.41
0.60 0.65 0.68 0.66 0.64 0.67 0.69 0.71 0.66 0.67 0.71 0.79 0.83 0.88 1.00 1.07 1.12 1.12 1.05 1.06 1.02 0.97 0.95 0.92 0.92 0.96 1.00 1.00 0.99 0.98 0.99 1.01 0.98 0.98 0.99 0.97 0.94 0.94 0.95 0.99 1.04 1.12 1.22
0.54 0.58 0.64 0.64 0.64 0.66 0.68 0.70 0.63 0.60 0.63 0.69 0.70 0.72 0.81 0.91 0.96 1.00 0.94 0.89 0.90 0.84 0.79 0.75 0.72 0.71 0.74 0.77 0.77 0.77 0.81 0.86 0.87 0.88 0.92 0.93 0.94 0.96 0.93 0.93 0.92 0.91 0.93
0.47 0.49 0.51 0.56 0.59 0.62 0.65 0.71 0.67 0.58 0.57 0.59 0.60 0.64 0.70 0.78 0.82 0.83 0.85 0.79 0.81 0.75 0.69 0.66 0.62 0.60 0.59 0.60 0.61 0.64 0.67 0.71 0.73 0.74 0.77 0.80 0.84 0.85 0.81 0.80 0.78 0.77 0.79
0.35 0.36 0.40 0.45 0.50 0.55 0.59 0.62 0.64 0.61 0.61 0.60 0.57 0.58 0.63 0.73 0.77 0.72 0.74 0.74 0.76 0.76 0.67 0.59 0.56 0.55 0.56 0.58 0.59 0.62 0.65 0.66 0.67 0.68 0.68 0.67 0.66 0.65 0.66 0.69 0.71 0.76 0.83
0.24 0.27 0.29 0.32 0.38 0.43 0.46 0.50 0.53 0.55 0.59 0.60 0.57 0.57 0.58 0.65 0.71 0.65 0.65 0.65 0.66 0.73 0.72 0.66 0.60 0.58 0.58 0.60 0.64 0.64 0.66 0.67 0.67 0.65 0.62 0.59 0.60 0.58 0.59 0.62 0.68 0.76 0.87
0.15 0.16 0.18 0.20 0.23 0.27 0.32 0.37 0.41 0.46 0.52 0.54 0.55 0.54 0.53 0.56 0.64 0.64 0.62 0.62 0.64 0.69 0.74 0.76 0.74 0.69 0.67 0.76 0.73 0.67 0.67 0.69 0.67 0.65 0.60 0.58 0.61 0.58 0.58 0.62 0.70 0.82 0.96
0.11 0.11 0.11 0.12 0.14 0.17 0.22 0.25 0.29 0.33 0.39 0.46 0.50 0.52 0.53 0.55 0.61 0.63 0.64 0.70 0.76 0.79 0.79 0.82 0.83 0.82 0.82 0.83 0.73 0.69 0.63 0.64 0.64 0.62 0.58 0.54 0.53 0.57 0.53 0.58 0.70 0.79 0.88
0.11 0.12 0.12 0.12 0.12 0.14 0.15 0.16 0.20 0.25 0.29 0.33 0.40 0.42 0.44 0.47 0.50 0.57 0.65 0.72 0.76 0.80 0.83 0.85 0.83 0.80 0.79 0.76 0.65 0.62 0.56 0.58 0.59 0.57 0.55 0.56 0.55 0.54 0.59 0.65 0.72 0.65 0.61
0.10 0.11 0.11 0.11 0.12 0.11 0.12 0.14 0.18 0.23 0.27 0.32 0.37 0.39 0.44 0.48 0.51 0.56 0.60 0.65 0.71 0.74 0.72 0.72 0.74 0.74 0.73 0.67 0.58 0.56 0.51 0.53 0.51 0.50 0.49 0.51 0.51 0.60 0.73 0.79 0.80 0.65 0.51
0.09 0.11 0.11 0.12 0.14 0.16 0.17 0.19 0.22 0.25 0.27 0.33 0.39 0.40 0.46 0.54 0.57 0.59 0.58 0.57 0.61 0.66 0.64 0.59 0.58 0.57 0.58 0.58 0.53 0.51 0.48 0.50 0.48 0.46 0.46 0.50 0.52 0.63 0.76 0.75 0.78 0.73 0.59
0.11 0.11 0.12 0.14 0.18 0.24 0.26 0.27 0.29 0.32 0.33 0.34 0.38 0.38 0.41 0.46 0.49 0.49 0.50 0.49 0.50 0.51 0.48 0.48 0.49 0.46 0.46 0.49 0.45 0.43 0.41 0.44 0.47 0.44 0.40 0.42 0.56 0.66 0.70 0.67 0.61 0.69 0.77
0.14 0.13 0.15 0.16 0.18 0.25 0.32 0.32 0.31 0.32 0.32 0.31 0.34 0.35 0.38 0.40 0.41 0.42 0.44 0.45 0.43 0.42 0.40 0.37 0.38 0.38 0.39 0.41 0.40 0.40 0.41 0.45 0.42 0.40 0.37 0.40 0.54 0.56 0.56 0.55 0.60 0.75 0.76
0.14 0.13 0.14 0.15 0.16 0.20 0.26 0.33 0.33 0.31 0.31 0.32 0.33 0.33 0.32 0.34 0.37 0.37 0.38 0.38 0.36 0.34 0.33 0.31 0.30 0.31 0.33 0.37 0.42 0.43 0.47 0.48 0.43 0.39 0.44 0.47 0.48 0.46 0.46 0.55 0.65 0.64 0.58
0.13 0.13 0.13 0.14 0.17 0.18 0.20 0.24 0.26 0.27 0.28 0.28 0.29 0.31 0.32 0.30 0.29 0.30 0.32 0.34 0.34 0.33 0.32 0.31 0.29 0.29 0.31 0.33 0.35 0.41 0.44 0.46 0.46 0.46 0.45 0.43 0.43 0.44 0.46 0.51 0.52 0.50 0.58
0.13 0.15 0.14 0.15 0.16 0.16 0.17 0.17 0.18 0.20 0.23 0.26 0.26 0.26 0.26 0.28 0.27 0.26 0.28 0.32 0.33 0.36 0.39 0.38 0.36 0.34 0.32 0.34 0.42 0.46 0.46 0.48 0.49 0.49 0.41 0.38 0.38 0.40 0.41 0.44 0.46 0.49 0.59
0.14 0.15 0.14 0.14 0.15 0.15 0.15 0.16 0.16 0.17 0.20 0.22 0.23 0.24 0.25 0.24 0.25 0.25 0.25 0.28 0.30 0.35 0.40 0.43 0.43 0.39 0.39 0.42 0.45 0.46 0.50 0.53 0.54 0.52 0.44 0.41 0.40 0.42 0.44 0.46 0.49 0.52 0.62

GEFSMW_prec_meanprecacc_156.txt.gz
Total_Precipitation_Accumulation
0.75 0.98 1.21 1.47 1.76 2.13 2.29 2.26 2.21 2.38 2.59 2.43 2.21 2.00 1.78 1.60 1.41 1.24 1.12 1.03 0.94 0.85 0.74 0.65 0.62 0.56 0.52 0.50 0.49 0.44 0.37 0.32 0.31 0.32 0.26 0.19 0.15 0.13 0.11 0.10 0.10 0.08 0.06
0.67 0.90 1.11 1.34 1.52 1.96 2.22 2.23 2.29 2.42 2.59 2.47 2.33 2.27 2.20 1.99 1.79 1.64 1.37 1.17 1.06 0.97 0.92 0.81 0.72 0.67 0.62 0.59 0.58 0.56 0.51 0.45 0.45 0.48 0.48 0.36 0.25 0.16 0.12 0.12 0.11 0.11 0.10
0.62 0.77 0.95 1.16 1.25 1.53 1.90 2.06 2.13 2.29 2.41 2.55 2.80 2.78 2.66 2.34 1.90 1.61 1.50 1.39 1.35 1.25 1.12 1.09 1.00 0.83 0.73 0.66 0.64 0.62 0.58 0.53 0.49 0.48 0.58 0.55 0.39 0.28 0.20 0.16 0.13 0.13 0.14
0.60 0.72 0.83 0.94 1.07 1.20 1.54 1.88 2.08 2.22 2.25 2.32 2.54 2.63 2.49 2.15 1.80 1.59 1.59 1.63 1.58 1.55 1.48 1.34 1.28 1.15 0.98 0.83 0.79 0.77 0.74 0.72 0.67 0.60 0.54 0.53 0.49 0.48 0.37 0.23 0.18 0.16 0.15
0.64 0.70 0.74 0.78 0.86 1.01 1.34 1.65 1.89 2.12 2.15 2.08 2.17 2.38 2.45 2.32 2.15 1.96 1.80 1.73 1.69 1.59 1.57 1.53 1.44 1.35 1.25 1.14 1.06 0.99 0.95 0.91 0.85 0.77 0.68 0.64 0.57 0.57 0.60 0.42 0.25 0.23 0.21
0.71 0.72 0.73 0.72 0.77 0.85 1.01 1.31 1.60 1.92 2.10 2.05 2.07 2.15 2.19 2.26 2.16 1.99 1.94 1.85 1.82 1.72 1.57 1.55 1.53 1.46 1.43 1.37 1.33 1.28 1.18 1.10 1.02 0.94 0.87 0.85 0.79 0.70 0.75 0.70 0.49 0.42 0.34
0.65 0.63 0.62 0.62 0.71 0.79 0.86 1.05 1.22 1.49 1.77 1.90 1.93 1.95 2.02 2.06 2.07 2.02 2.00 1.97 1.83 1.70 1.62 1.57 1.57 1.57 1.49 1.47 1.47 1.41 1.30 1.22 1.14 1.08 1.02 0.98 0.92 0.88 0.92 0.98 0.82 0.68 0.53
0.68 0.65 0.61 0.64 0.75 0.77 0.83 0.94 1.04 1.17 1.40 1.60 1.67 1.69 1.80 1.87 1.81 1.85 1.84 1.80 1.74 1.65 1.65 1.65 1.59 1.60 1.58 1.53 1.49 1.43 1.32 1.26 1.21 1.15 1.11 1.06 1.00 1.01 1.05 1.10 1.16 1.05 0.78
0.61 0.64 0.65 0.68 0.73 0.76 0.81 0.88 0.95 0.98 1.10 1.27 1.41 1.50 1.53 1.54 1.49 1.50 1.52 1.54 1.57 1.55 1.49 1.48 1.49 1.47 1.46 1.45 1.45 1.40 1.30 1.25 1.20 1.14 1.11 1.06 0.99 1.01 1.06 1.13 1.27 1.42 1.25
0.60 0.64 0.67 0.65 0.66 0.70 0.73 0.81 0.83 0.82 0.88 0.98 1.06 1.21 1.31 1.30 1.33 1.33 1.31 1.29 1.28 1.31 1.31 1.30 1.32 1.30 1.30 1.30 1.30 1.26 1.23 1.20 1.12 1.07 1.05 0.99 0.94 0.97 1.03 1.12 1.20 1.35 1.45
0.63 0.68 0.71 0.68 0.66 0.70 0.72 0.74 0.69 0.71 0.74 0.81 0.86 0.91 1.02 1.10 1.15 1.15 1.08 1.10 1.06 1.03 1.04 1.02 1.04 1.08 1.11 1.12 1.13 1.12 1.11 1.11 1.07 1.05 1.05 1.03 0.99 0.99 0.99 1.03 1.08 1.15 1.26
0.56 0.61 0.67 0.67 0.66 0.69 0.72 0.75 0.68 0.65 0.67 0.73 0.73 0.76 0.84 0.95 0.99 1.03 0.98 0.93 0.95 0.89 0.87 0.85 0.83 0.83 0.85 0.87 0.88 0.89 0.92 0.95 0.95 0.94 0.97 0.97 0.98 1.00 0.97 0.96 0.96 0.95 0.96
0.49 0.51 0.53 0.59 0.63 0.64 0.67 0.74 0.71 0.64 0.61 0.62 0.63 0.67 0.73 0.81 0.85 0.86 0.89 0.83 0.86 0.81 0.78 0.75 0.73 0.70 0.69 0.68 0.71 0.74 0.77 0.80 0.81 0.81 0.84 0.85 0.88 0.89 0.86 0.84 0.82 0.81 0.83
0.37 0.38 0.41 0.47 0.52 0.57 0.62 0.65 0.67 0.67 0.66 0.63 0.58 0.61 0.65 0.76 0.79 0.74 0.77 0.77 0.82 0.85 0.77 0.71 0.68 0.67 0.66 0.66 0.67 0.71 0.74 0.74 0.74 0.74 0.75 0.73 0.71 0.70 0.70 0.72 0.74 0.81 0.88
0.25 0.27 0.29 0.33 0.39 0.44 0.48 0.53 0.57 0.59 0.64 0.64 0.61 0.60 0.60 0.68 0.74 0.67 0.67 0.69 0.72 0.83 0.83 0.77 0.73 0.70 0.67 0.68 0.71 0.72 0.74 0.74 0.73 0.70 0.67 0.65 0.66 0.64 0.64 0.67 0.72 0.80 0.92
0.16 0.17 0.18 0.21 0.24 0.28 0.34 0.39 0.45 0.49 0.57 0.59 0.60 0.59 0.58 0.61 0.69 0.67 0.65 0.66 0.69 0.77 0.83 0.87 0.84 0.79 0.75 0.83 0.80 0.73 0.73 0.75 0.73 0.70 0.64 0.61 0.65 0.62 0.62 0.66 0.73 0.86 1.00
0.12 0.12 0.12 0.13 0.15 0.18 0.23 0.28 0.32 0.37 0.44 0.51 0.56 0.58 0.61 0.63 0.68 0.69 0.69 0.74 0.80 0.85 0.86 0.90 0.93 0.91 0.92 0.92 0.79 0.75 0.68 0.68 0.69 0.66 0.62 0.58 0.56 0.60 0.56 0.61 0.73 0.82 0.91
0.12 0.13 0.13 0.13 0.13 0.14 0.16 0.18 0.23 0.29 0.33 0.38 0.46 0.49 0.54 0.57 0.58 0.65 0.71 0.77 0.81 0.86 0.89 0.91 0.90 0.89 0.88 0.85 0.74 0.69 0.62 0.62 0.63 0.61 0.59 0.59 0.58 0.57 0.62 0.69 0.75 0.68 0.64
0.11 0.12 0.11 0.12 0.13 0.12 0.13 0.15 0.19 0.25 0.29 0.36 0.43 0.48 0.55 0.57 0.59 0.65 0.67 0.71 0.77 0.80 0.78 0.78 0.79 0.80 0.80 0.75 0.67 0.64 0.58 0.58 0.56 0.53 0.53 0.55 0.55 0.64 0.78 0.84 0.84 0.68 0.54
0.10 0.11 0.12 0.13 0.14 0.16 0.18 0.19 0.23 0.26 0.29 0.36 0.43 0.46 0.53 0.62 0.65 0.67 0.65 0.62 0.66 0.72 0.69 0.65 0.63 0.62 0.65 0.66 0.61 0.58 0.55 0.56 0.53 0.50 0.49 0.53 0.55 0.66 0.80 0.79 0.82 0.77 0.63
0.11 0.11 0.12 0.14 0.19 0.24 0.26 0.27 0.30 0.33 0.34 0.36 0.41 0.40 0.44 0.50 0.53 0.54 0.54 0.54 0.54 0.55 0.52 0.51 0.52 0.49 0.50 0.54 0.51 0.49 0.47 0.50 0.51 0.48 0.43 0.44 0.59 0.68 0.73 0.70 0.63 0.72 0.80
0.14 0.13 0.15 0.16 0.18 0.25 0.32 0.32 0.31 0.32 0.32 0.32 0.36 0.37 0.39 0.42 0.43 0.44 0.46 0.48 0.46 0.44 0.42 0.39 0.40 0.40 0.41 0.43 0.43 0.44 0.45 0.50 0.46 0.43 0.40 0.42 0.56 0.58 0.58 0.58 0.63 0.78 0.79
0.14 0.13 0.14 0.15 0.16 0.20 0.26 0.33 0.33 0.31 0.31 0.32 0.35 0.34 0.33 0.35 0.38 0.38 0.40 0.40 0.38 0.37 0.35 0.33 0.31 0.32 0.34 0.39 0.44 0.46 0.50 0.52 0.46 0.41 0.46 0.49 0.50 0.48 0.47 0.57 0.69 0.69 0.63
0.13 0.13 0.13 0.14 0.17 0.18 0.20 0.24 0.27 0.27 0.28 0.29 0.30 0.32 0.33 0.31 0.30 0.31 0.34 0.36 0.36 0.36 0.34 0.33 0.32 0.30 0.32 0.34 0.37 0.43 0.47 0.48 0.49 0.49 0.48 0.45 0.44 0.45 0.48 0.53 0.55 0.55 0.63
0.13 0.15 0.14 0.15 0.16 0.16 0.17 0.17 0.18 0.20 0.23 0.26 0.26 0.26 0.28 0.28 0.28 0.27 0.30 0.34 0.35 0.39 0.42 0.41 0.39 0.37 0.35 0.36 0.45 0.49 0.48 0.50 0.51 0.52 0.46 0.42 0.42 0.42 0.43 0.47 0.50 0.53 0.65
0.14 0.15 0.14 0.14 0.15 0.15 0.15 0.16 0.16 0.17 0.20 0.22 0.23 0.24 0.25 0.25 0.26 0.26 0.25 0.29 0.32 0.36 0.41 0.45 0.46 0.42 0.42 0.45 0.48 0.49 0.52 0.56 0.57 0.55 0.48 0.46 0.45 0.45 0.46 0.49 0.53 0.56 0.67

GEFSMW_prec_meanprecacc_162.txt.gz
Total_Precipitation_Accumulation
0.75 0.98 1.21 1.47 1.76 2.13 2.29 2.26 2.22 2.38 2.59 2.43 2.21 2.01 1.80 1.63 1.45 1.29 1.17 1.09 0.99 0.90 0.79 0.69 0.66 0.61 0.58 0.57 0.56 0.53 0.49 0.45 0.43 0.41 0.34 0.25 0.21 0.17 0.14 0.13 0.12 0.10 0.09
0.67 0.90 1.11 1.34 1.52 1.96 2.22 2.24 2.30 2.43 2.59 2.47 2.33 2.29 2.22 2.01 1.82 1.68 1.41 1.22 1.11 1.01 0.95 0.85 0.76 0.73 0.70 0.67 0.65 0.65 0.62 0.58 0.61 0.64 0.63 0.49 0.36 0.25 0.19 0.18 0.17 0.16 0.15
0.63 0.78 0.96 1.16 1.26 1.53 1.91 2.07 2.14 2.29 2.41 2.55 2.80 2.80 2.70 2.36 1.92 1.63 1.52 1.42 1.39 1.29 1.15 1.12 1.04 0.89 0.82 0.76 0.72 0.70 0.69 0.67 0.64 0.64 0.73 0.68 0.51 0.38 0.29 0.24 0.22 0.21 0.21
0.60 0.72 0.84 0.95 1.07 1.21 1.55 1.89 2.09 2.23 2.25 2.32 2.55 2.65 2.52 2.17 1.83 1.62 1.62 1.67 1.62 1.58 1.52 1.39 1.33 1.20 1.05 0.92 0.88 0.85 0.84 0.86 0.82 0.77 0.70 0.65 0.58 0.58 0.47 0.33 0.27 0.25 0.24
0.64 0.70 0.75 0.79 0.87 1.02 1.35 1.66 1.90 2.12 2.16 2.09 2.19 2.40 2.47 2.35 2.18 2.00 1.86 1.79 1.73 1.63 1.61 1.57 1.50 1.40 1.29 1.19 1.14 1.07 1.04 1.03 0.99 0.92 0.85 0.81 0.71 0.66 0.67 0.49 0.33 0.31 0.30
0.72 0.72 0.73 0.73 0.79 0.86 1.02 1.32 1.61 1.92 2.10 2.06 2.09 2.17 2.22 2.28 2.20 2.05 2.01 1.90 1.86 1.74 1.59 1.57 1.56 1.50 1.47 1.41 1.38 1.35 1.25 1.18 1.13 1.07 1.01 1.00 0.95 0.81 0.82 0.76 0.55 0.48 0.41
0.66 0.64 0.62 0.63 0.73 0.81 0.87 1.07 1.24 1.49 1.78 1.91 1.94 1.97 2.05 2.10 2.12 2.10 2.07 2.03 1.88 1.74 1.65 1.59 1.59 1.59 1.52 1.51 1.52 1.47 1.37 1.29 1.23 1.19 1.15 1.11 1.04 1.00 1.03 1.05 0.89 0.75 0.60
0.69 0.66 0.62 0.65 0.76 0.79 0.85 0.96 1.06 1.18 1.41 1.61 1.69 1.72 1.84 1.92 1.89 1.95 1.92 1.86 1.78 1.69 1.69 1.69 1.61 1.61 1.60 1.55 1.53 1.48 1.38 1.33 1.28 1.24 1.22 1.19 1.12 1.12 1.15 1.20 1.25 1.15 0.88
0.62 0.64 0.65 0.69 0.74 0.77 0.82 0.90 0.97 1.00 1.11 1.30 1.43 1.54 1.58 1.59 1.55 1.56 1.57 1.60 1.62 1.59 1.54 1.56 1.52 1.48 1.48 1.47 1.49 1.45 1.35 1.31 1.26 1.21 1.20 1.17 1.11 1.12 1.15 1.22 1.36 1.51 1.35
0.61 0.64 0.67 0.66 0.66 0.70 0.74 0.82 0.84 0.83 0.90 1.00 1.07 1.23 1.33 1.34 1.36 1.37 1.34 1.32 1.31 1.33 1.33 1.33 1.34 1.31 1.32 1.33 1.33 1.31 1.30 1.28 1.19 1.14 1.13 1.09 1.05 1.07 1.12 1.18 1.25 1.40 1.50
0.63 0.69 0.72 0.69 0.67 0.71 0.73 0.75 0.70 0.72 0.75 0.82 0.87 0.93 1.05 1.12 1.18 1.19 1.11 1.12 1.09 1.05 1.06 1.04 1.06 1.10 1.12 1.15 1.15 1.15 1.17 1.19 1.16 1.13 1.13 1.11 1.08 1.08 1.07 1.09 1.13 1.18 1.29
0.57 0.62 0.69 0.68 0.67 0.70 0.73 0.75 0.68 0.66 0.68 0.73 0.74 0.77 0.85 0.97 1.01 1.06 1.01 0.95 0.97 0.91 0.89 0.87 0.85 0.84 0.87 0.91 0.93 0.94 0.98 1.02 1.03 1.03 1.06 1.06 1.06 1.08 1.04 1.03 1.01 0.99 1.00
0.50 0.52 0.55 0.60 0.64 0.65 0.68 0.74 0.72 0.64 0.62 0.63 0.63 0.68 0.73 0.82 0.87 0.89 0.92 0.86 0.89 0.83 0.79 0.77 0.75 0.72 0.71 0.73 0.78 0.83 0.86 0.89 0.90 0.90 0.93 0.94 0.96 0.96 0.92 0.90 0.88 0.86 0.88
0.38 0.39 0.43 0.48 0.53 0.57 0.62 0.65 0.68 0.68 0.67 0.64 0.59 0.61 0.66 0.77 0.81 0.77 0.80 0.79 0.84 0.87 0.78 0.72 0.69 0.68 0.68 0.70 0.73 0.79 0.84 0.85 0.85 0.86 0.87 0.84 0.81 0.77 0.76 0.78 0.80 0.86 0.94
0.26 0.28 0.30 0.33 0.39 0.44 0.48 0.53 0.58 0.60 0.65 0.65 0.62 0.61 0.61 0.70 0.75 0.69 0.69 0.71 0.74 0.85 0.85 0.79 0.75 0.72 0.70 0.72 0.77 0.78 0.82 0.83 0.83 0.80 0.78 0.76 0.77 0.72 0.70 0.73 0.77 0.86 0.98
0.17 0.18 0.19 0.21 0.24 0.29 0.35 0.40 0.45 0.50 0.58 0.60 0.62 0.61 0.59 0.63 0.72 0.70 0.67 0.68 0.71 0.79 0.86 0.90 0.88 0.82 0.79 0.89 0.87 0.81 0.81 0.83 0.82 0.78 0.72 0.70 0.73 0.70 0.69 0.72 0.80 0.92 1.06
0.12 0.12 0.12 0.14 0.16 0.19 0.24 0.29 0.33 0.37 0.44 0.53 0.57 0.60 0.63 0.65 0.71 0.73 0.72 0.77 0.83 0.89 0.90 0.95 0.98 0.96 0.98 0.99 0.86 0.83 0.76 0.76 0.77 0.74 0.69 0.65 0.62 0.66 0.61 0.67 0.79 0.88 0.98
0.12 0.14 0.14 0.14 0.14 0.15 0.16 0.19 0.24 0.29 0.34 0.39 0.48 0.52 0.57 0.60 0.63 0.70 0.75 0.81 0.85 0.91 0.95 0.97 0.97 0.94 0.94 0.92 0.82 0.77 0.70 0.70 0.71 0.69 0.65 0.66 0.66 0.64 0.69 0.75 0.81 0.74 0.69
0.11 0.12 0.12 0.13 0.13 0.13 0.14 0.16 0.20 0.26 0.30 0.37 0.45 0.50 0.58 0.61 0.64 0.71 0.73 0.78 0.84 0.87 0.84 0.85 0.86 0.86 0.86 0.82 0.73 0.69 0.64 0.64 0.62 0.60 0.58 0.59 0.61 0.72 0.86 0.91 0.90 0.74 0.59
0.10 0.12 0.12 0.13 0.15 0.17 0.19 0.20 0.24 0.28 0.31 0.37 0.45 0.48 0.56 0.66 0.69 0.72 0.71 0.69 0.74 0.80 0.76 0.71 0.70 0.69 0.70 0.71 0.66 0.63 0.60 0.61 0.58 0.55 0.53 0.58 0.60 0.72 0.87 0.85 0.89 0.83 0.68
0.11 0.11 0.13 0.15 0.19 0.24 0.27 0.27 0.31 0.35 0.36 0.38 0.42 0.42 0.46 0.53 0.56 0.58 0.59 0.59 0.61 0.63 0.59 0.56 0.57 0.54 0.54 0.58 0.55 0.53 0.51 0.53 0.55 0.51 0.47 0.47 0.63 0.73 0.78 0.76 0.69 0.77 0.84
0.14 0.13 0.15 0.16 0.18 0.26 0.32 0.32 0.31 0.33 0.32 0.33 0.36 0.38 0.40 0.44 0.45 0.47 0.50 0.52 0.50 0.50 0.48 0.45 0.45 0.44 0.44 0.47 0.47 0.48 0.49 0.54 0.50 0.46 0.43 0.45 0.60 0.61 0.61 0.61 0.67 0.82 0.83
0.14 0.13 0.14 0.15 0.16 0.20 0.26 0.33 0.33 0.32 0.31 0.32 0.35 0.35 0.34 0.36 0.39 0.40 0.41 0.42 0.41 0.40 0.39 0.38 0.36 0.37 0.38 0.43 0.48 0.50 0.55 0.56 0.51 0.46 0.50 0.53 0.54 0.51 0.50 0.60 0.72 0.71 0.65
0.13 0.13 0.13 0.14 0.17 0.19 0.20 0.24 0.27 0.27 0.28 0.29 0.30 0.32 0.33 0.31 0.31 0.32 0.35 0.38 0.39 0.39 0.37 0.36 0.35 0.33 0.35 0.37 0.40 0.46 0.49 0.51 0.52 0.53 0.52 0.50 0.48 0.49 0.51 0.56 0.58 0.58 0.66
0.13 0.15 0.14 0.15 0.16 0.16 0.17 0.17 0.18 0.20 0.23 0.26 0.26 0.26 0.28 0.29 0.29 0.28 0.31 0.35 0.37 0.42 0.46 0.44 0.43 0.40 0.38 0.39 0.47 0.51 0.50 0.52 0.53 0.55 0.48 0.45 0.45 0.45 0.45 0.49 0.52 0.56 0.68
0.14 0.15 0.14 0.14 0.15 0.15 0.15 0.16 0.16 0.17 0.20 0.22 0.23 0.24 0.25 0.26 0.26 0.26 0.26 0.30 0.33 0.38 0.43 0.47 0.48 0.45 0.44 0.47 0.50 0.50 0.54 0.58 0.59 0.57 0.51 0.48 0.47 0.48 0.49 0.51 0.55 0.58 0.69

GEFSMW_prec_meanprecacc_168.txt.gz
Total_Precipitation_Accumulation
0.76 0.99 1.22 1.47 1.77 2.13 2.30 2.27 2.22 2.38 2.59 2.43 2.21 2.01 1.80 1.63 1.45 1.29 1.17 1.10 1.00 0.91 0.81 0.71 0.70 0.66 0.62 0.60 0.59 0.56 0.52 0.50 0.49 0.49 0.42 0.32 0.27 0.23 0.18 0.17 0.17 0.16 0.16
0.68 0.91 1.12 1.35 1.53 1.96 2.22 2.24 2.30 2.43 2.59 2.47 2.33 2.29 2.22 2.01 1.82 1.68 1.41 1.22 1.11 1.02 0.97 0.87 0.79 0.76 0.74 0.70 0.69 0.69 0.67 0.63 0.66 0.70 0.71 0.57 0.43 0.30 0.24 0.23 0.22 0.22 0.24
0.64 0.79 0.97 1.17 1.26 1.53 1.91 2.08 2.14 2.29 2.41 2.55 2.80 2.80 2.70 2.36 1.92 1.63 1.53 1.43 1.39 1.29 1.16 1.13 1.06 0.91 0.84 0.78 0.74 0.73 0.73 0.72 0.71 0.71 0.81 0.77 0.59 0.44 0.35 0.28 0.25 0.25 0.27
0.62 0.74 0.85 0.96 1.08 1.21 1.55 1.90 2.09 2.23 2.25 2.32 2.55 2.65 2.52 2.18 1.83 1.62 1.63 1.68 1.63 1.59 1.53 1.40 1.34 1.22 1.06 0.93 0.90 0.87 0.86 0.89 0.86 0.82 0.76 0.71 0.64 0.64 0.53 0.38 0.32 0.30 0.29
0.65 0.72 0.76 0.80 0.88 1.03 1.35 1.67 1.90 2.12 2.16 2.09 2.19 2.40 2.48 2.35 2.19 2.01 1.88 1.81 1.75 1.64 1.62 1.59 1.51 1.41 1.30 1.21 1.15 1.09 1.06 1.05 1.01 0.95 0.89 0.86 0.77 0.72 0.73 0.54 0.38 0.38 0.37
0.73 0.73 0.74 0.74 0.80 0.87 1.03 1.34 1.62 1.93 2.11 2.06 2.09 2.17 2.22 2.29 2.21 2.06 2.02 1.93 1.90 1.77 1.62 1.59 1.58 1.52 1.48 1.43 1.40 1.37 1.27 1.20 1.15 1.10 1.04 1.04 0.99 0.86 0.88 0.81 0.60 0.54 0.48
0.66 0.64 0.63 0.63 0.73 0.83 0.89 1.09 1.25 1.51 1.78 1.91 1.95 1.98 2.06 2.11 2.15 2.12 2.09 2.07 1.93 1.77 1.68 1.62 1.62 1.62 1.55 1.53 1.53 1.49 1.38 1.31 1.25 1.22 1.18 1.14 1.08 1.04 1.08 1.11 0.96 0.82 0.67
0.69 0.66 0.62 0.66 0.77 0.80 0.87 0.98 1.08 1.20 1.42 1.62 1.69 1.73 1.85 1.93 1.90 1.97 1.96 1.91 1.84 1.75 1.73 1.73 1.65 1.64 1.62 1.57 1.55 1.50 1.40 1.35 1.31 1.26 1.25 1.22 1.15 1.16 1.20 1.25 1.32 1.22 0.96
0.62 0.65 0.66 0.69 0.74 0.78 0.83 0.91 1.00 1.02 1.13 1.31 1.44 1.55 1.59 1.61 1.56 1.58 1.60 1.63 1.65 1.64 1.60 1.60 1.55 1.51 1.49 1.48 1.50 1.46 1.37 1.32 1.27 1.23 1.22 1.20 1.14 1.16 1.20 1.26 1.41 1.58 1.42
0.62 0.65 0.68 0.66 0.67 0.71 0.74 0.82 0.86 0.86 0.91 1.01 1.08 1.24 1.34 1.35 1.38 1.39 1.36 1.34 1.33 1.35 1.37 1.38 1.38 1.35 1.35 1.34 1.34 1.32 1.31 1.29 1.21 1.16 1.15 1.12 1.08 1.11 1.17 1.24 1.31 1.46 1.57
0.64 0.69 0.72 0.70 0.68 0.72 0.74 0.76 0.72 0.73 0.77 0.84 0.88 0.94 1.05 1.13 1.19 1.20 1.13 1.14 1.10 1.07 1.09 1.07 1.08 1.12 1.14 1.16 1.17 1.17 1.18 1.21 1.17 1.15 1.15 1.14 1.11 1.12 1.12 1.15 1.19 1.25 1.36
0.57 0.62 0.69 0.69 0.68 0.71 0.73 0.76 0.70 0.67 0.69 0.74 0.75 0.78 0.86 0.97 1.02 1.07 1.02 0.96 0.98 0.92 0.91 0.89 0.86 0.86 0.88 0.92 0.94 0.95 0.99 1.04 1.05 1.05 1.08 1.08 1.11 1.14 1.11 1.10 1.08 1.06 1.06
0.51 0.53 0.55 0.61 0.64 0.66 0.69 0.75 0.73 0.65 0.63 0.64 0.64 0.68 0.74 0.82 0.87 0.89 0.92 0.86 0.89 0.84 0.80 0.78 0.76 0.74 0.73 0.75 0.80 0.85 0.88 0.91 0.92 0.92 0.95 0.96 1.00 1.02 0.99 0.98 0.95 0.93 0.95
0.39 0.40 0.44 0.49 0.53 0.58 0.63 0.66 0.68 0.68 0.67 0.64 0.59 0.62 0.66 0.77 0.81 0.77 0.80 0.80 0.85 0.88 0.79 0.74 0.71 0.70 0.71 0.72 0.75 0.82 0.87 0.87 0.87 0.88 0.89 0.87 0.84 0.82 0.81 0.84 0.87 0.93 1.01
0.28 0.30 0.31 0.34 0.40 0.44 0.49 0.53 0.58 0.61 0.65 0.66 0.63 0.61 0.62 0.70 0.76 0.69 0.70 0.72 0.75 0.86 0.86 0.81 0.77 0.74 0.72 0.75 0.80 0.81 0.85 0.86 0.85 0.82 0.79 0.79 0.80 0.77 0.75 0.77 0.82 0.91 1.04
0.18 0.19 0.20 0.22 0.24 0.29 0.35 0.40 0.45 0.50 0.58 0.61 0.62 0.61 0.60 0.63 0.72 0.70 0.68 0.69 0.72 0.81 0.88 0.92 0.90 0.84 0.82 0.92 0.90 0.84 0.84 0.87 0.85 0.81 0.74 0.72 0.76 0.73 0.74 0.76 0.84 0.97 1.11
0.13 0.13 0.13 0.15 0.16 0.19 0.24 0.29 0.33 0.38 0.45 0.53 0.58 0.61 0.63 0.66 0.72 0.73 0.73 0.77 0.84 0.90 0.91 0.97 1.00 0.98 1.00 1.01 0.89 0.87 0.80 0.80 0.80 0.77 0.73 0.69 0.66 0.69 0.64 0.70 0.82 0.91 1.01
0.12 0.14 0.14 0.14 0.14 0.16 0.17 0.19 0.24 0.30 0.34 0.40 0.48 0.52 0.57 0.60 0.63 0.70 0.76 0.81 0.86 0.92 0.96 0.98 0.98 0.95 0.95 0.94 0.84 0.80 0.74 0.74 0.74 0.72 0.68 0.69 0.69 0.68 0.73 0.78 0.84 0.77 0.72
0.11 0.12 0.12 0.13 0.14 0.14 0.14 0.16 0.21 0.27 0.31 0.38 0.45 0.50 0.58 0.61 0.65 0.71 0.74 0.78 0.84 0.88 0.85 0.86 0.88 0.87 0.88 0.85 0.76 0.72 0.67 0.68 0.65 0.63 0.61 0.62 0.64 0.75 0.91 0.95 0.95 0.78 0.62
0.11 0.12 0.12 0.13 0.15 0.17 0.19 0.21 0.24 0.28 0.31 0.38 0.46 0.49 0.57 0.67 0.70 0.73 0.72 0.70 0.75 0.81 0.76 0.72 0.71 0.70 0.72 0.75 0.70 0.67 0.63 0.65 0.62 0.58 0.57 0.62 0.64 0.76 0.91 0.89 0.93 0.87 0.72
0.11 0.12 0.13 0.15 0.19 0.25 0.27 0.28 0.31 0.35 0.37 0.38 0.43 0.43 0.47 0.54 0.57 0.59 0.60 0.60 0.62 0.64 0.60 0.57 0.58 0.56 0.56 0.61 0.59 0.57 0.55 0.58 0.59 0.55 0.50 0.51 0.67 0.77 0.83 0.80 0.72 0.81 0.88
0.15 0.14 0.15 0.17 0.19 0.26 0.32 0.33 0.32 0.34 0.33 0.33 0.37 0.38 0.41 0.44 0.46 0.48 0.51 0.53 0.51 0.51 0.49 0.46 0.47 0.45 0.46 0.49 0.50 0.52 0.54 0.59 0.55 0.50 0.47 0.49 0.64 0.65 0.66 0.65 0.71 0.86 0.86
0.15 0.14 0.14 0.15 0.17 0.20 0.27 0.34 0.34 0.32 0.32 0.33 0.35 0.35 0.34 0.36 0.40 0.40 0.42 0.43 0.41 0.41 0.40 0.39 0.38 0.38 0.40 0.45 0.52 0.53 0.58 0.60 0.55 0.49 0.54 0.57 0.58 0.55 0.55 0.65 0.76 0.76 0.69
0.13 0.13 0.13 0.15 0.17 0.19 0.20 0.24 0.27 0.28 0.29 0.29 0.30 0.33 0.34 0.32 0.31 0.33 0.35 0.38 0.39 0.39 0.38 0.38 0.36 0.35 0.36 0.40 0.44 0.50 0.53 0.54 0.55 0.56 0.56 0.53 0.52 0.52 0.54 0.60 0.62 0.63 0.71
0.13 0.15 0.14 0.15 0.16 0.16 0.17 0.17 0.18 0.20 0.23 0.26 0.26 0.27 0.28 0.29 0.29 0.28 0.31 0.35 0.37 0.42 0.46 0.45 0.44 0.42 0.39 0.41 0.50 0.54 0.54 0.55 0.57 0.58 0.52 0.49 0.48 0.48 0.48 0.52 0.55 0.59 0.72
0.14 0.15 0.14 0.14 0.15 0.15 0.16 0.16 0.16 0.18 0.20 0.22 0.23 0.25 0.26 0.26 0.26 0.27 0.26 0.30 0.33 0.38 0.43 0.47 0.49 0.46 0.46 0.49 0.52 0.52 0.56 0.60 0.61 0.60 0.53 0.50 0.49 0.50 0.51 0.53 0.57 0.60 0.72

GEFSMW_prec_meanprecacc_174.txt.gz
Total_Precipitation_Accumulation
0.76 0.99 1.22 1.48 1.79 2.18 2.36 2.33 2.27 2.41 2.61 2.44 2.22 2.02 1.81 1.64 1.48 1.33 1.20 1.12 1.01 0.92 0.82 0.73 0.71 0.68 0.64 0.62 0.61 0.60 0.57 0.55 0.55 0.57 0.52 0.42 0.38 0.33 0.26 0.24 0.22 0.19 0.18
0.69 0.92 1.12 1.35 1.55 2.00 2.27 2.29 2.34 2.45 2.61 2.48 2.34 2.29 2.23 2.02 1.83 1.70 1.43 1.24 1.12 1.03 0.97 0.87 0.80 0.77 0.76 0.72 0.71 0.72 0.70 0.68 0.70 0.75 0.76 0.63 0.49 0.37 0.30 0.30 0.29 0.27 0.27
0.64 0.80 0.97 1.18 1.28 1.56 1.94 2.11 2.16 2.31 2.42 2.56 2.81 2.81 2.70 2.36 1.92 1.63 1.53 1.44 1.40 1.30 1.16 1.14 1.06 0.91 0.85 0.79 0.76 0.74 0.75 0.75 0.74 0.75 0.86 0.81 0.63 0.48 0.39 0.33 0.29 0.30 0.32
0.62 0.74 0.86 0.97 1.10 1.24 1.57 1.92 2.11 2.23 2.25 2.33 2.56 2.66 2.52 2.18 1.83 1.62 1.63 1.68 1.63 1.59 1.53 1.40 1.35 1.22 1.06 0.94 0.90 0.88 0.88 0.91 0.88 0.84 0.78 0.74 0.68 0.68 0.57 0.42 0.36 0.34 0.34
0.67 0.72 0.77 0.81 0.89 1.04 1.36 1.68 1.91 2.13 2.16 2.10 2.19 2.40 2.48 2.35 2.19 2.01 1.89 1.81 1.75 1.65 1.63 1.59 1.52 1.42 1.31 1.22 1.16 1.10 1.07 1.06 1.02 0.96 0.90 0.88 0.79 0.74 0.76 0.57 0.40 0.41 0.41
0.74 0.74 0.75 0.75 0.81 0.88 1.04 1.34 1.62 1.93 2.11 2.06 2.09 2.17 2.22 2.29 2.21 2.06 2.03 1.93 1.90 1.78 1.64 1.60 1.59 1.53 1.50 1.45 1.42 1.39 1.29 1.22 1.17 1.12 1.05 1.06 1.01 0.87 0.89 0.83 0.62 0.56 0.49
0.67 0.65 0.64 0.64 0.74 0.83 0.89 1.09 1.25 1.51 1.78 1.91 1.95 1.98 2.06 2.11 2.15 2.13 2.09 2.07 1.93 1.78 1.69 1.63 1.64 1.64 1.57 1.55 1.55 1.51 1.40 1.33 1.27 1.24 1.20 1.16 1.10 1.06 1.10 1.13 0.98 0.85 0.69
0.70 0.66 0.63 0.66 0.77 0.81 0.87 0.98 1.08 1.20 1.42 1.62 1.70 1.73 1.86 1.94 1.91 1.98 1.96 1.92 1.85 1.76 1.75 1.74 1.66 1.66 1.64 1.59 1.56 1.52 1.42 1.37 1.33 1.29 1.28 1.25 1.18 1.20 1.24 1.29 1.35 1.25 1.00
0.63 0.65 0.66 0.69 0.75 0.78 0.83 0.92 1.00 1.02 1.13 1.31 1.45 1.56 1.60 1.62 1.58 1.59 1.61 1.64 1.66 1.66 1.62 1.63 1.58 1.52 1.51 1.50 1.51 1.48 1.38 1.34 1.29 1.25 1.24 1.22 1.17 1.19 1.23 1.30 1.45 1.61 1.45
0.62 0.65 0.68 0.66 0.67 0.71 0.75 0.83 0.86 0.86 0.91 1.01 1.09 1.26 1.36 1.36 1.39 1.40 1.37 1.35 1.34 1.37 1.39 1.41 1.40 1.36 1.36 1.35 1.35 1.33 1.32 1.31 1.22 1.17 1.16 1.13 1.09 1.13 1.19 1.27 1.34 1.49 1.60
0.64 0.69 0.72 0.70 0.68 0.72 0.74 0.76 0.72 0.74 0.77 0.84 0.89 0.95 1.07 1.14 1.19 1.21 1.14 1.15 1.11 1.08 1.10 1.08 1.10 1.13 1.15 1.17 1.18 1.17 1.19 1.22 1.18 1.16 1.16 1.15 1.12 1.13 1.13 1.17 1.21 1.27 1.39
0.57 0.62 0.69 0.69 0.68 0.71 0.74 0.77 0.70 0.67 0.69 0.75 0.76 0.78 0.87 0.98 1.03 1.08 1.02 0.97 0.98 0.92 0.91 0.90 0.87 0.87 0.89 0.93 0.95 0.96 1.00 1.05 1.06 1.06 1.09 1.09 1.12 1.15 1.13 1.12 1.11 1.09 1.09
0.51 0.53 0.55 0.61 0.64 0.66 0.69 0.75 0.73 0.66 0.63 0.64 0.64 0.69 0.75 0.83 0.88 0.89 0.92 0.86 0.90 0.84 0.81 0.79 0.77 0.74 0.73 0.76 0.80 0.86 0.89 0.92 0.93 0.94 0.96 0.98 1.02 1.04 1.01 0.99 0.97 0.95 0.97
0.40 0.40 0.44 0.49 0.54 0.58 0.63 0.66 0.69 0.68 0.68 0.64 0.60 0.62 0.66 0.77 0.81 0.77 0.80 0.80 0.85 0.88 0.79 0.74 0.71 0.71 0.71 0.73 0.76 0.83 0.88 0.89 0.89 0.90 0.91 0.89 0.87 0.85 0.85 0.87 0.89 0.96 1.04
0.29 0.31 0.33 0.35 0.41 0.45 0.49 0.54 0.58 0.61 0.65 0.66 0.63 0.61 0.62 0.70 0.76 0.69 0.70 0.72 0.75 0.86 0.86 0.81 0.77 0.74 0.72 0.76 0.81 0.82 0.86 0.87 0.88 0.85 0.82 0.81 0.83 0.80 0.79 0.82 0.86 0.94 1.08
0.20 0.20 0.21 0.23 0.25 0.30 0.35 0.40 0.45 0.50 0.58 0.61 0.62 0.61 0.60 0.63 0.72 0.70 0.68 0.69 0.72 0.81 0.88 0.92 0.90 0.84 0.82 0.93 0.91 0.85 0.85 0.88 0.87 0.83 0.76 0.74 0.78 0.76 0.77 0.80 0.87 1.01 1.15
0.14 0.14 0.14 0.15 0.17 0.20 0.24 0.29 0.33 0.38 0.45 0.53 0.58 0.61 0.63 0.66 0.72 0.73 0.73 0.78 0.84 0.90 0.92 0.97 1.00 0.98 1.00 1.02 0.90 0.88 0.81 0.81 0.82 0.79 0.75 0.70 0.67 0.71 0.66 0.72 0.85 0.94 1.04
0.13 0.15 0.15 0.15 0.15 0.16 0.17 0.19 0.24 0.30 0.35 0.40 0.48 0.52 0.57 0.61 0.64 0.71 0.76 0.81 0.86 0.92 0.96 0.99 0.99 0.96 0.95 0.95 0.84 0.81 0.75 0.75 0.75 0.73 0.70 0.71 0.71 0.70 0.74 0.80 0.86 0.78 0.73
0.12 0.13 0.13 0.13 0.14 0.14 0.15 0.17 0.21 0.27 0.31 0.38 0.46 0.51 0.59 0.62 0.65 0.72 0.74 0.78 0.85 0.88 0.86 0.86 0.88 0.88 0.88 0.85 0.77 0.73 0.68 0.69 0.66 0.64 0.62 0.63 0.65 0.77 0.93 0.98 0.97 0.80 0.64
0.11 0.12 0.12 0.14 0.15 0.17 0.19 0.21 0.25 0.29 0.32 0.39 0.46 0.49 0.58 0.67 0.71 0.73 0.72 0.70 0.75 0.81 0.77 0.73 0.72 0.71 0.73 0.75 0.71 0.68 0.64 0.66 0.63 0.59 0.58 0.63 0.65 0.77 0.92 0.90 0.95 0.89 0.74
0.12 0.12 0.13 0.15 0.20 0.25 0.27 0.28 0.32 0.36 0.38 0.39 0.44 0.44 0.48 0.54 0.58 0.60 0.61 0.62 0.63 0.65 0.61 0.58 0.58 0.56 0.57 0.61 0.59 0.58 0.56 0.59 0.60 0.56 0.51 0.51 0.68 0.79 0.84 0.81 0.74 0.83 0.91
0.15 0.14 0.16 0.17 0.19 0.26 0.33 0.34 0.33 0.34 0.34 0.34 0.38 0.39 0.42 0.45 0.47 0.49 0.52 0.54 0.52 0.52 0.50 0.47 0.47 0.46 0.46 0.50 0.51 0.53 0.55 0.60 0.56 0.51 0.47 0.50 0.65 0.67 0.67 0.67 0.73 0.88 0.89
0.15 0.14 0.14 0.15 0.17 0.21 0.27 0.34 0.34 0.33 0.32 0.33 0.36 0.35 0.35 0.36 0.40 0.41 0.43 0.43 0.42 0.41 0.41 0.40 0.38 0.39 0.40 0.46 0.53 0.54 0.59 0.61 0.56 0.50 0.55 0.58 0.59 0.56 0.56 0.66 0.78 0.78 0.71
0.13 0.14 0.13 0.15 0.18 0.19 0.21 0.25 0.27 0.28 0.29 0.29 0.31 0.33 0.34 0.32 0.31 0.33 0.36 0.38 0.39 0.39 0.38 0.38 0.36 0.35 0.37 0.40 0.44 0.51 0.54 0.55 0.56 0.57 0.57 0.54 0.53 0.54 0.56 0.62 0.64 0.65 0.74
0.13 0.15 0.14 0.15 0.16 0.16 0.17 0.17 0.18 0.20 0.24 0.26 0.27 0.27 0.28 0.29 0.29 0.28 0.31 0.35 0.37 0.42 0.46 0.46 0.44 0.42 0.40 0.41 0.50 0.55 0.54 0.56 0.58 0.59 0.53 0.50 0.50 0.49 0.50 0.54 0.56 0.61 0.75
0.14 0.15 0.14 0.14 0.15 0.15 0.16 0.16 0.16 0.18 0.20 0.22 0.24 0.25 0.26 0.26 0.27 0.27 0.27 0.30 0.33 0.38 0.43 0.48 0.49 0.46 0.46 0.49 0.52 0.53 0.57 0.61 0.62 0.61 0.54 0.51 0.51 0.52 0.53 0.56 0.59 0.64 0.75

GEFSMW_prec_meanprecacc_180.txt.gz
Total_Precipitation_Accumulation
0.77 1.01 1.25 1.50 1.81 2.22 2.41 2.40 2.34 2.49 2.71 2.58 2.35 2.12 1.87 1.69 1.52 1.36 1.23 1.14 1.05 0.96 0.85 0.75 0.73 0.71 0.68 0.66 0.64 0.62 0.60 0.57 0.58 0.60 0.54 0.46 0.43 0.39 0.32 0.30 0.27 0.24 0.22
0.70 0.93 1.14 1.37 1.56 2.03 2.31 2.34 2.40 2.53 2.69 2.59 2.46 2.38 2.30 2.07 1.87 1.73 1.46 1.26 1.15 1.06 1.00 0.90 0.81 0.79 0.78 0.75 0.74 0.75 0.73 0.71 0.74 0.79 0.81 0.68 0.54 0.41 0.34 0.33 0.32 0.31 0.31
0.65 0.81 0.98 1.19 1.29 1.58 1.97 2.14 2.20 2.37 2.49 2.65 2.91 2.89 2.77 2.42 1.96 1.67 1.56 1.46 1.42 1.32 1.17 1.15 1.07 0.93 0.87 0.80 0.78 0.76 0.77 0.77 0.78 0.79 0.91 0.86 0.67 0.51 0.40 0.34 0.31 0.32 0.35
0.63 0.75 0.87 0.98 1.11 1.25 1.59 1.94 2.14 2.27 2.31 2.39 2.64 2.74 2.59 2.24 1.88 1.65 1.65 1.70 1.64 1.60 1.53 1.41 1.36 1.23 1.07 0.95 0.92 0.89 0.88 0.91 0.89 0.86 0.82 0.79 0.71 0.70 0.58 0.42 0.37 0.36 0.36
0.67 0.73 0.78 0.83 0.90 1.05 1.37 1.69 1.93 2.16 2.20 2.14 2.24 2.47 2.55 2.41 2.23 2.04 1.90 1.82 1.76 1.65 1.63 1.59 1.52 1.42 1.32 1.22 1.17 1.11 1.07 1.07 1.03 0.97 0.91 0.89 0.79 0.75 0.77 0.58 0.41 0.42 0.42
0.75 0.75 0.75 0.76 0.82 0.89 1.05 1.35 1.63 1.95 2.14 2.09 2.12 2.21 2.27 2.34 2.25 2.09 2.05 1.94 1.91 1.79 1.64 1.60 1.59 1.53 1.50 1.45 1.43 1.40 1.30 1.23 1.18 1.14 1.07 1.07 1.02 0.88 0.90 0.84 0.63 0.57 0.51
0.68 0.65 0.64 0.64 0.75 0.84 0.90 1.10 1.26 1.52 1.80 1.94 1.98 2.00 2.08 2.13 2.17 2.15 2.11 2.08 1.94 1.78 1.69 1.63 1.64 1.64 1.57 1.55 1.56 1.52 1.41 1.34 1.28 1.26 1.23 1.18 1.11 1.07 1.12 1.16 1.00 0.86 0.70
0.71 0.67 0.63 0.67 0.78 0.81 0.88 0.99 1.09 1.21 1.43 1.63 1.71 1.75 1.88 1.94 1.91 1.99 1.97 1.92 1.85 1.76 1.75 1.74 1.66 1.66 1.65 1.59 1.57 1.52 1.43 1.38 1.34 1.30 1.29 1.27 1.20 1.22 1.26 1.32 1.38 1.27 1.01
0.64 0.65 0.66 0.70 0.75 0.79 0.84 0.92 1.00 1.03 1.13 1.32 1.45 1.57 1.62 1.64 1.58 1.59 1.61 1.64 1.66 1.66 1.63 1.63 1.58 1.53 1.51 1.51 1.52 1.49 1.40 1.35 1.30 1.26 1.25 1.23 1.18 1.20 1.24 1.31 1.46 1.63 1.47
0.63 0.65 0.68 0.66 0.67 0.71 0.75 0.83 0.87 0.86 0.92 1.02 1.09 1.26 1.36 1.37 1.40 1.40 1.37 1.35 1.34 1.37 1.39 1.41 1.41 1.37 1.37 1.36 1.36 1.34 1.34 1.32 1.23 1.18 1.17 1.14 1.10 1.13 1.20 1.27 1.35 1.50 1.61
0.64 0.69 0.72 0.70 0.68 0.72 0.75 0.76 0.72 0.74 0.77 0.85 0.89 0.95 1.07 1.14 1.20 1.21 1.14 1.15 1.11 1.08 1.10 1.09 1.10 1.13 1.16 1.18 1.19 1.18 1.20 1.23 1.19 1.16 1.17 1.15 1.12 1.14 1.14 1.18 1.22 1.28 1.40
0.58 0.63 0.69 0.69 0.68 0.71 0.74 0.77 0.70 0.68 0.70 0.75 0.76 0.79 0.87 0.99 1.03 1.08 1.02 0.97 0.99 0.93 0.91 0.90 0.88 0.87 0.89 0.93 0.95 0.96 1.00 1.05 1.06 1.06 1.09 1.10 1.12 1.16 1.14 1.13 1.12 1.10 1.10
0.51 0.53 0.56 0.61 0.64 0.66 0.69 0.75 0.74 0.66 0.63 0.65 0.65 0.69 0.75 0.83 0.88 0.89 0.92 0.87 0.90 0.85 0.81 0.79 0.77 0.74 0.74 0.76 0.80 0.86 0.89 0.92 0.93 0.94 0.97 0.98 1.03 1.05 1.02 1.00 0.98 0.96 0.98
0.40 0.41 0.45 0.50 0.54 0.59 0.63 0.66 0.69 0.68 0.68 0.65 0.60 0.63 0.67 0.78 0.82 0.78 0.81 0.81 0.86 0.88 0.80 0.74 0.71 0.71 0.71 0.73 0.76 0.83 0.88 0.89 0.89 0.90 0.91 0.90 0.88 0.86 0.85 0.88 0.90 0.97 1.05
0.30 0.32 0.33 0.36 0.41 0.45 0.49 0.54 0.58 0.61 0.66 0.67 0.64 0.62 0.62 0.70 0.76 0.69 0.70 0.72 0.75 0.86 0.86 0.81 0.77 0.74 0.72 0.76 0.81 0.82 0.87 0.88 0.88 0.85 0.83 0.82 0.84 0.81 0.80 0.82 0.87 0.95 1.09
0.21 0.21 0.22 0.23 0.25 0.30 0.35 0.41 0.46 0.51 0.59 0.61 0.63 0.62 0.60 0.63 0.72 0.70 0.68 0.69 0.72 0.81 0.88 0.92 0.90 0.84 0.82 0.93 0.91 0.85 0.85 0.89 0.88 0.83 0.77 0.74 0.79 0.77 0.78 0.81 0.88 1.02 1.17
0.15 0.15 0.15 0.16 0.17 0.20 0.25 0.29 0.34 0.38 0.45 0.53 0.58 0.61 0.64 0.66 0.72 0.73 0.73 0.78 0.84 0.90 0.92 0.97 1.00 0.98 1.00 1.02 0.90 0.88 0.81 0.81 0.83 0.80 0.75 0.70 0.68 0.72 0.67 0.73 0.86 0.96 1.06
0.14 0.16 0.15 0.16 0.16 0.16 0.17 0.19 0.25 0.31 0.35 0.41 0.49 0.53 0.58 0.61 0.64 0.71 0.76 0.82 0.86 0.92 0.96 0.99 0.99 0.96 0.96 0.95 0.84 0.81 0.75 0.75 0.76 0.74 0.71 0.71 0.72 0.71 0.76 0.81 0.88 0.80 0.75
0.13 0.14 0.13 0.14 0.14 0.14 0.15 0.17 0.21 0.28 0.32 0.39 0.46 0.51 0.59 0.62 0.65 0.72 0.74 0.78 0.85 0.88 0.86 0.86 0.88 0.88 0.89 0.85 0.77 0.73 0.68 0.69 0.67 0.64 0.63 0.64 0.66 0.79 0.94 0.99 0.99 0.81 0.65
0.11 0.13 0.13 0.14 0.15 0.17 0.19 0.21 0.25 0.29 0.32 0.39 0.47 0.50 0.58 0.68 0.71 0.74 0.72 0.71 0.76 0.82 0.77 0.73 0.72 0.71 0.73 0.76 0.71 0.68 0.64 0.66 0.63 0.60 0.58 0.64 0.66 0.78 0.94 0.92 0.96 0.91 0.75
0.12 0.12 0.14 0.16 0.20 0.25 0.28 0.29 0.32 0.36 0.38 0.39 0.44 0.44 0.49 0.55 0.58 0.61 0.62 0.62 0.63 0.65 0.61 0.58 0.59 0.57 0.57 0.61 0.60 0.58 0.56 0.59 0.61 0.57 0.52 0.52 0.69 0.80 0.86 0.83 0.76 0.85 0.92
0.15 0.14 0.16 0.17 0.19 0.26 0.33 0.34 0.33 0.34 0.34 0.34 0.38 0.40 0.42 0.46 0.48 0.50 0.53 0.55 0.53 0.53 0.51 0.47 0.48 0.46 0.47 0.50 0.51 0.53 0.55 0.61 0.57 0.52 0.48 0.51 0.66 0.68 0.68 0.68 0.74 0.89 0.90
0.15 0.14 0.15 0.15 0.17 0.21 0.27 0.34 0.34 0.33 0.32 0.34 0.36 0.36 0.35 0.37 0.41 0.41 0.43 0.44 0.43 0.42 0.41 0.40 0.39 0.39 0.41 0.47 0.53 0.54 0.59 0.62 0.56 0.51 0.55 0.59 0.60 0.57 0.56 0.67 0.79 0.79 0.72
0.13 0.14 0.13 0.15 0.18 0.19 0.21 0.25 0.28 0.28 0.29 0.30 0.31 0.33 0.34 0.32 0.32 0.33 0.36 0.39 0.40 0.40 0.39 0.38 0.37 0.35 0.37 0.41 0.45 0.51 0.54 0.55 0.56 0.57 0.57 0.55 0.53 0.54 0.56 0.62 0.65 0.66 0.75
0.13 0.15 0.14 0.15 0.16 0.16 0.17 0.17 0.18 0.20 0.24 0.27 0.27 0.27 0.29 0.30 0.29 0.28 0.31 0.36 0.37 0.43 0.47 0.46 0.45 0.43 0.40 0.42 0.51 0.55 0.55 0.57 0.58 0.60 0.53 0.50 0.50 0.50 0.50 0.54 0.57 0.62 0.76
0.14 0.15 0.14 0.14 0.15 0.15 0.16 0.16 0.16 0.18 0.20 0.23 0.24 0.25 0.26 0.26 0.27 0.27 0.27 0.31 0.34 0.39 0.44 0.48 0.50 0.47 0.46 0.50 0.52 0.53 0.57 0.61 0.63 0.61 0.54 0.52 0.51 0.52 0.54 0.56 0.60 0.65 0.77

GEFSMW_prec_meanprecacc_186.txt.gz
Total_Precipitation_Accumulation
0.78 1.02 1.26 1.51 1.82 2.23 2.42 2.42 2.39 2.58 2.82 2.66 2.42 2.22 1.98 1.76 1.57 1.41 1.30 1.22 1.12 1.01 0.90 0.80 0.81 0.78 0.72 0.69 0.66 0.63 0.60 0.58 0.58 0.60 0.55 0.46 0.44 0.40 0.34 0.32 0.29 0.26 0.24
0.70 0.93 1.14 1.38 1.57 2.04 2.32 2.36 2.44 2.60 2.80 2.69 2.56 2.48 2.40 2.18 1.95 1.79 1.52 1.33 1.23 1.12 1.05 0.94 0.86 0.87 0.86 0.81 0.78 0.76 0.74 0.71 0.74 0.79 0.81 0.69 0.55 0.42 0.35 0.34 0.34 0.33 0.33
0.65 0.81 0.99 1.21 1.31 1.60 1.99 2.17 2.23 2.41 2.56 2.74 3.01 3.01 2.89 2.53 2.08 1.76 1.64 1.53 1.48 1.39 1.22 1.19 1.10 0.97 0.94 0.87 0.82 0.79 0.79 0.77 0.78 0.80 0.92 0.87 0.68 0.53 0.43 0.36 0.34 0.35 0.37
0.63 0.75 0.88 1.00 1.13 1.28 1.62 1.98 2.17 2.31 2.35 2.46 2.72 2.83 2.70 2.35 2.00 1.78 1.74 1.78 1.72 1.67 1.58 1.44 1.38 1.25 1.11 1.00 0.96 0.94 0.92 0.94 0.91 0.87 0.83 0.81 0.74 0.72 0.60 0.44 0.39 0.37 0.37
0.67 0.74 0.79 0.84 0.91 1.08 1.41 1.73 1.97 2.20 2.24 2.20 2.32 2.55 2.63 2.49 2.31 2.14 2.01 1.91 1.83 1.72 1.68 1.63 1.55 1.44 1.34 1.26 1.21 1.16 1.12 1.11 1.06 0.99 0.94 0.92 0.82 0.77 0.79 0.60 0.43 0.44 0.43
0.75 0.76 0.76 0.77 0.83 0.91 1.07 1.38 1.67 2.00 2.18 2.14 2.18 2.27 2.33 2.40 2.31 2.14 2.12 2.02 1.98 1.85 1.68 1.64 1.62 1.55 1.52 1.48 1.45 1.43 1.34 1.27 1.22 1.17 1.10 1.10 1.05 0.91 0.93 0.86 0.65 0.59 0.52
0.68 0.66 0.64 0.65 0.75 0.86 0.93 1.13 1.30 1.56 1.83 1.97 2.01 2.04 2.13 2.18 2.21 2.19 2.16 2.14 1.99 1.84 1.73 1.66 1.67 1.66 1.58 1.57 1.57 1.53 1.44 1.37 1.31 1.29 1.26 1.20 1.14 1.10 1.14 1.18 1.02 0.87 0.71
0.71 0.67 0.64 0.67 0.78 0.82 0.89 1.00 1.11 1.24 1.46 1.66 1.74 1.78 1.91 1.98 1.94 2.02 2.01 1.98 1.91 1.81 1.79 1.77 1.68 1.67 1.66 1.60 1.58 1.54 1.45 1.40 1.36 1.32 1.31 1.28 1.22 1.24 1.28 1.34 1.40 1.29 1.02
0.64 0.66 0.66 0.70 0.76 0.79 0.84 0.92 1.01 1.04 1.15 1.33 1.47 1.59 1.64 1.66 1.60 1.61 1.63 1.67 1.71 1.71 1.66 1.66 1.60 1.54 1.52 1.51 1.53 1.50 1.41 1.36 1.31 1.27 1.26 1.24 1.19 1.21 1.25 1.33 1.48 1.65 1.48
0.63 0.65 0.68 0.66 0.67 0.72 0.75 0.83 0.87 0.86 0.92 1.02 1.11 1.28 1.39 1.39 1.42 1.42 1.39 1.37 1.36 1.40 1.43 1.43 1.42 1.38 1.37 1.37 1.36 1.35 1.34 1.33 1.24 1.19 1.19 1.15 1.11 1.14 1.21 1.28 1.36 1.51 1.63
0.64 0.69 0.72 0.70 0.68 0.72 0.75 0.76 0.72 0.74 0.78 0.85 0.90 0.96 1.08 1.16 1.21 1.23 1.16 1.16 1.12 1.10 1.12 1.10 1.11 1.14 1.16 1.18 1.19 1.19 1.20 1.23 1.19 1.17 1.17 1.16 1.13 1.14 1.14 1.18 1.22 1.29 1.41
0.58 0.63 0.69 0.69 0.68 0.71 0.74 0.77 0.70 0.68 0.70 0.76 0.76 0.79 0.87 0.99 1.04 1.09 1.04 0.98 1.00 0.94 0.93 0.91 0.88 0.88 0.89 0.93 0.95 0.96 1.00 1.05 1.06 1.06 1.09 1.10 1.13 1.16 1.14 1.13 1.12 1.10 1.11
0.51 0.53 0.56 0.61 0.65 0.66 0.69 0.76 0.74 0.66 0.64 0.65 0.65 0.70 0.75 0.84 0.88 0.90 0.93 0.88 0.91 0.85 0.81 0.79 0.77 0.75 0.74 0.76 0.80 0.86 0.89 0.92 0.93 0.94 0.97 0.98 1.03 1.05 1.02 1.00 0.98 0.96 0.99
0.40 0.41 0.45 0.50 0.54 0.59 0.63 0.66 0.69 0.69 0.68 0.65 0.61 0.63 0.68 0.79 0.82 0.78 0.81 0.81 0.86 0.89 0.80 0.74 0.71 0.71 0.71 0.73 0.76 0.83 0.88 0.89 0.89 0.90 0.91 0.90 0.88 0.86 0.86 0.88 0.90 0.97 1.06
0.30 0.32 0.33 0.36 0.41 0.45 0.49 0.54 0.59 0.62 0.66 0.67 0.64 0.63 0.63 0.71 0.77 0.70 0.70 0.72 0.75 0.86 0.86 0.81 0.77 0.74 0.72 0.76 0.81 0.83 0.87 0.88 0.88 0.85 0.83 0.82 0.84 0.82 0.80 0.83 0.87 0.96 1.10
0.21 0.22 0.22 0.24 0.26 0.30 0.35 0.41 0.46 0.51 0.59 0.62 0.63 0.62 0.60 0.64 0.73 0.71 0.68 0.69 0.72 0.81 0.88 0.92 0.90 0.84 0.82 0.93 0.92 0.85 0.85 0.89 0.88 0.83 0.77 0.74 0.79 0.77 0.78 0.81 0.89 1.03 1.18
0.15 0.15 0.15 0.16 0.17 0.20 0.25 0.29 0.34 0.38 0.46 0.54 0.59 0.61 0.64 0.67 0.73 0.74 0.73 0.78 0.84 0.90 0.92 0.97 1.00 0.98 1.00 1.02 0.90 0.88 0.81 0.81 0.83 0.80 0.75 0.70 0.68 0.72 0.67 0.73 0.87 0.96 1.07
0.14 0.16 0.16 0.16 0.16 0.16 0.17 0.19 0.25 0.31 0.36 0.41 0.49 0.53 0.59 0.62 0.65 0.72 0.77 0.82 0.86 0.92 0.96 0.99 0.99 0.96 0.96 0.95 0.84 0.81 0.75 0.75 0.76 0.74 0.71 0.71 0.72 0.71 0.76 0.81 0.88 0.81 0.76
0.13 0.14 0.14 0.14 0.15 0.14 0.15 0.17 0.22 0.28 0.32 0.39 0.47 0.51 0.59 0.63 0.66 0.73 0.76 0.79 0.85 0.89 0.86 0.87 0.88 0.88 0.89 0.85 0.77 0.73 0.68 0.69 0.67 0.64 0.63 0.64 0.66 0.79 0.95 1.00 1.00 0.83 0.67
0.12 0.13 0.13 0.14 0.16 0.18 0.20 0.22 0.25 0.30 0.33 0.39 0.47 0.50 0.58 0.68 0.72 0.75 0.73 0.72 0.76 0.82 0.78 0.74 0.72 0.71 0.73 0.76 0.71 0.68 0.64 0.66 0.64 0.60 0.59 0.64 0.66 0.79 0.95 0.93 0.98 0.93 0.77
0.12 0.12 0.14 0.16 0.20 0.25 0.28 0.29 0.32 0.36 0.38 0.40 0.45 0.45 0.49 0.55 0.59 0.62 0.63 0.63 0.64 0.66 0.62 0.59 0.59 0.57 0.57 0.62 0.60 0.59 0.57 0.59 0.61 0.57 0.53 0.53 0.70 0.80 0.87 0.84 0.77 0.87 0.94
0.15 0.14 0.16 0.18 0.20 0.27 0.33 0.34 0.33 0.34 0.34 0.35 0.38 0.40 0.42 0.46 0.48 0.50 0.53 0.56 0.54 0.54 0.51 0.48 0.48 0.47 0.47 0.51 0.52 0.54 0.56 0.61 0.57 0.52 0.49 0.52 0.67 0.69 0.69 0.69 0.75 0.91 0.92
0.15 0.14 0.15 0.16 0.17 0.21 0.27 0.34 0.34 0.33 0.33 0.34 0.36 0.36 0.35 0.37 0.41 0.41 0.44 0.45 0.43 0.43 0.42 0.40 0.39 0.40 0.41 0.47 0.54 0.54 0.59 0.62 0.57 0.51 0.56 0.59 0.61 0.57 0.57 0.68 0.80 0.80 0.73
0.13 0.14 0.13 0.15 0.18 0.19 0.21 0.25 0.28 0.28 0.30 0.30 0.31 0.34 0.34 0.32 0.32 0.34 0.37 0.39 0.40 0.40 0.39 0.39 0.37 0.36 0.38 0.41 0.45 0.51 0.54 0.55 0.57 0.58 0.57 0.55 0.54 0.54 0.57 0.63 0.66 0.66 0.76
0.14 0.15 0.14 0.15 0.16 0.16 0.17 0.17 0.18 0.20 0.24 0.27 0.27 0.27 0.29 0.30 0.29 0.29 0.31 0.36 0.38 0.43 0.47 0.46 0.45 0.43 0.41 0.42 0.51 0.56 0.55 0.57 0.59 0.60 0.54 0.50 0.50 0.50 0.50 0.55 0.57 0.63 0.77
0.14 0.15 0.14 0.14 0.15 0.15 0.16 0.16 0.16 0.18 0.20 0.23 0.24 0.25 0.26 0.26 0.27 0.27 0.27 0.31 0.34 0.39 0.44 0.48 0.50 0.47 0.47 0.51 0.53 0.54 0.58 0.61 0.63 0.61 0.55 0.52 0.51 0.53 0.54 0.57 0.61 0.65 0.77

GEFSMW_prec_meanprecacc_192.txt.gz
Total_Precipitation_Accumulation
0.82 1.07 1.33 1.56 1.86 2.26 2.45 2.44 2.41 2.60 2.84 2.67 2.44 2.24 2.03 1.80 1.60 1.46 1.37 1.29 1.19 1.09 0.98 0.86 0.85 0.82 0.77 0.72 0.68 0.64 0.61 0.58 0.58 0.60 0.55 0.46 0.44 0.40 0.34 0.32 0.30 0.26 0.25
0.73 0.96 1.19 1.43 1.61 2.07 2.35 2.38 2.47 2.63 2.84 2.73 2.58 2.50 2.42 2.22 1.99 1.83 1.58 1.40 1.29 1.20 1.15 1.02 0.91 0.91 0.91 0.85 0.81 0.79 0.76 0.72 0.75 0.80 0.82 0.69 0.55 0.43 0.36 0.35 0.34 0.34 0.34
0.67 0.83 1.01 1.24 1.34 1.63 2.02 2.19 2.26 2.46 2.61 2.81 3.07 3.05 2.91 2.55 2.12 1.82 1.70 1.59 1.55 1.46 1.32 1.30 1.18 1.02 0.98 0.92 0.86 0.82 0.80 0.79 0.79 0.80 0.92 0.88 0.69 0.53 0.43 0.36 0.34 0.35 0.38
0.64 0.77 0.90 1.01 1.14 1.29 1.64 1.99 2.19 2.34 2.39 2.50 2.79 2.91 2.76 2.39 2.03 1.81 1.80 1.85 1.80 1.75 1.69 1.56 1.47 1.31 1.16 1.05 1.01 0.96 0.93 0.95 0.92 0.88 0.84 0.82 0.75 0.73 0.60 0.44 0.39 0.37 0.38
0.69 0.76 0.81 0.85 0.92 1.08 1.42 1.73 1.98 2.21 2.26 2.22 2.35 2.59 2.71 2.59 2.39 2.18 2.04 1.95 1.89 1.79 1.77 1.74 1.66 1.53 1.41 1.31 1.26 1.20 1.14 1.12 1.07 1.00 0.94 0.92 0.83 0.78 0.80 0.60 0.44 0.44 0.44
0.76 0.77 0.78 0.77 0.83 0.91 1.08 1.38 1.68 2.01 2.19 2.15 2.19 2.28 2.36 2.47 2.40 2.21 2.17 2.06 2.02 1.90 1.75 1.73 1.73 1.67 1.62 1.56 1.52 1.49 1.38 1.29 1.23 1.17 1.10 1.10 1.06 0.91 0.93 0.87 0.65 0.60 0.53
0.69 0.67 0.65 0.65 0.75 0.86 0.93 1.13 1.31 1.57 1.85 1.98 2.02 2.05 2.14 2.21 2.28 2.28 2.23 2.19 2.03 1.88 1.78 1.72 1.75 1.76 1.68 1.67 1.66 1.60 1.49 1.40 1.34 1.30 1.27 1.21 1.14 1.11 1.15 1.19 1.03 0.88 0.72
0.72 0.68 0.64 0.67 0.79 0.82 0.89 1.01 1.12 1.25 1.47 1.68 1.75 1.78 1.92 1.99 1.97 2.08 2.08 2.05 1.98 1.87 1.85 1.82 1.73 1.73 1.73 1.67 1.65 1.60 1.50 1.44 1.39 1.34 1.32 1.29 1.22 1.24 1.29 1.35 1.40 1.30 1.02
0.65 0.66 0.67 0.70 0.76 0.80 0.84 0.93 1.01 1.05 1.16 1.36 1.50 1.60 1.65 1.67 1.61 1.62 1.66 1.70 1.75 1.76 1.72 1.72 1.65 1.57 1.56 1.56 1.57 1.55 1.46 1.40 1.33 1.29 1.27 1.25 1.20 1.21 1.26 1.33 1.49 1.66 1.49
0.63 0.65 0.68 0.66 0.67 0.72 0.76 0.83 0.87 0.87 0.93 1.04 1.13 1.30 1.41 1.41 1.43 1.43 1.40 1.38 1.38 1.43 1.46 1.49 1.48 1.42 1.40 1.40 1.39 1.38 1.37 1.36 1.26 1.21 1.20 1.16 1.12 1.15 1.21 1.29 1.36 1.52 1.64
0.65 0.69 0.72 0.70 0.68 0.72 0.75 0.77 0.72 0.75 0.78 0.86 0.92 0.99 1.11 1.19 1.24 1.25 1.17 1.18 1.13 1.11 1.15 1.14 1.15 1.18 1.19 1.21 1.21 1.21 1.23 1.25 1.21 1.18 1.19 1.17 1.14 1.15 1.15 1.18 1.23 1.30 1.42
0.58 0.63 0.69 0.69 0.68 0.71 0.74 0.77 0.70 0.68 0.70 0.76 0.77 0.81 0.90 1.03 1.07 1.12 1.06 1.00 1.01 0.94 0.94 0.93 0.92 0.91 0.93 0.96 0.98 0.98 1.02 1.07 1.08 1.08 1.10 1.11 1.13 1.16 1.14 1.13 1.12 1.10 1.11
0.51 0.53 0.56 0.61 0.65 0.66 0.69 0.76 0.74 0.66 0.64 0.66 0.66 0.70 0.77 0.86 0.92 0.94 0.96 0.90 0.92 0.86 0.82 0.80 0.79 0.77 0.77 0.78 0.82 0.88 0.90 0.93 0.95 0.95 0.98 0.99 1.03 1.06 1.02 1.00 0.99 0.97 0.99
0.40 0.41 0.45 0.50 0.54 0.59 0.63 0.66 0.69 0.69 0.68 0.66 0.62 0.64 0.68 0.80 0.84 0.80 0.83 0.83 0.88 0.90 0.81 0.75 0.72 0.72 0.73 0.75 0.78 0.84 0.89 0.90 0.90 0.91 0.92 0.91 0.89 0.87 0.86 0.89 0.91 0.97 1.06
0.30 0.32 0.33 0.36 0.41 0.45 0.49 0.54 0.59 0.62 0.66 0.68 0.65 0.64 0.64 0.72 0.77 0.71 0.71 0.74 0.77 0.88 0.87 0.82 0.78 0.75 0.73 0.77 0.82 0.84 0.88 0.89 0.88 0.85 0.83 0.82 0.84 0.82 0.81 0.83 0.87 0.97 1.11
0.21 0.22 0.22 0.24 0.26 0.30 0.35 0.41 0.46 0.51 0.59 0.62 0.64 0.63 0.61 0.64 0.74 0.71 0.69 0.70 0.74 0.83 0.90 0.94 0.91 0.85 0.82 0.94 0.92 0.86 0.86 0.89 0.88 0.84 0.77 0.75 0.79 0.77 0.78 0.82 0.89 1.03 1.19
0.15 0.15 0.15 0.16 0.17 0.20 0.25 0.29 0.34 0.39 0.46 0.54 0.59 0.62 0.65 0.67 0.73 0.74 0.74 0.79 0.86 0.92 0.93 0.98 1.02 0.99 1.01 1.03 0.91 0.89 0.82 0.82 0.83 0.80 0.75 0.71 0.68 0.72 0.67 0.74 0.87 0.97 1.08
0.14 0.16 0.16 0.16 0.16 0.17 0.17 0.19 0.25 0.31 0.36 0.41 0.49 0.53 0.59 0.62 0.65 0.72 0.77 0.82 0.87 0.94 0.98 1.00 1.00 0.97 0.96 0.96 0.85 0.82 0.75 0.75 0.76 0.74 0.71 0.71 0.72 0.71 0.76 0.82 0.89 0.81 0.76
0.13 0.14 0.14 0.14 0.15 0.14 0.15 0.17 0.22 0.28 0.32 0.39 0.47 0.51 0.60 0.63 0.66 0.74 0.76 0.80 0.86 0.90 0.88 0.88 0.90 0.89 0.89 0.86 0.77 0.74 0.68 0.70 0.67 0.64 0.63 0.64 0.66 0.79 0.96 1.01 1.01 0.83 0.67
0.12 0.13 0.13 0.14 0.16 0.18 0.20 0.22 0.25 0.30 0.33 0.40 0.48 0.50 0.59 0.68 0.72 0.75 0.74 0.72 0.77 0.83 0.80 0.75 0.74 0.73 0.74 0.77 0.72 0.69 0.64 0.66 0.64 0.61 0.59 0.64 0.67 0.80 0.96 0.94 0.99 0.93 0.77
0.12 0.13 0.14 0.16 0.21 0.26 0.28 0.29 0.32 0.36 0.38 0.40 0.45 0.45 0.50 0.56 0.59 0.62 0.63 0.64 0.65 0.66 0.63 0.60 0.60 0.58 0.59 0.63 0.61 0.59 0.57 0.60 0.61 0.58 0.53 0.53 0.70 0.81 0.88 0.85 0.78 0.88 0.95
0.15 0.15 0.16 0.18 0.20 0.27 0.33 0.34 0.33 0.35 0.34 0.35 0.39 0.40 0.43 0.46 0.48 0.50 0.54 0.56 0.55 0.54 0.52 0.49 0.49 0.47 0.48 0.51 0.52 0.54 0.56 0.61 0.57 0.53 0.49 0.52 0.67 0.70 0.70 0.70 0.76 0.92 0.93
0.15 0.14 0.15 0.16 0.17 0.21 0.27 0.35 0.34 0.33 0.33 0.34 0.37 0.36 0.35 0.37 0.41 0.42 0.44 0.45 0.44 0.43 0.42 0.41 0.40 0.40 0.42 0.47 0.54 0.55 0.60 0.63 0.57 0.52 0.56 0.60 0.61 0.58 0.58 0.68 0.81 0.81 0.74
0.13 0.14 0.13 0.15 0.18 0.19 0.21 0.25 0.28 0.28 0.30 0.30 0.31 0.34 0.35 0.33 0.32 0.34 0.37 0.40 0.41 0.41 0.40 0.39 0.37 0.36 0.38 0.41 0.46 0.52 0.54 0.56 0.57 0.58 0.58 0.55 0.54 0.55 0.57 0.64 0.66 0.67 0.77
0.14 0.15 0.15 0.15 0.16 0.16 0.17 0.17 0.18 0.21 0.24 0.27 0.27 0.28 0.29 0.30 0.30 0.29 0.32 0.36 0.38 0.43 0.48 0.47 0.46 0.44 0.41 0.42 0.52 0.56 0.55 0.57 0.59 0.60 0.54 0.51 0.50 0.50 0.51 0.55 0.58 0.63 0.77
0.14 0.15 0.15 0.14 0.15 0.15 0.16 0.16 0.16 0.18 0.21 0.23 0.24 0.25 0.26 0.27 0.27 0.28 0.27 0.31 0.34 0.40 0.45 0.49 0.51 0.48 0.48 0.51 0.54 0.54 0.58 0.62 0.63 0.62 0.55 0.52 0.52 0.53 0.55 0.57 0.62 0.66 0.78

GEFSMW_prec_meanprecacc_198.txt.gz
Total_Precipitation_Accumulation
0.84 1.10 1.38 1.62 1.96 2.38 2.56 2.57 2.53 2.71 2.92 2.74 2.50 2.29 2.06 1.84 1.66 1.55 1.44 1.35 1.26 1.16 1.06 0.94 0.92 0.88 0.82 0.77 0.73 0.68 0.63 0.60 0.61 0.63 0.57 0.48 0.44 0.41 0.35 0.32 0.30 0.27 0.25
0.74 0.99 1.23 1.49 1.69 2.20 2.48 2.49 2.58 2.72 2.90 2.78 2.64 2.55 2.46 2.25 2.04 1.90 1.65 1.45 1.35 1.25 1.20 1.08 0.96 0.96 0.96 0.90 0.86 0.83 0.79 0.74 0.76 0.82 0.84 0.71 0.57 0.43 0.36 0.35 0.35 0.34 0.35
0.69 0.85 1.05 1.29 1.41 1.71 2.11 2.27 2.33 2.53 2.68 2.87 3.13 3.11 2.97 2.60 2.16 1.88 1.78 1.65 1.59 1.49 1.35 1.32 1.22 1.07 1.03 0.97 0.90 0.85 0.84 0.82 0.81 0.82 0.94 0.89 0.71 0.54 0.43 0.37 0.34 0.35 0.38
0.66 0.80 0.95 1.05 1.20 1.37 1.70 2.05 2.25 2.39 2.44 2.54 2.83 2.95 2.81 2.44 2.08 1.86 1.87 1.92 1.85 1.79 1.71 1.58 1.50 1.35 1.21 1.11 1.06 1.00 0.97 0.98 0.95 0.90 0.85 0.83 0.76 0.74 0.61 0.44 0.39 0.38 0.38
0.73 0.80 0.86 0.88 0.98 1.16 1.47 1.79 2.03 2.26 2.31 2.25 2.37 2.62 2.73 2.61 2.42 2.22 2.10 2.02 1.95 1.84 1.81 1.76 1.69 1.56 1.45 1.36 1.32 1.25 1.18 1.16 1.11 1.03 0.96 0.94 0.84 0.78 0.80 0.61 0.44 0.45 0.44
0.79 0.80 0.81 0.80 0.87 0.99 1.19 1.48 1.73 2.04 2.22 2.17 2.21 2.30 2.37 2.48 2.42 2.23 2.20 2.11 2.08 1.95 1.80 1.76 1.76 1.69 1.65 1.59 1.56 1.53 1.43 1.33 1.26 1.21 1.13 1.12 1.07 0.92 0.94 0.87 0.65 0.60 0.54
0.70 0.68 0.67 0.68 0.78 0.90 1.00 1.18 1.33 1.58 1.86 1.99 2.03 2.05 2.15 2.21 2.28 2.29 2.25 2.21 2.08 1.93 1.84 1.76 1.77 1.78 1.69 1.68 1.68 1.63 1.53 1.45 1.38 1.34 1.30 1.23 1.16 1.12 1.15 1.20 1.03 0.88 0.72
0.72 0.68 0.65 0.69 0.80 0.83 0.90 1.02 1.14 1.26 1.48 1.68 1.75 1.79 1.92 1.99 1.97 2.08 2.09 2.06 2.00 1.91 1.90 1.87 1.76 1.76 1.75 1.69 1.67 1.63 1.53 1.47 1.43 1.38 1.36 1.32 1.24 1.25 1.29 1.36 1.41 1.30 1.03
0.65 0.67 0.68 0.71 0.76 0.80 0.84 0.93 1.02 1.05 1.16 1.36 1.50 1.60 1.66 1.67 1.61 1.63 1.66 1.71 1.76 1.78 1.76 1.77 1.69 1.61 1.59 1.58 1.59 1.57 1.49 1.43 1.36 1.32 1.31 1.28 1.21 1.22 1.27 1.34 1.49 1.66 1.50
0.64 0.67 0.69 0.67 0.67 0.72 0.76 0.84 0.88 0.88 0.93 1.04 1.14 1.31 1.41 1.41 1.43 1.44 1.40 1.38 1.38 1.43 1.47 1.52 1.53 1.47 1.44 1.43 1.42 1.39 1.39 1.38 1.28 1.23 1.22 1.19 1.14 1.16 1.22 1.29 1.37 1.53 1.64
0.66 0.70 0.72 0.70 0.68 0.72 0.75 0.77 0.72 0.75 0.78 0.86 0.92 0.99 1.12 1.19 1.24 1.25 1.17 1.18 1.14 1.11 1.15 1.16 1.19 1.23 1.25 1.26 1.25 1.24 1.25 1.27 1.23 1.20 1.20 1.19 1.16 1.16 1.16 1.19 1.23 1.30 1.42
0.58 0.63 0.69 0.69 0.68 0.71 0.74 0.77 0.70 0.68 0.71 0.76 0.77 0.81 0.91 1.03 1.08 1.12 1.06 1.00 1.01 0.95 0.94 0.94 0.94 0.95 0.97 1.01 1.03 1.02 1.05 1.09 1.10 1.09 1.11 1.12 1.14 1.18 1.15 1.14 1.13 1.11 1.12
0.51 0.53 0.56 0.61 0.65 0.67 0.69 0.76 0.74 0.66 0.64 0.66 0.66 0.71 0.78 0.87 0.93 0.94 0.97 0.90 0.93 0.87 0.83 0.81 0.81 0.80 0.80 0.82 0.87 0.92 0.94 0.97 0.97 0.98 0.99 1.00 1.04 1.07 1.02 1.01 0.99 0.97 0.99
0.40 0.41 0.45 0.50 0.54 0.59 0.63 0.66 0.69 0.69 0.69 0.66 0.62 0.65 0.69 0.81 0.85 0.81 0.84 0.84 0.89 0.91 0.82 0.76 0.74 0.74 0.76 0.79 0.82 0.88 0.92 0.93 0.94 0.95 0.95 0.92 0.90 0.87 0.86 0.89 0.91 0.98 1.06
0.30 0.32 0.33 0.36 0.41 0.45 0.49 0.54 0.59 0.62 0.66 0.68 0.65 0.64 0.64 0.72 0.78 0.72 0.73 0.75 0.78 0.89 0.89 0.84 0.79 0.76 0.76 0.80 0.85 0.87 0.91 0.92 0.92 0.90 0.88 0.86 0.87 0.84 0.82 0.84 0.88 0.97 1.11
0.21 0.22 0.22 0.24 0.26 0.30 0.35 0.41 0.46 0.51 0.59 0.62 0.64 0.63 0.61 0.65 0.74 0.72 0.70 0.71 0.76 0.84 0.91 0.95 0.93 0.87 0.84 0.96 0.95 0.89 0.90 0.93 0.92 0.88 0.83 0.80 0.84 0.81 0.81 0.84 0.91 1.05 1.20
0.15 0.15 0.15 0.16 0.17 0.20 0.25 0.29 0.34 0.39 0.46 0.54 0.59 0.62 0.65 0.68 0.73 0.75 0.75 0.80 0.87 0.93 0.95 1.00 1.03 1.01 1.03 1.06 0.94 0.91 0.85 0.85 0.86 0.84 0.80 0.76 0.73 0.78 0.72 0.78 0.90 0.99 1.09
0.14 0.16 0.16 0.16 0.16 0.17 0.17 0.19 0.25 0.31 0.36 0.41 0.49 0.53 0.59 0.63 0.66 0.73 0.78 0.83 0.89 0.95 0.99 1.02 1.02 0.98 0.98 0.98 0.87 0.84 0.78 0.78 0.79 0.78 0.75 0.76 0.77 0.76 0.81 0.87 0.93 0.84 0.79
0.13 0.14 0.14 0.14 0.15 0.14 0.15 0.17 0.22 0.28 0.32 0.40 0.47 0.52 0.60 0.63 0.67 0.74 0.77 0.81 0.87 0.91 0.90 0.90 0.91 0.91 0.91 0.88 0.79 0.75 0.70 0.72 0.70 0.68 0.67 0.68 0.70 0.84 1.00 1.05 1.04 0.86 0.70
0.12 0.13 0.13 0.14 0.16 0.18 0.20 0.22 0.26 0.30 0.33 0.40 0.48 0.51 0.59 0.69 0.72 0.75 0.74 0.73 0.78 0.84 0.81 0.77 0.75 0.74 0.75 0.79 0.73 0.70 0.66 0.68 0.66 0.63 0.61 0.67 0.69 0.83 0.99 0.97 1.01 0.96 0.79
0.12 0.13 0.14 0.16 0.21 0.26 0.28 0.29 0.32 0.37 0.38 0.40 0.45 0.45 0.50 0.56 0.60 0.62 0.64 0.65 0.65 0.67 0.64 0.62 0.62 0.59 0.60 0.64 0.62 0.60 0.58 0.61 0.63 0.59 0.54 0.55 0.72 0.83 0.90 0.87 0.80 0.90 0.97
0.15 0.15 0.17 0.18 0.20 0.27 0.33 0.34 0.33 0.35 0.35 0.35 0.39 0.40 0.43 0.46 0.48 0.51 0.54 0.56 0.55 0.55 0.52 0.50 0.50 0.49 0.49 0.53 0.53 0.55 0.57 0.62 0.59 0.54 0.50 0.53 0.69 0.71 0.71 0.71 0.77 0.93 0.93
0.15 0.14 0.15 0.16 0.17 0.21 0.27 0.35 0.35 0.33 0.33 0.34 0.37 0.37 0.36 0.37 0.41 0.42 0.44 0.45 0.44 0.44 0.43 0.42 0.41 0.41 0.42 0.48 0.55 0.56 0.61 0.64 0.58 0.53 0.58 0.61 0.63 0.59 0.59 0.69 0.82 0.81 0.75
0.14 0.14 0.14 0.15 0.18 0.19 0.21 0.25 0.28 0.29 0.30 0.30 0.32 0.34 0.35 0.33 0.32 0.34 0.37 0.40 0.41 0.41 0.40 0.40 0.39 0.37 0.39 0.42 0.46 0.52 0.55 0.56 0.58 0.59 0.59 0.57 0.55 0.55 0.58 0.64 0.67 0.68 0.78
0.14 0.15 0.15 0.15 0.17 0.16 0.17 0.17 0.18 0.21 0.24 0.27 0.27 0.28 0.29 0.30 0.30 0.29 0.32 0.36 0.38 0.44 0.48 0.48 0.47 0.45 0.43 0.43 0.53 0.58 0.56 0.58 0.59 0.61 0.55 0.51 0.51 0.51 0.51 0.55 0.58 0.64 0.78
0.14 0.15 0.15 0.14 0.15 0.15 0.16 0.16 0.16 0.18 0.21 0.23 0.24 0.25 0.26 0.27 0.27 0.28 0.28 0.31 0.34 0.40 0.45 0.50 0.52 0.50 0.49 0.52 0.55 0.55 0.59 0.63 0.65 0.63 0.56 0.53 0.52 0.54 0.55 0.58 0.62 0.66 0.79

GEFSMW_prec_meanprecacc_204.txt.gz
Total_Precipitation_Accumulation
0.89 1.16 1.48 1.70 2.03 2.44 2.62 2.63 2.60 2.80 3.04 2.93 2.68 2.43 2.16 1.90 1.70 1.57 1.46 1.37 1.28 1.20 1.10 0.97 0.96 0.94 0.89 0.84 0.81 0.78 0.74 0.69 0.67 0.67 0.59 0.49 0.45 0.41 0.35 0.33 0.31 0.27 0.25
0.78 1.04 1.30 1.56 1.75 2.25 2.56 2.57 2.66 2.83 3.03 2.94 2.79 2.68 2.55 2.31 2.08 1.92 1.66 1.46 1.36 1.28 1.24 1.12 0.99 0.98 0.98 0.94 0.91 0.90 0.87 0.83 0.84 0.89 0.89 0.74 0.58 0.44 0.37 0.36 0.35 0.35 0.35
0.71 0.89 1.09 1.33 1.47 1.76 2.17 2.35 2.41 2.64 2.80 3.01 3.28 3.23 3.06 2.66 2.21 1.91 1.79 1.65 1.60 1.50 1.38 1.36 1.25 1.10 1.05 0.98 0.92 0.88 0.89 0.88 0.87 0.88 1.00 0.94 0.73 0.56 0.44 0.37 0.35 0.36 0.39
0.68 0.83 0.98 1.08 1.25 1.41 1.73 2.11 2.33 2.47 2.52 2.64 2.96 3.08 2.91 2.52 2.13 1.89 1.88 1.92 1.85 1.80 1.72 1.60 1.53 1.38 1.24 1.12 1.07 1.02 0.99 1.01 0.98 0.94 0.89 0.87 0.78 0.76 0.62 0.45 0.40 0.38 0.39
0.75 0.83 0.89 0.90 1.00 1.20 1.51 1.83 2.09 2.32 2.36 2.31 2.45 2.71 2.82 2.69 2.48 2.26 2.12 2.03 1.95 1.85 1.81 1.78 1.71 1.58 1.47 1.37 1.32 1.26 1.19 1.17 1.13 1.06 1.00 0.97 0.87 0.80 0.82 0.62 0.45 0.45 0.45
0.81 0.82 0.84 0.83 0.89 1.02 1.25 1.51 1.76 2.09 2.26 2.21 2.26 2.36 2.44 2.54 2.47 2.27 2.22 2.13 2.09 1.96 1.81 1.77 1.77 1.72 1.66 1.60 1.56 1.53 1.43 1.34 1.27 1.22 1.16 1.15 1.11 0.95 0.96 0.89 0.67 0.61 0.54
0.71 0.70 0.69 0.70 0.80 0.93 1.04 1.24 1.37 1.63 1.91 2.02 2.06 2.09 2.19 2.25 2.32 2.32 2.27 2.23 2.09 1.94 1.85 1.78 1.79 1.79 1.71 1.69 1.69 1.64 1.54 1.46 1.39 1.35 1.31 1.25 1.17 1.13 1.17 1.21 1.05 0.90 0.73
0.73 0.70 0.66 0.71 0.82 0.85 0.92 1.06 1.18 1.30 1.53 1.72 1.78 1.81 1.95 2.02 1.99 2.09 2.10 2.07 2.01 1.92 1.91 1.89 1.80 1.79 1.77 1.70 1.68 1.63 1.54 1.48 1.44 1.39 1.37 1.33 1.25 1.26 1.31 1.37 1.43 1.32 1.05
0.65 0.67 0.69 0.74 0.79 0.82 0.86 0.94 1.04 1.08 1.19 1.40 1.52 1.62 1.68 1.69 1.63 1.63 1.66 1.71 1.77 1.79 1.76 1.78 1.71 1.65 1.63 1.62 1.61 1.57 1.49 1.43 1.37 1.32 1.32 1.29 1.22 1.23 1.27 1.35 1.51 1.68 1.52
0.65 0.67 0.69 0.68 0.69 0.74 0.77 0.84 0.88 0.89 0.95 1.07 1.16 1.32 1.43 1.42 1.44 1.44 1.40 1.39 1.38 1.43 1.48 1.52 1.53 1.49 1.47 1.46 1.45 1.42 1.40 1.39 1.29 1.23 1.23 1.19 1.14 1.17 1.23 1.30 1.38 1.54 1.66
0.66 0.70 0.73 0.70 0.68 0.73 0.76 0.77 0.73 0.75 0.79 0.87 0.93 1.00 1.13 1.20 1.24 1.26 1.18 1.18 1.14 1.11 1.15 1.16 1.19 1.24 1.26 1.28 1.27 1.26 1.27 1.28 1.24 1.20 1.20 1.19 1.16 1.16 1.16 1.19 1.24 1.31 1.43
0.58 0.63 0.69 0.69 0.69 0.72 0.75 0.78 0.71 0.69 0.71 0.76 0.78 0.82 0.91 1.03 1.08 1.12 1.06 1.00 1.01 0.95 0.94 0.94 0.94 0.95 0.98 1.03 1.06 1.05 1.07 1.11 1.11 1.10 1.12 1.12 1.14 1.18 1.15 1.14 1.13 1.11 1.12
0.52 0.54 0.56 0.61 0.65 0.67 0.70 0.76 0.74 0.66 0.64 0.66 0.66 0.71 0.78 0.87 0.93 0.94 0.97 0.91 0.93 0.87 0.83 0.82 0.81 0.80 0.81 0.84 0.89 0.95 0.97 0.99 1.00 0.99 1.00 1.01 1.05 1.07 1.03 1.01 0.99 0.97 1.00
0.40 0.41 0.45 0.50 0.54 0.59 0.64 0.67 0.70 0.69 0.69 0.66 0.62 0.65 0.69 0.81 0.85 0.81 0.85 0.84 0.89 0.91 0.82 0.76 0.74 0.74 0.76 0.80 0.83 0.91 0.96 0.97 0.97 0.98 0.98 0.95 0.91 0.88 0.87 0.89 0.91 0.98 1.07
0.30 0.32 0.33 0.36 0.41 0.45 0.49 0.55 0.59 0.62 0.67 0.68 0.65 0.64 0.64 0.73 0.78 0.72 0.73 0.75 0.78 0.89 0.89 0.84 0.79 0.77 0.76 0.81 0.86 0.90 0.94 0.95 0.96 0.93 0.90 0.89 0.90 0.86 0.83 0.85 0.89 0.98 1.12
0.21 0.22 0.22 0.24 0.26 0.30 0.36 0.41 0.46 0.52 0.60 0.62 0.64 0.63 0.62 0.65 0.74 0.72 0.70 0.72 0.76 0.85 0.92 0.96 0.93 0.88 0.86 0.98 0.96 0.91 0.92 0.95 0.94 0.91 0.85 0.82 0.86 0.83 0.83 0.85 0.92 1.06 1.21
0.15 0.15 0.15 0.16 0.17 0.20 0.25 0.29 0.34 0.39 0.46 0.54 0.59 0.62 0.65 0.68 0.74 0.75 0.75 0.80 0.88 0.94 0.96 1.01 1.04 1.02 1.05 1.08 0.95 0.93 0.86 0.86 0.88 0.85 0.82 0.78 0.75 0.79 0.73 0.79 0.91 1.00 1.10
0.14 0.16 0.16 0.16 0.16 0.17 0.17 0.19 0.25 0.31 0.36 0.41 0.49 0.53 0.59 0.63 0.66 0.73 0.78 0.84 0.89 0.96 1.00 1.03 1.02 0.99 1.00 1.00 0.89 0.85 0.79 0.79 0.80 0.79 0.76 0.77 0.78 0.77 0.82 0.88 0.94 0.85 0.79
0.13 0.14 0.14 0.14 0.15 0.15 0.15 0.17 0.22 0.28 0.33 0.40 0.47 0.52 0.60 0.63 0.67 0.74 0.77 0.81 0.88 0.92 0.90 0.91 0.92 0.92 0.92 0.89 0.80 0.76 0.71 0.73 0.70 0.68 0.67 0.69 0.71 0.86 1.02 1.06 1.06 0.88 0.71
0.12 0.13 0.14 0.15 0.16 0.18 0.20 0.22 0.26 0.30 0.34 0.40 0.48 0.51 0.59 0.69 0.73 0.76 0.75 0.73 0.78 0.85 0.82 0.78 0.76 0.75 0.76 0.79 0.74 0.71 0.67 0.69 0.67 0.64 0.63 0.69 0.71 0.85 1.01 0.98 1.03 0.97 0.80
0.13 0.13 0.14 0.16 0.21 0.26 0.28 0.29 0.32 0.37 0.38 0.40 0.45 0.45 0.50 0.56 0.60 0.63 0.64 0.65 0.66 0.68 0.65 0.63 0.63 0.60 0.61 0.65 0.63 0.61 0.59 0.62 0.64 0.60 0.55 0.56 0.74 0.85 0.92 0.89 0.81 0.91 0.98
0.15 0.15 0.17 0.18 0.20 0.27 0.34 0.34 0.33 0.35 0.35 0.35 0.39 0.41 0.43 0.47 0.49 0.51 0.55 0.57 0.56 0.56 0.54 0.51 0.51 0.50 0.50 0.54 0.55 0.56 0.58 0.64 0.60 0.55 0.51 0.55 0.71 0.73 0.74 0.73 0.78 0.94 0.95
0.15 0.14 0.15 0.16 0.17 0.21 0.28 0.35 0.35 0.34 0.33 0.35 0.37 0.37 0.36 0.38 0.42 0.43 0.45 0.46 0.45 0.44 0.44 0.43 0.42 0.43 0.44 0.50 0.56 0.57 0.62 0.65 0.60 0.54 0.59 0.63 0.65 0.61 0.61 0.72 0.84 0.83 0.76
0.14 0.14 0.14 0.15 0.18 0.19 0.21 0.25 0.28 0.29 0.30 0.31 0.32 0.35 0.36 0.34 0.33 0.34 0.37 0.40 0.41 0.42 0.41 0.41 0.40 0.39 0.40 0.43 0.47 0.53 0.56 0.58 0.59 0.60 0.60 0.58 0.57 0.58 0.60 0.66 0.69 0.70 0.79
0.14 0.15 0.15 0.15 0.17 0.16 0.18 0.18 0.19 0.21 0.25 0.28 0.28 0.28 0.30 0.31 0.30 0.29 0.32 0.37 0.38 0.44 0.49 0.49 0.48 0.47 0.44 0.44 0.54 0.59 0.58 0.59 0.61 0.62 0.56 0.53 0.53 0.53 0.53 0.57 0.60 0.66 0.81
0.14 0.15 0.15 0.14 0.15 0.16 0.16 0.17 0.17 0.19 0.21 0.24 0.25 0.26 0.27 0.27 0.28 0.28 0.28 0.32 0.35 0.40 0.46 0.50 0.53 0.51 0.51 0.54 0.56 0.56 0.60 0.64 0.66 0.64 0.57 0.54 0.53 0.55 0.57 0.60 0.64 0.68 0.81

GEFSMW_prec_meanprecacc_210.txt.gz
Total_Precipitation_Accumulation
0.91 1.19 1.57 1.80 2.12 2.51 2.69 2.74 2.70 2.88 3.10 2.97 2.72 2.50 2.26 2.05 1.84 1.69 1.54 1.42 1.31 1.21 1.11 0.99 0.99 0.99 0.95 0.91 0.87 0.82 0.77 0.72 0.71 0.71 0.62 0.51 0.46 0.42 0.35 0.33 0.31 0.27 0.26
0.80 1.06 1.37 1.67 1.85 2.33 2.63 2.67 2.77 2.93 3.10 2.98 2.83 2.73 2.63 2.42 2.20 2.03 1.75 1.53 1.40 1.29 1.25 1.12 0.99 1.00 1.02 1.00 1.00 0.99 0.95 0.90 0.90 0.94 0.93 0.77 0.61 0.46 0.38 0.36 0.36 0.35 0.35
0.72 0.91 1.14 1.43 1.56 1.86 2.25 2.44 2.52 2.74 2.88 3.06 3.32 3.28 3.12 2.74 2.31 2.02 1.88 1.71 1.64 1.52 1.39 1.36 1.25 1.11 1.07 1.00 0.96 0.93 0.96 0.96 0.95 0.95 1.06 0.99 0.77 0.58 0.46 0.39 0.35 0.37 0.40
0.69 0.84 1.02 1.15 1.32 1.50 1.82 2.19 2.42 2.57 2.61 2.71 3.00 3.13 2.96 2.58 2.21 2.00 1.98 2.00 1.89 1.82 1.74 1.61 1.53 1.38 1.24 1.14 1.10 1.04 1.02 1.04 1.02 0.99 0.94 0.92 0.82 0.79 0.64 0.46 0.40 0.39 0.40
0.76 0.85 0.92 0.95 1.06 1.27 1.59 1.91 2.17 2.41 2.45 2.39 2.52 2.78 2.88 2.76 2.55 2.35 2.22 2.11 2.01 1.87 1.83 1.78 1.71 1.58 1.47 1.39 1.35 1.29 1.23 1.20 1.14 1.08 1.02 1.00 0.91 0.83 0.84 0.64 0.45 0.46 0.45
0.83 0.84 0.87 0.88 0.94 1.08 1.30 1.58 1.83 2.16 2.34 2.29 2.33 2.43 2.51 2.61 2.55 2.36 2.30 2.21 2.15 2.00 1.83 1.78 1.78 1.72 1.67 1.61 1.58 1.55 1.46 1.37 1.29 1.24 1.17 1.17 1.13 0.98 0.99 0.91 0.68 0.61 0.55
0.73 0.71 0.71 0.75 0.86 0.98 1.09 1.29 1.41 1.68 1.98 2.10 2.13 2.16 2.26 2.32 2.39 2.40 2.34 2.30 2.15 1.99 1.88 1.79 1.79 1.80 1.71 1.70 1.69 1.64 1.55 1.49 1.41 1.37 1.32 1.26 1.19 1.15 1.20 1.24 1.07 0.91 0.74
0.73 0.71 0.68 0.74 0.87 0.92 0.99 1.11 1.22 1.34 1.59 1.79 1.84 1.86 2.00 2.08 2.06 2.16 2.16 2.14 2.07 1.97 1.94 1.91 1.81 1.80 1.77 1.70 1.68 1.64 1.54 1.49 1.45 1.40 1.38 1.34 1.27 1.28 1.32 1.39 1.45 1.34 1.06
0.65 0.68 0.71 0.77 0.83 0.87 0.91 0.99 1.07 1.10 1.23 1.45 1.58 1.67 1.71 1.73 1.68 1.69 1.72 1.77 1.82 1.84 1.81 1.81 1.73 1.66 1.64 1.62 1.61 1.58 1.50 1.44 1.37 1.33 1.33 1.30 1.23 1.25 1.29 1.36 1.52 1.70 1.53
0.65 0.67 0.70 0.69 0.71 0.77 0.81 0.88 0.91 0.91 0.97 1.10 1.20 1.37 1.46 1.45 1.49 1.48 1.44 1.42 1.42 1.47 1.52 1.56 1.56 1.50 1.48 1.47 1.46 1.42 1.41 1.39 1.29 1.24 1.23 1.20 1.15 1.18 1.24 1.31 1.39 1.55 1.68
0.67 0.71 0.73 0.71 0.69 0.74 0.78 0.80 0.76 0.78 0.82 0.90 0.96 1.03 1.15 1.21 1.26 1.28 1.20 1.20 1.16 1.14 1.18 1.18 1.22 1.26 1.28 1.29 1.28 1.27 1.27 1.29 1.24 1.21 1.21 1.20 1.17 1.17 1.17 1.20 1.25 1.32 1.44
0.59 0.63 0.70 0.69 0.69 0.72 0.76 0.79 0.73 0.71 0.74 0.79 0.80 0.84 0.92 1.05 1.09 1.13 1.07 1.02 1.02 0.96 0.96 0.96 0.96 0.97 0.99 1.04 1.06 1.06 1.08 1.12 1.11 1.10 1.12 1.13 1.15 1.19 1.16 1.15 1.14 1.12 1.13
0.52 0.54 0.56 0.61 0.65 0.68 0.70 0.77 0.75 0.68 0.67 0.68 0.68 0.72 0.79 0.88 0.93 0.95 0.97 0.91 0.94 0.88 0.84 0.82 0.82 0.82 0.82 0.84 0.90 0.96 0.98 1.00 1.01 1.00 1.01 1.01 1.05 1.08 1.04 1.02 1.00 0.98 1.00
0.40 0.41 0.45 0.50 0.54 0.59 0.64 0.68 0.71 0.70 0.70 0.68 0.63 0.65 0.70 0.81 0.86 0.82 0.85 0.84 0.89 0.91 0.82 0.77 0.74 0.75 0.77 0.80 0.84 0.92 0.97 0.98 0.98 0.99 0.99 0.95 0.92 0.89 0.88 0.90 0.92 0.99 1.07
0.30 0.32 0.33 0.36 0.41 0.45 0.50 0.55 0.60 0.63 0.68 0.69 0.66 0.65 0.64 0.73 0.79 0.72 0.73 0.75 0.78 0.89 0.89 0.84 0.80 0.77 0.77 0.81 0.87 0.90 0.95 0.96 0.97 0.94 0.91 0.90 0.91 0.87 0.85 0.86 0.90 0.98 1.13
0.21 0.22 0.22 0.24 0.26 0.30 0.36 0.41 0.47 0.53 0.61 0.63 0.65 0.64 0.62 0.65 0.75 0.73 0.71 0.72 0.76 0.85 0.92 0.96 0.93 0.88 0.86 0.98 0.97 0.91 0.92 0.95 0.95 0.92 0.86 0.84 0.88 0.86 0.86 0.88 0.94 1.07 1.22
0.15 0.15 0.15 0.16 0.17 0.20 0.25 0.30 0.35 0.40 0.47 0.55 0.59 0.62 0.65 0.68 0.74 0.76 0.76 0.81 0.88 0.94 0.96 1.01 1.04 1.02 1.05 1.08 0.95 0.93 0.86 0.87 0.89 0.87 0.84 0.80 0.77 0.81 0.75 0.82 0.94 1.02 1.12
0.14 0.16 0.16 0.16 0.16 0.17 0.17 0.20 0.25 0.33 0.37 0.42 0.50 0.54 0.59 0.63 0.66 0.73 0.79 0.84 0.90 0.96 1.00 1.03 1.02 0.99 1.00 1.00 0.89 0.86 0.79 0.80 0.81 0.80 0.77 0.79 0.80 0.79 0.84 0.89 0.96 0.87 0.81
0.13 0.14 0.14 0.14 0.15 0.15 0.15 0.17 0.22 0.29 0.34 0.41 0.47 0.52 0.60 0.64 0.67 0.75 0.78 0.82 0.89 0.92 0.90 0.91 0.92 0.92 0.92 0.90 0.81 0.77 0.72 0.74 0.71 0.69 0.68 0.70 0.73 0.88 1.04 1.08 1.08 0.90 0.73
0.12 0.13 0.14 0.15 0.17 0.18 0.20 0.22 0.26 0.31 0.35 0.41 0.49 0.51 0.59 0.69 0.73 0.76 0.75 0.74 0.79 0.86 0.82 0.78 0.76 0.75 0.77 0.80 0.75 0.72 0.68 0.71 0.68 0.65 0.63 0.70 0.72 0.86 1.02 1.00 1.05 0.99 0.83
0.13 0.13 0.15 0.17 0.21 0.26 0.28 0.29 0.33 0.37 0.39 0.41 0.46 0.46 0.51 0.57 0.61 0.63 0.64 0.65 0.66 0.68 0.65 0.63 0.63 0.60 0.61 0.66 0.64 0.62 0.60 0.64 0.66 0.61 0.56 0.57 0.75 0.86 0.93 0.90 0.82 0.93 1.00
0.16 0.16 0.18 0.19 0.21 0.27 0.34 0.35 0.34 0.35 0.36 0.36 0.40 0.41 0.44 0.48 0.50 0.52 0.55 0.57 0.56 0.56 0.54 0.51 0.52 0.50 0.51 0.54 0.55 0.57 0.59 0.66 0.62 0.56 0.52 0.55 0.71 0.73 0.75 0.74 0.80 0.95 0.96
0.16 0.15 0.16 0.17 0.18 0.22 0.28 0.35 0.35 0.34 0.33 0.35 0.38 0.38 0.37 0.38 0.42 0.43 0.46 0.47 0.45 0.45 0.44 0.43 0.43 0.43 0.44 0.50 0.57 0.58 0.63 0.67 0.61 0.56 0.60 0.64 0.66 0.62 0.61 0.72 0.85 0.84 0.77
0.14 0.14 0.14 0.16 0.18 0.19 0.21 0.25 0.28 0.29 0.30 0.31 0.32 0.35 0.36 0.34 0.33 0.35 0.38 0.41 0.43 0.43 0.42 0.42 0.40 0.39 0.41 0.44 0.48 0.54 0.57 0.59 0.61 0.62 0.61 0.59 0.58 0.58 0.60 0.67 0.69 0.70 0.80
0.14 0.15 0.15 0.16 0.17 0.17 0.18 0.18 0.19 0.21 0.25 0.28 0.28 0.29 0.30 0.32 0.31 0.30 0.33 0.38 0.39 0.45 0.50 0.50 0.49 0.47 0.45 0.45 0.55 0.60 0.59 0.61 0.62 0.63 0.56 0.53 0.53 0.53 0.54 0.58 0.61 0.67 0.81
0.14 0.15 0.15 0.15 0.16 0.16 0.17 0.17 0.17 0.19 0.22 0.24 0.26 0.27 0.27 0.28 0.29 0.29 0.29 0.33 0.36 0.41 0.47 0.51 0.54 0.51 0.52 0.55 0.57 0.58 0.62 0.65 0.67 0.65 0.58 0.55 0.54 0.56 0.58 0.61 0.65 0.69 0.82

GEFSMW_prec_meanprecacc_216.txt.gz
Total_Precipitation_Accumulation
0.92 1.20 1.60 1.84 2.18 2.60 2.78 2.83 2.77 2.92 3.13 3.02 2.80 2.59 2.34 2.12 1.92 1.77 1.62 1.50 1.39 1.29 1.19 1.05 1.04 1.05 1.02 0.99 0.94 0.89 0.83 0.76 0.73 0.72 0.63 0.52 0.48 0.44 0.38 0.35 0.32 0.29 0.27
0.80 1.08 1.39 1.71 1.91 2.42 2.71 2.75 2.85 2.98 3.14 3.03 2.92 2.84 2.70 2.48 2.26 2.10 1.81 1.61 1.48 1.37 1.34 1.20 1.04 1.03 1.05 1.04 1.05 1.07 1.06 1.01 0.98 0.98 0.95 0.79 0.62 0.47 0.39 0.38 0.38 0.37 0.37
0.73 0.92 1.16 1.46 1.60 1.93 2.32 2.50 2.58 2.79 2.93 3.11 3.39 3.37 3.19 2.79 2.36 2.07 1.93 1.77 1.71 1.60 1.47 1.44 1.30 1.14 1.09 1.02 0.97 0.97 1.01 1.03 1.05 1.05 1.13 1.03 0.79 0.59 0.47 0.39 0.37 0.38 0.41
0.69 0.85 1.03 1.17 1.36 1.56 1.89 2.23 2.46 2.60 2.65 2.75 3.05 3.18 3.02 2.63 2.26 2.04 2.02 2.04 1.95 1.89 1.81 1.67 1.57 1.40 1.26 1.15 1.10 1.06 1.04 1.07 1.07 1.05 1.00 0.97 0.85 0.81 0.66 0.47 0.41 0.40 0.40
0.77 0.86 0.93 0.96 1.09 1.31 1.65 1.95 2.20 2.44 2.48 2.43 2.57 2.82 2.93 2.81 2.61 2.38 2.24 2.15 2.06 1.94 1.90 1.84 1.76 1.60 1.48 1.39 1.35 1.29 1.24 1.22 1.17 1.11 1.05 1.03 0.93 0.85 0.86 0.65 0.46 0.47 0.46
0.83 0.85 0.88 0.90 0.96 1.10 1.34 1.62 1.86 2.20 2.38 2.32 2.37 2.47 2.55 2.66 2.61 2.38 2.32 2.24 2.20 2.06 1.90 1.84 1.82 1.74 1.67 1.61 1.58 1.56 1.47 1.39 1.31 1.26 1.19 1.20 1.15 1.00 1.00 0.92 0.69 0.62 0.56
0.73 0.73 0.72 0.76 0.87 1.00 1.12 1.34 1.46 1.72 2.01 2.14 2.16 2.19 2.29 2.37 2.45 2.42 2.36 2.32 2.18 2.03 1.93 1.86 1.85 1.83 1.72 1.70 1.69 1.65 1.55 1.49 1.43 1.40 1.35 1.28 1.21 1.17 1.21 1.24 1.07 0.92 0.74
0.74 0.72 0.70 0.75 0.88 0.94 1.01 1.14 1.27 1.39 1.63 1.83 1.88 1.90 2.04 2.12 2.12 2.20 2.18 2.16 2.09 2.00 1.98 1.96 1.86 1.84 1.80 1.71 1.68 1.64 1.54 1.49 1.46 1.42 1.41 1.37 1.29 1.29 1.34 1.40 1.46 1.35 1.07
0.66 0.70 0.72 0.78 0.84 0.88 0.94 1.02 1.12 1.15 1.27 1.50 1.62 1.70 1.75 1.77 1.73 1.74 1.75 1.80 1.86 1.88 1.85 1.86 1.78 1.69 1.67 1.64 1.62 1.58 1.50 1.44 1.37 1.33 1.33 1.32 1.26 1.27 1.31 1.38 1.54 1.72 1.55
0.66 0.69 0.71 0.71 0.73 0.78 0.83 0.91 0.94 0.93 1.00 1.14 1.24 1.41 1.49 1.48 1.53 1.52 1.47 1.46 1.46 1.52 1.58 1.61 1.61 1.54 1.51 1.50 1.48 1.43 1.41 1.39 1.30 1.24 1.23 1.20 1.16 1.20 1.26 1.34 1.41 1.58 1.70
0.68 0.72 0.74 0.72 0.70 0.75 0.80 0.82 0.79 0.80 0.84 0.93 1.00 1.06 1.18 1.25 1.30 1.31 1.23 1.23 1.19 1.17 1.22 1.23 1.26 1.30 1.31 1.32 1.31 1.29 1.28 1.30 1.25 1.21 1.21 1.20 1.17 1.18 1.18 1.22 1.26 1.33 1.46
0.60 0.64 0.70 0.69 0.70 0.73 0.77 0.80 0.74 0.73 0.75 0.81 0.83 0.86 0.95 1.07 1.12 1.16 1.10 1.04 1.05 0.99 0.99 1.00 0.99 1.00 1.02 1.06 1.09 1.08 1.09 1.13 1.12 1.10 1.13 1.13 1.16 1.19 1.17 1.16 1.15 1.13 1.14
0.52 0.54 0.56 0.62 0.66 0.68 0.71 0.78 0.76 0.69 0.67 0.69 0.69 0.74 0.81 0.90 0.95 0.97 0.99 0.93 0.95 0.89 0.86 0.85 0.85 0.84 0.84 0.86 0.92 0.98 1.00 1.02 1.02 1.01 1.01 1.02 1.06 1.08 1.04 1.02 1.01 0.99 1.01
0.40 0.41 0.45 0.50 0.54 0.59 0.64 0.68 0.71 0.71 0.71 0.68 0.64 0.67 0.72 0.83 0.87 0.83 0.86 0.86 0.91 0.92 0.83 0.78 0.76 0.77 0.79 0.82 0.85 0.94 0.99 0.99 1.00 1.00 1.00 0.96 0.93 0.90 0.89 0.91 0.93 1.00 1.09
0.30 0.32 0.33 0.36 0.41 0.45 0.50 0.55 0.60 0.63 0.68 0.69 0.67 0.66 0.66 0.75 0.80 0.74 0.74 0.76 0.80 0.91 0.90 0.85 0.81 0.79 0.79 0.83 0.88 0.91 0.96 0.97 0.98 0.96 0.93 0.91 0.92 0.88 0.86 0.87 0.91 1.00 1.14
0.21 0.22 0.22 0.24 0.26 0.30 0.36 0.42 0.48 0.53 0.61 0.63 0.65 0.65 0.63 0.67 0.76 0.74 0.72 0.73 0.77 0.86 0.92 0.96 0.94 0.89 0.87 1.00 0.99 0.92 0.93 0.96 0.96 0.93 0.87 0.84 0.89 0.87 0.87 0.88 0.95 1.09 1.24
0.15 0.15 0.15 0.16 0.17 0.21 0.25 0.30 0.35 0.41 0.48 0.55 0.60 0.63 0.67 0.69 0.75 0.77 0.77 0.82 0.88 0.95 0.96 1.01 1.04 1.02 1.06 1.09 0.97 0.95 0.87 0.87 0.89 0.87 0.84 0.80 0.77 0.82 0.76 0.82 0.95 1.03 1.14
0.14 0.16 0.16 0.16 0.16 0.17 0.17 0.20 0.26 0.33 0.38 0.43 0.51 0.55 0.61 0.64 0.67 0.75 0.80 0.85 0.91 0.96 1.00 1.03 1.02 0.99 1.00 1.01 0.90 0.87 0.81 0.81 0.82 0.80 0.78 0.80 0.81 0.80 0.85 0.90 0.97 0.87 0.82
0.14 0.15 0.14 0.15 0.15 0.15 0.16 0.17 0.22 0.30 0.35 0.41 0.48 0.53 0.61 0.65 0.68 0.76 0.79 0.83 0.89 0.93 0.91 0.91 0.92 0.92 0.92 0.90 0.82 0.79 0.74 0.75 0.72 0.70 0.69 0.71 0.73 0.88 1.05 1.09 1.09 0.91 0.73
0.13 0.14 0.14 0.15 0.17 0.19 0.21 0.23 0.26 0.31 0.35 0.42 0.49 0.52 0.60 0.70 0.74 0.77 0.76 0.75 0.80 0.86 0.83 0.78 0.76 0.75 0.77 0.80 0.75 0.73 0.69 0.71 0.68 0.65 0.64 0.70 0.73 0.87 1.03 1.00 1.05 1.00 0.84
0.14 0.14 0.15 0.18 0.22 0.27 0.29 0.30 0.34 0.38 0.40 0.42 0.47 0.46 0.51 0.58 0.62 0.64 0.65 0.67 0.68 0.69 0.66 0.63 0.63 0.61 0.62 0.66 0.64 0.63 0.61 0.65 0.66 0.62 0.57 0.57 0.75 0.87 0.94 0.91 0.83 0.94 1.01
0.17 0.16 0.18 0.20 0.22 0.29 0.35 0.36 0.35 0.36 0.36 0.37 0.41 0.43 0.45 0.49 0.51 0.54 0.57 0.59 0.58 0.57 0.55 0.52 0.52 0.50 0.51 0.55 0.56 0.58 0.60 0.67 0.63 0.58 0.53 0.56 0.72 0.74 0.75 0.75 0.81 0.97 0.98
0.17 0.16 0.17 0.18 0.19 0.22 0.29 0.36 0.36 0.34 0.34 0.37 0.40 0.40 0.39 0.41 0.45 0.46 0.48 0.49 0.47 0.46 0.45 0.44 0.43 0.44 0.45 0.51 0.58 0.59 0.64 0.68 0.63 0.57 0.62 0.65 0.67 0.63 0.62 0.73 0.86 0.85 0.78
0.14 0.15 0.14 0.16 0.19 0.20 0.22 0.26 0.29 0.30 0.31 0.32 0.34 0.37 0.38 0.36 0.35 0.37 0.40 0.43 0.45 0.45 0.43 0.43 0.41 0.40 0.42 0.44 0.49 0.55 0.58 0.60 0.61 0.62 0.63 0.60 0.59 0.59 0.61 0.67 0.70 0.71 0.81
0.14 0.15 0.15 0.16 0.17 0.17 0.18 0.18 0.19 0.22 0.26 0.29 0.29 0.30 0.32 0.34 0.33 0.32 0.34 0.39 0.41 0.47 0.52 0.51 0.50 0.49 0.46 0.46 0.56 0.61 0.60 0.62 0.63 0.64 0.57 0.54 0.54 0.54 0.55 0.59 0.61 0.67 0.82
0.14 0.15 0.15 0.15 0.16 0.16 0.17 0.18 0.18 0.20 0.22 0.25 0.26 0.27 0.29 0.30 0.30 0.31 0.30 0.33 0.36 0.42 0.47 0.52 0.55 0.52 0.53 0.56 0.58 0.59 0.63 0.67 0.69 0.67 0.59 0.56 0.55 0.58 0.60 0.62 0.66 0.70 0.83

GEFSMW_prec_meanprecacc_222.txt.gz
Total_Precipitation_Accumulation
0.95 1.22 1.63 1.90 2.29 2.70 2.83 2.87 2.83 3.01 3.24 3.13 2.92 2.68 2.42 2.21 1.99 1.83 1.68 1.57 1.47 1.39 1.30 1.18 1.15 1.11 1.07 1.04 1.00 0.95 0.89 0.81 0.77 0.76 0.66 0.54 0.49 0.45 0.38 0.35 0.33 0.30 0.28
0.82 1.09 1.41 1.74 1.96 2.50 2.80 2.83 2.92 3.06 3.23 3.12 3.02 2.95 2.80 2.58 2.34 2.16 1.87 1.67 1.55 1.46 1.43 1.31 1.17 1.14 1.12 1.08 1.09 1.10 1.10 1.06 1.04 1.04 1.00 0.83 0.65 0.49 0.40 0.38 0.38 0.37 0.38
0.74 0.93 1.17 1.48 1.63 1.98 2.39 2.58 2.65 2.86 3.02 3.20 3.48 3.48 3.31 2.90 2.43 2.14 1.98 1.82 1.77 1.67 1.55 1.53 1.42 1.26 1.19 1.08 1.01 0.99 1.03 1.06 1.08 1.10 1.18 1.08 0.84 0.63 0.49 0.40 0.37 0.38 0.41
0.70 0.86 1.04 1.19 1.37 1.59 1.94 2.29 2.51 2.65 2.71 2.83 3.13 3.27 3.14 2.74 2.35 2.10 2.07 2.09 2.00 1.94 1.86 1.74 1.67 1.52 1.38 1.25 1.16 1.09 1.06 1.09 1.09 1.07 1.03 1.00 0.89 0.85 0.68 0.49 0.42 0.40 0.40
0.77 0.86 0.94 0.97 1.10 1.32 1.68 1.99 2.24 2.46 2.51 2.47 2.62 2.88 3.03 2.92 2.72 2.46 2.30 2.20 2.12 1.99 1.94 1.88 1.82 1.69 1.57 1.48 1.43 1.34 1.27 1.24 1.18 1.13 1.07 1.05 0.95 0.88 0.88 0.67 0.47 0.47 0.47
0.84 0.86 0.89 0.90 0.97 1.11 1.35 1.64 1.89 2.22 2.40 2.37 2.44 2.54 2.64 2.76 2.71 2.46 2.39 2.29 2.24 2.11 1.95 1.89 1.87 1.81 1.75 1.67 1.62 1.60 1.50 1.40 1.33 1.27 1.20 1.21 1.16 1.01 1.01 0.93 0.70 0.63 0.56
0.73 0.73 0.73 0.76 0.88 1.01 1.13 1.35 1.48 1.73 2.03 2.17 2.22 2.27 2.36 2.45 2.54 2.49 2.40 2.36 2.21 2.07 1.98 1.91 1.89 1.88 1.79 1.76 1.73 1.67 1.58 1.51 1.44 1.42 1.36 1.29 1.21 1.17 1.21 1.25 1.08 0.92 0.75
0.74 0.73 0.70 0.76 0.89 0.95 1.02 1.15 1.28 1.41 1.65 1.86 1.91 1.94 2.09 2.18 2.18 2.25 2.21 2.18 2.12 2.02 2.01 2.00 1.89 1.87 1.84 1.76 1.72 1.67 1.56 1.51 1.47 1.42 1.42 1.38 1.29 1.30 1.34 1.41 1.46 1.35 1.08
0.67 0.71 0.74 0.79 0.84 0.89 0.95 1.03 1.13 1.17 1.30 1.53 1.65 1.73 1.78 1.81 1.77 1.77 1.78 1.83 1.88 1.89 1.87 1.88 1.80 1.72 1.70 1.68 1.65 1.61 1.52 1.46 1.39 1.34 1.34 1.33 1.27 1.27 1.31 1.38 1.54 1.72 1.56
0.67 0.70 0.74 0.72 0.73 0.78 0.84 0.93 0.96 0.95 1.02 1.16 1.28 1.44 1.52 1.52 1.56 1.55 1.50 1.48 1.48 1.54 1.60 1.63 1.63 1.57 1.54 1.53 1.51 1.46 1.44 1.42 1.32 1.25 1.24 1.21 1.17 1.21 1.26 1.34 1.42 1.58 1.71
0.69 0.74 0.77 0.73 0.70 0.75 0.81 0.84 0.81 0.82 0.86 0.95 1.02 1.09 1.21 1.28 1.33 1.33 1.25 1.25 1.21 1.19 1.24 1.25 1.28 1.32 1.33 1.34 1.33 1.31 1.31 1.32 1.26 1.23 1.22 1.21 1.17 1.19 1.19 1.22 1.27 1.34 1.47
0.62 0.68 0.73 0.71 0.71 0.74 0.78 0.82 0.77 0.76 0.78 0.83 0.84 0.88 0.97 1.10 1.15 1.18 1.12 1.06 1.06 1.00 1.00 1.02 1.01 1.02 1.04 1.08 1.11 1.09 1.11 1.15 1.14 1.12 1.14 1.14 1.16 1.20 1.17 1.17 1.16 1.14 1.15
0.54 0.56 0.58 0.62 0.66 0.69 0.73 0.79 0.78 0.71 0.69 0.70 0.70 0.75 0.83 0.92 0.97 0.99 1.00 0.94 0.96 0.90 0.87 0.87 0.87 0.86 0.86 0.88 0.94 1.00 1.01 1.03 1.03 1.02 1.02 1.03 1.07 1.09 1.05 1.03 1.02 1.00 1.03
0.41 0.43 0.47 0.51 0.55 0.60 0.65 0.69 0.72 0.71 0.72 0.69 0.65 0.68 0.72 0.84 0.88 0.85 0.88 0.87 0.92 0.94 0.84 0.80 0.78 0.79 0.81 0.83 0.87 0.95 1.01 1.01 1.01 1.01 1.01 0.97 0.94 0.91 0.89 0.92 0.93 1.00 1.10
0.30 0.33 0.35 0.37 0.42 0.46 0.51 0.56 0.61 0.64 0.69 0.70 0.67 0.66 0.67 0.75 0.81 0.75 0.75 0.78 0.81 0.92 0.91 0.86 0.83 0.80 0.80 0.84 0.89 0.92 0.97 0.99 1.00 0.97 0.94 0.92 0.93 0.90 0.87 0.88 0.92 1.01 1.15
0.22 0.22 0.23 0.24 0.26 0.30 0.36 0.42 0.49 0.54 0.61 0.64 0.66 0.65 0.64 0.68 0.77 0.76 0.73 0.74 0.78 0.87 0.94 0.97 0.95 0.90 0.88 1.02 1.00 0.94 0.94 0.98 0.98 0.95 0.89 0.86 0.90 0.89 0.89 0.90 0.97 1.10 1.26
0.15 0.15 0.15 0.16 0.18 0.21 0.25 0.30 0.36 0.42 0.48 0.55 0.60 0.64 0.67 0.70 0.77 0.79 0.79 0.83 0.90 0.96 0.97 1.03 1.06 1.03 1.07 1.10 0.98 0.96 0.89 0.89 0.90 0.89 0.85 0.81 0.79 0.85 0.79 0.84 0.97 1.05 1.16
0.14 0.16 0.16 0.16 0.17 0.17 0.18 0.20 0.27 0.34 0.39 0.43 0.51 0.55 0.61 0.65 0.69 0.76 0.82 0.87 0.92 0.97 1.01 1.04 1.04 1.01 1.01 1.02 0.91 0.88 0.82 0.82 0.83 0.82 0.79 0.80 0.81 0.81 0.87 0.92 0.99 0.90 0.84
0.14 0.15 0.14 0.15 0.16 0.16 0.16 0.18 0.23 0.31 0.36 0.42 0.49 0.53 0.62 0.66 0.70 0.77 0.80 0.84 0.90 0.94 0.91 0.92 0.93 0.93 0.94 0.91 0.83 0.80 0.75 0.77 0.74 0.72 0.71 0.72 0.74 0.89 1.06 1.11 1.11 0.93 0.75
0.13 0.15 0.15 0.15 0.17 0.20 0.22 0.24 0.27 0.32 0.36 0.42 0.50 0.52 0.61 0.71 0.75 0.78 0.78 0.76 0.81 0.87 0.83 0.79 0.77 0.76 0.78 0.81 0.76 0.74 0.71 0.74 0.71 0.67 0.66 0.72 0.74 0.88 1.05 1.02 1.07 1.02 0.85
0.14 0.14 0.16 0.18 0.23 0.28 0.30 0.32 0.36 0.40 0.41 0.43 0.47 0.47 0.52 0.59 0.63 0.65 0.67 0.68 0.69 0.70 0.66 0.64 0.64 0.62 0.62 0.67 0.65 0.64 0.63 0.68 0.69 0.64 0.59 0.59 0.77 0.88 0.96 0.93 0.85 0.96 1.03
0.17 0.17 0.19 0.20 0.22 0.29 0.35 0.37 0.36 0.38 0.38 0.39 0.43 0.44 0.46 0.50 0.53 0.55 0.58 0.60 0.59 0.58 0.55 0.53 0.53 0.51 0.52 0.55 0.57 0.59 0.62 0.69 0.65 0.59 0.54 0.58 0.74 0.76 0.77 0.76 0.83 0.99 1.00
0.18 0.16 0.17 0.18 0.19 0.23 0.29 0.37 0.37 0.35 0.35 0.38 0.42 0.43 0.41 0.43 0.47 0.48 0.50 0.50 0.49 0.48 0.46 0.45 0.44 0.44 0.46 0.51 0.58 0.59 0.65 0.69 0.64 0.58 0.63 0.67 0.69 0.65 0.64 0.75 0.88 0.87 0.80
0.15 0.15 0.14 0.16 0.19 0.20 0.22 0.26 0.29 0.30 0.32 0.33 0.35 0.38 0.40 0.38 0.37 0.39 0.42 0.45 0.46 0.46 0.45 0.44 0.42 0.41 0.42 0.45 0.49 0.56 0.59 0.61 0.63 0.63 0.64 0.61 0.60 0.60 0.62 0.68 0.72 0.73 0.83
0.14 0.16 0.15 0.16 0.18 0.17 0.19 0.19 0.20 0.22 0.26 0.29 0.30 0.31 0.33 0.34 0.34 0.33 0.35 0.40 0.42 0.48 0.53 0.53 0.51 0.50 0.47 0.47 0.57 0.62 0.61 0.63 0.64 0.65 0.58 0.55 0.54 0.55 0.56 0.59 0.62 0.69 0.84
0.15 0.15 0.15 0.15 0.16 0.17 0.18 0.18 0.18 0.20 0.23 0.25 0.26 0.28 0.29 0.30 0.31 0.31 0.30 0.34 0.37 0.43 0.49 0.54 0.56 0.54 0.54 0.57 0.59 0.60 0.64 0.67 0.70 0.68 0.60 0.57 0.56 0.58 0.60 0.63 0.67 0.71 0.84

GEFSMW_prec_meanprecacc_228.txt.gz
Total_Precipitation_Accumulation
0.97 1.26 1.68 1.95 2.36 2.80 2.93 2.94 2.87 3.02 3.29 3.21 2.99 2.74 2.45 2.25 2.03 1.89 1.74 1.60 1.49 1.40 1.32 1.22 1.25 1.25 1.18 1.11 1.03 0.98 0.91 0.83 0.79 0.78 0.68 0.56 0.50 0.46 0.39 0.37 0.35 0.32 0.30
0.84 1.12 1.44 1.76 2.00 2.58 2.88 2.88 2.95 3.08 3.26 3.18 3.07 2.99 2.84 2.62 2.39 2.21 1.92 1.72 1.58 1.48 1.44 1.33 1.22 1.26 1.28 1.20 1.15 1.13 1.12 1.07 1.05 1.05 1.01 0.84 0.67 0.50 0.41 0.40 0.40 0.40 0.40
0.76 0.95 1.19 1.49 1.65 2.04 2.47 2.64 2.68 2.88 3.04 3.24 3.53 3.53 3.35 2.95 2.48 2.19 2.03 1.87 1.81 1.70 1.57 1.55 1.46 1.33 1.34 1.28 1.17 1.07 1.06 1.08 1.10 1.11 1.19 1.09 0.84 0.64 0.50 0.42 0.38 0.39 0.42
0.72 0.89 1.06 1.20 1.40 1.63 2.01 2.36 2.55 2.67 2.73 2.85 3.17 3.32 3.19 2.80 2.41 2.16 2.12 2.14 2.05 1.99 1.90 1.78 1.71 1.58 1.47 1.41 1.36 1.28 1.16 1.13 1.11 1.09 1.04 1.01 0.90 0.85 0.70 0.51 0.43 0.41 0.42
0.79 0.88 0.96 0.99 1.12 1.36 1.73 2.06 2.29 2.51 2.54 2.50 2.65 2.92 3.07 2.98 2.79 2.53 2.35 2.26 2.18 2.06 2.00 1.94 1.87 1.75 1.64 1.59 1.58 1.50 1.41 1.34 1.24 1.16 1.08 1.06 0.95 0.88 0.89 0.68 0.49 0.49 0.49
0.84 0.87 0.91 0.92 0.99 1.14 1.39 1.68 1.93 2.25 2.43 2.39 2.47 2.58 2.67 2.82 2.79 2.53 2.45 2.34 2.33 2.22 2.05 1.96 1.92 1.87 1.81 1.74 1.72 1.71 1.62 1.51 1.42 1.34 1.25 1.22 1.17 1.01 1.01 0.94 0.72 0.65 0.59
0.74 0.74 0.75 0.78 0.90 1.02 1.15 1.37 1.50 1.76 2.05 2.19 2.25 2.31 2.40 2.48 2.59 2.54 2.45 2.40 2.27 2.18 2.11 2.00 1.96 1.94 1.84 1.80 1.78 1.74 1.66 1.60 1.53 1.50 1.43 1.33 1.24 1.19 1.22 1.26 1.09 0.94 0.78
0.74 0.73 0.71 0.77 0.90 0.96 1.03 1.17 1.29 1.42 1.67 1.89 1.94 1.99 2.13 2.21 2.21 2.29 2.26 2.23 2.17 2.10 2.11 2.09 1.97 1.94 1.89 1.79 1.75 1.70 1.60 1.56 1.52 1.48 1.48 1.43 1.33 1.32 1.36 1.42 1.47 1.36 1.09
0.67 0.71 0.74 0.79 0.85 0.90 0.95 1.04 1.14 1.18 1.32 1.56 1.69 1.77 1.82 1.84 1.79 1.80 1.82 1.86 1.91 1.93 1.94 1.96 1.86 1.79 1.76 1.73 1.69 1.63 1.55 1.49 1.43 1.38 1.38 1.36 1.30 1.30 1.33 1.40 1.56 1.73 1.57
0.67 0.71 0.74 0.72 0.74 0.79 0.85 0.94 0.97 0.97 1.04 1.19 1.32 1.48 1.57 1.55 1.58 1.57 1.52 1.51 1.51 1.57 1.64 1.68 1.68 1.61 1.58 1.57 1.55 1.50 1.46 1.45 1.36 1.29 1.28 1.24 1.19 1.23 1.28 1.36 1.44 1.60 1.72
0.69 0.75 0.78 0.74 0.71 0.76 0.81 0.85 0.83 0.85 0.88 0.97 1.04 1.13 1.26 1.33 1.36 1.36 1.26 1.27 1.24 1.22 1.28 1.29 1.32 1.35 1.36 1.37 1.36 1.34 1.34 1.34 1.30 1.27 1.26 1.24 1.19 1.20 1.21 1.24 1.28 1.36 1.48
0.62 0.69 0.74 0.72 0.71 0.75 0.79 0.84 0.78 0.78 0.80 0.86 0.88 0.92 1.01 1.14 1.18 1.21 1.15 1.08 1.09 1.04 1.05 1.06 1.05 1.05 1.07 1.11 1.13 1.11 1.13 1.17 1.16 1.16 1.17 1.17 1.18 1.21 1.19 1.19 1.18 1.15 1.16
0.54 0.57 0.60 0.63 0.67 0.70 0.74 0.81 0.79 0.72 0.71 0.72 0.73 0.79 0.87 0.96 1.00 1.01 1.03 0.98 1.00 0.94 0.90 0.90 0.90 0.89 0.89 0.91 0.96 1.02 1.03 1.05 1.06 1.05 1.07 1.06 1.09 1.11 1.07 1.05 1.04 1.02 1.04
0.41 0.44 0.48 0.52 0.56 0.61 0.66 0.70 0.73 0.73 0.73 0.70 0.66 0.69 0.75 0.86 0.90 0.86 0.89 0.89 0.94 0.95 0.86 0.81 0.79 0.80 0.83 0.85 0.89 0.97 1.02 1.03 1.03 1.04 1.05 1.00 0.97 0.93 0.91 0.94 0.96 1.03 1.13
0.30 0.34 0.36 0.38 0.43 0.47 0.52 0.57 0.62 0.65 0.70 0.71 0.68 0.67 0.68 0.77 0.82 0.75 0.76 0.79 0.83 0.93 0.92 0.87 0.83 0.81 0.81 0.85 0.91 0.94 0.99 1.00 1.02 1.00 0.97 0.94 0.95 0.91 0.88 0.90 0.93 1.03 1.18
0.22 0.23 0.24 0.25 0.27 0.31 0.37 0.43 0.50 0.55 0.62 0.65 0.67 0.66 0.64 0.69 0.79 0.76 0.73 0.75 0.79 0.88 0.95 0.98 0.96 0.91 0.89 1.02 1.01 0.95 0.95 0.98 0.99 0.96 0.92 0.88 0.92 0.90 0.90 0.91 0.98 1.12 1.28
0.15 0.16 0.15 0.16 0.18 0.21 0.26 0.31 0.37 0.42 0.50 0.57 0.61 0.64 0.68 0.71 0.78 0.80 0.79 0.83 0.90 0.96 0.98 1.03 1.06 1.04 1.07 1.11 0.98 0.97 0.90 0.90 0.91 0.90 0.87 0.83 0.80 0.86 0.79 0.86 0.98 1.06 1.17
0.15 0.16 0.16 0.16 0.17 0.18 0.19 0.22 0.28 0.35 0.40 0.45 0.52 0.56 0.62 0.66 0.69 0.77 0.83 0.88 0.92 0.98 1.02 1.05 1.04 1.01 1.02 1.02 0.92 0.89 0.83 0.83 0.84 0.83 0.81 0.83 0.83 0.82 0.88 0.93 1.00 0.90 0.84
0.14 0.15 0.15 0.15 0.16 0.16 0.17 0.19 0.25 0.33 0.38 0.44 0.50 0.54 0.63 0.67 0.71 0.78 0.81 0.85 0.92 0.95 0.92 0.93 0.94 0.93 0.94 0.91 0.83 0.81 0.76 0.78 0.75 0.73 0.73 0.75 0.76 0.90 1.07 1.12 1.12 0.94 0.76
0.13 0.15 0.15 0.16 0.18 0.20 0.22 0.24 0.29 0.34 0.39 0.45 0.52 0.54 0.62 0.72 0.77 0.79 0.79 0.77 0.82 0.89 0.84 0.80 0.78 0.77 0.78 0.82 0.77 0.75 0.72 0.75 0.72 0.69 0.68 0.75 0.77 0.90 1.06 1.03 1.08 1.03 0.86
0.14 0.14 0.16 0.18 0.23 0.28 0.31 0.32 0.36 0.41 0.42 0.44 0.50 0.49 0.54 0.60 0.64 0.67 0.68 0.69 0.70 0.71 0.68 0.65 0.65 0.62 0.63 0.68 0.66 0.64 0.63 0.69 0.70 0.66 0.61 0.62 0.81 0.91 0.98 0.95 0.87 0.97 1.05
0.17 0.17 0.19 0.21 0.22 0.29 0.36 0.37 0.37 0.39 0.39 0.40 0.45 0.46 0.48 0.52 0.54 0.56 0.60 0.62 0.60 0.60 0.57 0.54 0.54 0.52 0.53 0.56 0.58 0.60 0.63 0.71 0.67 0.61 0.56 0.61 0.78 0.80 0.81 0.79 0.84 1.01 1.02
0.19 0.17 0.18 0.19 0.20 0.24 0.30 0.38 0.38 0.37 0.37 0.40 0.44 0.45 0.43 0.44 0.49 0.50 0.52 0.52 0.50 0.49 0.48 0.47 0.46 0.46 0.47 0.52 0.60 0.61 0.67 0.72 0.67 0.60 0.66 0.70 0.73 0.69 0.68 0.78 0.90 0.89 0.81
0.15 0.16 0.15 0.17 0.20 0.21 0.23 0.28 0.31 0.32 0.34 0.35 0.36 0.39 0.41 0.39 0.39 0.41 0.44 0.47 0.48 0.48 0.46 0.46 0.44 0.42 0.43 0.46 0.50 0.57 0.61 0.63 0.66 0.67 0.67 0.65 0.63 0.63 0.65 0.71 0.74 0.74 0.84
0.15 0.16 0.16 0.17 0.18 0.18 0.20 0.20 0.21 0.24 0.28 0.31 0.32 0.32 0.34 0.35 0.35 0.34 0.37 0.42 0.44 0.50 0.55 0.54 0.53 0.52 0.49 0.48 0.59 0.64 0.63 0.64 0.66 0.67 0.60 0.56 0.56 0.57 0.58 0.61 0.64 0.70 0.85
0.15 0.16 0.16 0.16 0.17 0.18 0.19 0.20 0.20 0.22 0.24 0.27 0.28 0.29 0.30 0.31 0.32 0.33 0.32 0.36 0.39 0.45 0.51 0.56 0.58 0.56 0.56 0.59 0.61 0.62 0.66 0.69 0.71 0.69 0.61 0.57 0.57 0.59 0.62 0.64 0.68 0.72 0.85

GEFSMW_prec_meanprecacc_234.txt.gz
Total_Precipitation_Accumulation
0.98 1.28 1.70 1.98 2.39 2.81 2.95 2.98 2.91 3.08 3.36 3.29 3.05 2.78 2.48 2.27 2.05 1.91 1.77 1.63 1.51 1.42 1.34 1.23 1.26 1.26 1.21 1.15 1.09 1.03 0.95 0.88 0.84 0.82 0.72 0.59 0.53 0.48 0.41 0.39 0.37 0.33 0.31
0.87 1.16 1.47 1.79 2.02 2.59 2.90 2.91 2.99 3.12 3.29 3.23 3.11 3.02 2.87 2.63 2.40 2.23 1.94 1.74 1.60 1.49 1.45 1.34 1.23 1.27 1.30 1.22 1.19 1.19 1.19 1.14 1.10 1.09 1.05 0.88 0.70 0.54 0.44 0.43 0.42 0.41 0.42
0.81 1.01 1.22 1.51 1.67 2.05 2.49 2.68 2.72 2.91 3.07 3.27 3.56 3.54 3.37 2.98 2.51 2.21 2.05 1.89 1.83 1.72 1.58 1.56 1.47 1.34 1.35 1.29 1.19 1.12 1.13 1.16 1.18 1.16 1.23 1.13 0.87 0.66 0.53 0.45 0.41 0.41 0.43
0.75 0.92 1.09 1.22 1.42 1.66 2.04 2.41 2.60 2.70 2.75 2.87 3.19 3.33 3.20 2.82 2.44 2.19 2.15 2.17 2.07 2.01 1.93 1.80 1.72 1.59 1.48 1.42 1.39 1.33 1.24 1.22 1.21 1.19 1.11 1.05 0.93 0.88 0.72 0.53 0.46 0.43 0.42
0.80 0.90 0.99 1.03 1.15 1.39 1.76 2.09 2.34 2.54 2.57 2.52 2.67 2.94 3.08 3.00 2.82 2.56 2.38 2.28 2.20 2.07 2.02 1.96 1.89 1.76 1.65 1.61 1.61 1.55 1.49 1.44 1.35 1.27 1.18 1.13 1.00 0.91 0.91 0.71 0.52 0.51 0.50
0.85 0.89 0.93 0.96 1.02 1.17 1.42 1.71 1.97 2.29 2.46 2.42 2.49 2.59 2.68 2.83 2.81 2.56 2.47 2.36 2.35 2.23 2.06 1.97 1.93 1.89 1.82 1.76 1.75 1.76 1.68 1.58 1.51 1.45 1.35 1.32 1.25 1.07 1.04 0.96 0.74 0.67 0.61
0.74 0.75 0.76 0.81 0.93 1.06 1.19 1.41 1.53 1.80 2.09 2.22 2.27 2.32 2.40 2.49 2.61 2.57 2.48 2.42 2.29 2.19 2.13 2.02 1.98 1.97 1.87 1.82 1.81 1.78 1.71 1.66 1.59 1.57 1.52 1.43 1.34 1.26 1.28 1.30 1.12 0.96 0.79
0.75 0.75 0.73 0.78 0.93 1.00 1.07 1.21 1.33 1.46 1.71 1.92 1.96 2.00 2.15 2.23 2.23 2.31 2.29 2.25 2.20 2.13 2.15 2.14 2.01 1.97 1.93 1.83 1.78 1.73 1.65 1.61 1.58 1.53 1.54 1.50 1.42 1.41 1.44 1.49 1.54 1.42 1.13
0.68 0.73 0.76 0.81 0.87 0.93 0.99 1.09 1.18 1.22 1.35 1.59 1.72 1.79 1.84 1.85 1.81 1.83 1.86 1.90 1.95 1.97 1.99 2.02 1.92 1.84 1.81 1.77 1.72 1.67 1.58 1.53 1.48 1.43 1.43 1.42 1.37 1.38 1.40 1.47 1.62 1.79 1.62
0.68 0.72 0.76 0.74 0.76 0.81 0.89 0.98 1.01 1.01 1.08 1.22 1.34 1.51 1.59 1.57 1.60 1.59 1.56 1.55 1.55 1.60 1.68 1.73 1.73 1.67 1.63 1.61 1.58 1.53 1.49 1.48 1.40 1.34 1.33 1.30 1.25 1.29 1.35 1.42 1.49 1.65 1.77
0.70 0.76 0.79 0.75 0.72 0.77 0.83 0.89 0.86 0.89 0.93 1.01 1.07 1.16 1.29 1.37 1.40 1.39 1.30 1.31 1.27 1.25 1.31 1.32 1.35 1.39 1.41 1.42 1.41 1.38 1.37 1.38 1.34 1.31 1.32 1.30 1.25 1.26 1.26 1.29 1.34 1.40 1.53
0.62 0.69 0.75 0.73 0.72 0.76 0.80 0.85 0.81 0.81 0.84 0.90 0.92 0.96 1.05 1.18 1.23 1.26 1.19 1.12 1.13 1.08 1.08 1.09 1.08 1.08 1.10 1.14 1.17 1.16 1.18 1.21 1.19 1.19 1.22 1.23 1.24 1.26 1.23 1.22 1.21 1.19 1.19
0.54 0.58 0.61 0.65 0.68 0.71 0.75 0.82 0.80 0.75 0.74 0.76 0.78 0.84 0.92 1.01 1.06 1.06 1.09 1.03 1.05 0.98 0.94 0.94 0.94 0.93 0.93 0.94 0.99 1.05 1.07 1.09 1.08 1.08 1.11 1.11 1.16 1.16 1.10 1.08 1.07 1.05 1.07
0.42 0.45 0.49 0.54 0.58 0.63 0.69 0.72 0.74 0.74 0.75 0.73 0.70 0.74 0.80 0.93 0.98 0.93 0.95 0.95 1.01 1.01 0.91 0.86 0.85 0.86 0.88 0.90 0.92 1.00 1.06 1.07 1.07 1.08 1.08 1.05 1.02 0.98 0.95 0.96 0.99 1.07 1.16
0.32 0.36 0.38 0.40 0.44 0.50 0.54 0.60 0.65 0.67 0.72 0.73 0.71 0.71 0.72 0.81 0.87 0.81 0.81 0.83 0.87 0.98 0.96 0.90 0.87 0.85 0.85 0.89 0.94 0.97 1.02 1.04 1.05 1.03 1.00 0.98 0.98 0.95 0.92 0.93 0.96 1.06 1.22
0.23 0.25 0.25 0.27 0.29 0.33 0.39 0.46 0.52 0.57 0.65 0.67 0.69 0.69 0.68 0.73 0.82 0.80 0.77 0.78 0.83 0.91 0.97 1.00 0.98 0.93 0.91 1.05 1.04 0.98 0.98 1.01 1.01 0.99 0.94 0.91 0.95 0.93 0.93 0.94 1.00 1.15 1.32
0.16 0.17 0.17 0.17 0.19 0.23 0.28 0.33 0.39 0.45 0.52 0.60 0.64 0.67 0.71 0.75 0.81 0.82 0.81 0.85 0.92 0.98 1.00 1.05 1.08 1.06 1.09 1.13 1.01 0.99 0.93 0.92 0.93 0.91 0.90 0.86 0.83 0.88 0.82 0.88 1.00 1.08 1.20
0.16 0.17 0.17 0.17 0.17 0.18 0.20 0.23 0.30 0.37 0.42 0.48 0.56 0.60 0.65 0.69 0.72 0.79 0.84 0.88 0.93 0.99 1.03 1.06 1.06 1.03 1.03 1.04 0.93 0.91 0.85 0.85 0.85 0.84 0.82 0.85 0.85 0.84 0.90 0.96 1.02 0.92 0.87
0.15 0.16 0.16 0.16 0.17 0.17 0.17 0.20 0.26 0.34 0.39 0.46 0.54 0.58 0.66 0.70 0.73 0.80 0.83 0.86 0.92 0.96 0.93 0.93 0.95 0.94 0.95 0.92 0.84 0.82 0.77 0.79 0.76 0.73 0.73 0.76 0.78 0.93 1.10 1.14 1.14 0.96 0.78
0.14 0.15 0.15 0.16 0.18 0.21 0.23 0.25 0.30 0.36 0.40 0.46 0.54 0.57 0.65 0.76 0.80 0.82 0.81 0.79 0.83 0.90 0.85 0.81 0.79 0.77 0.79 0.82 0.77 0.75 0.72 0.76 0.73 0.70 0.69 0.77 0.79 0.93 1.09 1.05 1.10 1.06 0.88
0.15 0.15 0.17 0.19 0.23 0.28 0.31 0.33 0.37 0.42 0.44 0.47 0.52 0.52 0.56 0.63 0.67 0.70 0.71 0.72 0.72 0.73 0.69 0.66 0.65 0.63 0.64 0.69 0.66 0.65 0.64 0.69 0.71 0.67 0.62 0.64 0.82 0.94 1.01 0.97 0.88 0.99 1.07
0.18 0.17 0.20 0.21 0.23 0.30 0.36 0.38 0.38 0.40 0.41 0.43 0.48 0.50 0.52 0.55 0.57 0.59 0.63 0.65 0.64 0.62 0.59 0.56 0.56 0.53 0.53 0.57 0.58 0.61 0.64 0.72 0.68 0.63 0.58 0.62 0.80 0.82 0.84 0.81 0.86 1.03 1.05
0.20 0.18 0.19 0.20 0.21 0.25 0.31 0.38 0.39 0.38 0.39 0.42 0.47 0.48 0.48 0.48 0.52 0.53 0.55 0.55 0.53 0.52 0.51 0.49 0.48 0.47 0.47 0.53 0.60 0.61 0.68 0.73 0.67 0.62 0.68 0.72 0.74 0.70 0.70 0.81 0.93 0.92 0.84
0.16 0.17 0.16 0.18 0.22 0.23 0.24 0.29 0.32 0.33 0.36 0.38 0.39 0.43 0.45 0.42 0.42 0.44 0.48 0.50 0.50 0.50 0.49 0.49 0.46 0.44 0.44 0.46 0.51 0.57 0.61 0.64 0.66 0.68 0.69 0.67 0.65 0.65 0.68 0.75 0.77 0.77 0.87
0.16 0.17 0.17 0.18 0.20 0.20 0.21 0.21 0.22 0.25 0.29 0.33 0.34 0.35 0.36 0.38 0.37 0.36 0.40 0.45 0.47 0.53 0.58 0.57 0.56 0.54 0.50 0.49 0.60 0.65 0.64 0.66 0.68 0.69 0.62 0.58 0.58 0.59 0.60 0.64 0.67 0.73 0.88
0.16 0.17 0.17 0.17 0.18 0.19 0.22 0.22 0.21 0.23 0.26 0.28 0.30 0.31 0.32 0.33 0.34 0.34 0.33 0.37 0.41 0.48 0.53 0.59 0.61 0.58 0.59 0.61 0.63 0.64 0.67 0.71 0.73 0.71 0.63 0.59 0.58 0.61 0.63 0.66 0.70 0.74 0.87

GEFSMW_prec_meanprecacc_240.txt.gz
Total_Precipitation_Accumulation
1.01 1.29 1.71 1.98 2.39 2.82 2.97 3.00 2.93 3.10 3.39 3.33 3.09 2.82 2.53 2.31 2.09 1.94 1.79 1.64 1.52 1.44 1.36 1.25 1.27 1.26 1.21 1.16 1.10 1.04 0.97 0.90 0.87 0.85 0.75 0.63 0.57 0.51 0.43 0.40 0.38 0.34 0.32
0.91 1.19 1.48 1.79 2.02 2.59 2.91 2.94 3.01 3.13 3.32 3.26 3.14 3.04 2.89 2.66 2.43 2.25 1.95 1.75 1.61 1.50 1.46 1.35 1.24 1.28 1.30 1.23 1.20 1.20 1.20 1.16 1.13 1.12 1.09 0.93 0.76 0.58 0.47 0.45 0.43 0.42 0.43
0.87 1.06 1.25 1.52 1.67 2.06 2.51 2.70 2.74 2.93 3.10 3.30 3.59 3.56 3.39 3.00 2.52 2.23 2.06 1.90 1.84 1.73 1.59 1.57 1.48 1.35 1.35 1.30 1.20 1.13 1.14 1.18 1.20 1.18 1.27 1.18 0.93 0.71 0.57 0.48 0.43 0.43 0.45
0.79 0.96 1.11 1.23 1.42 1.66 2.05 2.42 2.62 2.73 2.78 2.90 3.22 3.35 3.22 2.84 2.45 2.20 2.15 2.17 2.07 2.02 1.94 1.81 1.74 1.60 1.49 1.43 1.39 1.34 1.25 1.23 1.24 1.22 1.14 1.09 0.97 0.92 0.77 0.58 0.49 0.46 0.46
0.83 0.95 1.02 1.03 1.15 1.39 1.76 2.10 2.36 2.57 2.59 2.55 2.70 2.97 3.10 3.02 2.83 2.56 2.38 2.28 2.20 2.08 2.03 1.97 1.90 1.77 1.66 1.61 1.61 1.55 1.49 1.45 1.37 1.31 1.23 1.19 1.05 0.95 0.96 0.76 0.57 0.56 0.54
0.88 0.93 0.97 0.98 1.03 1.18 1.43 1.73 1.99 2.31 2.49 2.44 2.52 2.62 2.70 2.85 2.82 2.57 2.48 2.37 2.35 2.24 2.07 1.98 1.94 1.89 1.83 1.76 1.75 1.76 1.68 1.59 1.52 1.48 1.41 1.39 1.31 1.13 1.10 1.01 0.79 0.73 0.66
0.77 0.79 0.80 0.85 0.96 1.08 1.21 1.43 1.55 1.82 2.11 2.25 2.30 2.35 2.43 2.51 2.62 2.58 2.49 2.43 2.29 2.20 2.14 2.02 1.98 1.97 1.87 1.82 1.81 1.78 1.71 1.66 1.60 1.59 1.55 1.48 1.39 1.32 1.34 1.37 1.19 1.03 0.86
0.77 0.78 0.76 0.82 0.96 1.03 1.11 1.25 1.36 1.49 1.74 1.95 1.99 2.03 2.17 2.25 2.25 2.33 2.30 2.26 2.20 2.13 2.15 2.14 2.01 1.98 1.93 1.83 1.78 1.74 1.65 1.62 1.59 1.55 1.56 1.53 1.45 1.44 1.47 1.53 1.59 1.48 1.20
0.70 0.76 0.79 0.84 0.91 0.96 1.03 1.13 1.23 1.26 1.38 1.62 1.75 1.82 1.87 1.88 1.83 1.85 1.87 1.91 1.95 1.98 2.00 2.02 1.93 1.85 1.82 1.77 1.72 1.67 1.59 1.54 1.49 1.45 1.45 1.43 1.38 1.39 1.42 1.49 1.65 1.83 1.68
0.69 0.75 0.79 0.77 0.79 0.84 0.92 1.03 1.08 1.07 1.12 1.25 1.38 1.54 1.62 1.61 1.63 1.61 1.57 1.56 1.55 1.61 1.68 1.74 1.74 1.68 1.64 1.62 1.59 1.53 1.50 1.49 1.41 1.35 1.35 1.31 1.27 1.31 1.37 1.45 1.52 1.68 1.80
0.72 0.78 0.82 0.79 0.77 0.82 0.88 0.94 0.93 0.96 0.99 1.06 1.12 1.19 1.32 1.40 1.42 1.41 1.31 1.31 1.28 1.26 1.32 1.34 1.37 1.41 1.42 1.43 1.42 1.39 1.38 1.39 1.35 1.33 1.33 1.32 1.28 1.28 1.28 1.32 1.37 1.43 1.56
0.64 0.71 0.78 0.77 0.77 0.81 0.86 0.91 0.88 0.89 0.91 0.96 0.97 1.00 1.08 1.22 1.26 1.29 1.21 1.13 1.14 1.09 1.10 1.11 1.10 1.10 1.11 1.16 1.19 1.17 1.19 1.22 1.21 1.21 1.23 1.24 1.26 1.29 1.26 1.25 1.24 1.22 1.22
0.57 0.61 0.64 0.68 0.72 0.76 0.80 0.87 0.86 0.81 0.80 0.83 0.84 0.90 0.98 1.07 1.11 1.10 1.12 1.06 1.07 1.00 0.97 0.96 0.96 0.95 0.94 0.95 1.00 1.07 1.09 1.11 1.11 1.11 1.13 1.13 1.18 1.18 1.13 1.11 1.09 1.07 1.10
0.45 0.47 0.52 0.56 0.61 0.66 0.72 0.76 0.78 0.79 0.81 0.80 0.77 0.80 0.87 1.00 1.04 0.98 1.00 0.99 1.04 1.04 0.94 0.90 0.88 0.89 0.90 0.91 0.94 1.02 1.08 1.10 1.10 1.12 1.12 1.08 1.05 1.02 1.00 1.01 1.03 1.09 1.19
0.34 0.38 0.41 0.42 0.47 0.52 0.57 0.63 0.68 0.71 0.76 0.78 0.77 0.77 0.78 0.88 0.92 0.86 0.87 0.88 0.92 1.02 1.00 0.95 0.91 0.89 0.89 0.92 0.95 0.98 1.04 1.06 1.08 1.07 1.04 1.02 1.02 0.99 0.97 0.99 1.03 1.11 1.26
0.25 0.27 0.28 0.30 0.32 0.36 0.42 0.49 0.56 0.61 0.69 0.71 0.74 0.73 0.73 0.78 0.87 0.84 0.81 0.83 0.87 0.96 1.02 1.05 1.02 0.97 0.95 1.09 1.06 1.00 1.00 1.03 1.04 1.03 0.98 0.95 0.99 0.97 0.98 1.00 1.07 1.21 1.37
0.18 0.19 0.19 0.20 0.21 0.26 0.30 0.36 0.42 0.48 0.56 0.64 0.69 0.72 0.75 0.79 0.85 0.86 0.84 0.89 0.96 1.02 1.04 1.10 1.12 1.10 1.13 1.17 1.03 1.01 0.94 0.93 0.95 0.94 0.92 0.89 0.86 0.91 0.85 0.92 1.04 1.13 1.25
0.19 0.20 0.20 0.20 0.19 0.21 0.22 0.25 0.32 0.40 0.46 0.52 0.60 0.64 0.70 0.73 0.75 0.82 0.86 0.91 0.96 1.02 1.06 1.10 1.09 1.06 1.06 1.07 0.96 0.92 0.86 0.87 0.87 0.86 0.85 0.87 0.87 0.86 0.93 0.99 1.05 0.95 0.89
0.19 0.19 0.19 0.19 0.19 0.19 0.19 0.21 0.28 0.36 0.41 0.48 0.56 0.61 0.70 0.73 0.76 0.83 0.85 0.88 0.94 0.98 0.96 0.96 0.98 0.97 0.97 0.94 0.86 0.83 0.78 0.81 0.77 0.75 0.75 0.78 0.80 0.94 1.12 1.17 1.17 0.99 0.81
0.17 0.18 0.18 0.18 0.20 0.22 0.24 0.26 0.30 0.37 0.41 0.47 0.56 0.59 0.68 0.79 0.82 0.84 0.83 0.81 0.86 0.92 0.88 0.83 0.81 0.80 0.81 0.84 0.79 0.77 0.73 0.77 0.74 0.71 0.70 0.78 0.81 0.95 1.11 1.07 1.13 1.08 0.90
0.19 0.18 0.19 0.21 0.25 0.29 0.32 0.34 0.38 0.43 0.45 0.48 0.54 0.55 0.59 0.66 0.70 0.72 0.73 0.75 0.75 0.76 0.71 0.68 0.67 0.65 0.66 0.70 0.67 0.66 0.65 0.70 0.72 0.68 0.63 0.65 0.84 0.96 1.03 0.99 0.90 1.01 1.09
0.21 0.20 0.21 0.23 0.24 0.31 0.38 0.39 0.39 0.41 0.42 0.44 0.50 0.52 0.54 0.57 0.59 0.62 0.65 0.67 0.66 0.65 0.62 0.58 0.57 0.55 0.55 0.58 0.59 0.61 0.65 0.73 0.69 0.64 0.59 0.63 0.81 0.84 0.86 0.82 0.87 1.05 1.07
0.22 0.20 0.20 0.21 0.22 0.25 0.32 0.39 0.40 0.39 0.40 0.43 0.48 0.50 0.50 0.51 0.55 0.56 0.58 0.57 0.55 0.55 0.53 0.52 0.50 0.49 0.50 0.55 0.62 0.62 0.68 0.73 0.68 0.62 0.69 0.74 0.76 0.72 0.72 0.82 0.94 0.93 0.86
0.19 0.19 0.18 0.19 0.23 0.24 0.25 0.30 0.33 0.35 0.38 0.39 0.41 0.45 0.47 0.45 0.45 0.47 0.50 0.53 0.53 0.53 0.51 0.51 0.49 0.47 0.47 0.49 0.53 0.59 0.62 0.65 0.67 0.69 0.70 0.68 0.66 0.66 0.69 0.76 0.78 0.78 0.88
0.18 0.19 0.19 0.19 0.21 0.21 0.22 0.23 0.24 0.27 0.32 0.35 0.37 0.37 0.39 0.40 0.40 0.40 0.43 0.48 0.50 0.56 0.61 0.60 0.58 0.57 0.53 0.52 0.63 0.67 0.65 0.67 0.69 0.70 0.64 0.60 0.59 0.60 0.61 0.65 0.68 0.75 0.89
0.18 0.18 0.18 0.18 0.20 0.21 0.24 0.24 0.24 0.26 0.28 0.31 0.33 0.34 0.35 0.36 0.37 0.38 0.36 0.40 0.44 0.50 0.56 0.62 0.64 0.61 0.61 0.64 0.66 0.66 0.70 0.73 0.75 0.73 0.65 0.61 0.60 0.63 0.65 0.68 0.71 0.75 0.89

GEFSMW_prec_meanprecacc_246.txt.gz
Total_Precipitation_Accumulation
1.01 1.29 1.71 1.98 2.39 2.82 2.97 3.00 2.93 3.10 3.40 3.35 3.12 2.84 2.54 2.32 2.10 1.96 1.84 1.70 1.58 1.48 1.39 1.28 1.29 1.28 1.22 1.17 1.10 1.04 0.98 0.91 0.88 0.86 0.77 0.65 0.59 0.53 0.46 0.44 0.42 0.38 0.35
0.91 1.19 1.48 1.79 2.02 2.59 2.91 2.94 3.01 3.14 3.32 3.27 3.16 3.06 2.91 2.67 2.44 2.26 1.98 1.79 1.66 1.54 1.48 1.37 1.26 1.29 1.31 1.23 1.20 1.21 1.21 1.16 1.13 1.13 1.10 0.94 0.77 0.60 0.49 0.48 0.47 0.46 0.47
0.87 1.07 1.26 1.52 1.68 2.06 2.51 2.70 2.74 2.94 3.11 3.31 3.60 3.59 3.41 3.01 2.54 2.24 2.08 1.92 1.88 1.77 1.61 1.58 1.49 1.35 1.36 1.30 1.20 1.13 1.14 1.18 1.20 1.19 1.28 1.19 0.94 0.72 0.59 0.51 0.47 0.47 0.49
0.79 0.97 1.11 1.23 1.42 1.66 2.05 2.43 2.62 2.73 2.79 2.92 3.24 3.39 3.25 2.85 2.46 2.21 2.17 2.18 2.09 2.06 1.96 1.82 1.75 1.61 1.50 1.44 1.39 1.34 1.25 1.24 1.24 1.22 1.15 1.09 0.97 0.93 0.79 0.60 0.53 0.51 0.50
0.83 0.95 1.02 1.04 1.16 1.39 1.77 2.11 2.37 2.58 2.61 2.57 2.73 3.00 3.14 3.04 2.84 2.57 2.39 2.29 2.21 2.10 2.05 1.98 1.91 1.78 1.66 1.62 1.62 1.56 1.49 1.45 1.37 1.32 1.24 1.20 1.06 0.96 0.98 0.79 0.61 0.60 0.58
0.88 0.93 0.97 0.99 1.03 1.18 1.43 1.73 2.01 2.33 2.51 2.47 2.55 2.66 2.74 2.88 2.84 2.58 2.49 2.38 2.36 2.25 2.09 1.98 1.95 1.90 1.83 1.76 1.75 1.76 1.68 1.59 1.53 1.49 1.42 1.40 1.33 1.14 1.12 1.04 0.82 0.77 0.70
0.77 0.79 0.80 0.85 0.97 1.08 1.21 1.43 1.56 1.84 2.14 2.27 2.33 2.39 2.46 2.55 2.65 2.60 2.50 2.44 2.30 2.20 2.14 2.03 1.99 1.98 1.87 1.83 1.81 1.78 1.71 1.66 1.61 1.60 1.56 1.50 1.41 1.34 1.36 1.39 1.21 1.06 0.88
0.78 0.79 0.76 0.82 0.97 1.03 1.11 1.26 1.38 1.51 1.76 1.98 2.02 2.07 2.22 2.29 2.28 2.36 2.32 2.28 2.21 2.14 2.16 2.15 2.02 1.98 1.94 1.84 1.78 1.74 1.65 1.62 1.60 1.56 1.56 1.54 1.47 1.46 1.50 1.56 1.61 1.51 1.22
0.70 0.77 0.80 0.85 0.92 0.97 1.03 1.14 1.24 1.28 1.40 1.65 1.78 1.86 1.91 1.93 1.87 1.88 1.90 1.94 1.97 1.99 2.00 2.03 1.94 1.85 1.82 1.78 1.73 1.68 1.59 1.54 1.49 1.45 1.45 1.45 1.39 1.40 1.44 1.51 1.67 1.85 1.70
0.71 0.77 0.82 0.80 0.81 0.86 0.93 1.04 1.08 1.09 1.14 1.28 1.41 1.58 1.66 1.65 1.67 1.65 1.60 1.59 1.58 1.63 1.70 1.75 1.75 1.69 1.65 1.63 1.60 1.54 1.51 1.50 1.41 1.36 1.36 1.32 1.27 1.31 1.38 1.46 1.53 1.69 1.82
0.74 0.81 0.87 0.84 0.82 0.85 0.90 0.96 0.95 0.97 1.01 1.08 1.14 1.23 1.36 1.44 1.47 1.45 1.34 1.35 1.32 1.30 1.35 1.35 1.38 1.42 1.43 1.44 1.42 1.39 1.39 1.39 1.35 1.33 1.34 1.33 1.28 1.29 1.29 1.33 1.38 1.45 1.58
0.67 0.75 0.84 0.83 0.84 0.88 0.91 0.94 0.91 0.92 0.93 0.99 1.01 1.04 1.12 1.26 1.31 1.33 1.25 1.17 1.18 1.12 1.13 1.14 1.12 1.11 1.13 1.18 1.20 1.18 1.19 1.23 1.22 1.21 1.24 1.25 1.26 1.29 1.26 1.25 1.25 1.23 1.24
0.60 0.64 0.70 0.76 0.80 0.85 0.88 0.93 0.91 0.86 0.85 0.87 0.88 0.94 1.03 1.11 1.14 1.14 1.17 1.10 1.11 1.03 1.00 1.00 0.99 0.97 0.96 0.97 1.02 1.08 1.10 1.12 1.12 1.12 1.13 1.14 1.18 1.19 1.14 1.11 1.10 1.08 1.11
0.49 0.52 0.57 0.64 0.69 0.74 0.79 0.82 0.84 0.83 0.84 0.84 0.81 0.84 0.91 1.05 1.08 1.02 1.04 1.04 1.08 1.07 0.97 0.92 0.91 0.91 0.93 0.93 0.95 1.03 1.10 1.11 1.11 1.13 1.13 1.09 1.06 1.03 1.01 1.02 1.04 1.11 1.21
0.38 0.42 0.46 0.49 0.55 0.59 0.64 0.69 0.73 0.76 0.80 0.82 0.81 0.80 0.82 0.92 0.97 0.91 0.91 0.93 0.96 1.06 1.03 0.97 0.93 0.91 0.91 0.94 0.98 1.00 1.06 1.08 1.10 1.08 1.06 1.04 1.04 1.01 0.98 1.00 1.04 1.13 1.28
0.29 0.31 0.34 0.36 0.38 0.42 0.49 0.55 0.61 0.67 0.74 0.76 0.79 0.78 0.78 0.83 0.92 0.89 0.87 0.88 0.92 1.00 1.06 1.08 1.05 0.99 0.97 1.12 1.10 1.03 1.02 1.05 1.06 1.05 1.00 0.98 1.01 0.98 0.99 1.01 1.08 1.23 1.39
0.22 0.24 0.26 0.27 0.28 0.31 0.36 0.42 0.47 0.53 0.61 0.69 0.74 0.78 0.82 0.86 0.91 0.91 0.89 0.94 1.01 1.07 1.09 1.13 1.15 1.12 1.15 1.19 1.06 1.04 0.97 0.95 0.97 0.96 0.95 0.92 0.89 0.93 0.86 0.93 1.06 1.14 1.27
0.23 0.25 0.26 0.26 0.26 0.26 0.26 0.29 0.36 0.44 0.50 0.57 0.66 0.70 0.77 0.79 0.82 0.88 0.91 0.95 1.00 1.07 1.11 1.14 1.13 1.08 1.08 1.10 0.99 0.96 0.88 0.89 0.89 0.88 0.87 0.90 0.90 0.89 0.95 1.01 1.07 0.97 0.91
0.24 0.24 0.24 0.24 0.24 0.23 0.22 0.24 0.31 0.39 0.44 0.53 0.62 0.68 0.77 0.81 0.83 0.90 0.91 0.93 0.99 1.02 1.00 1.00 1.02 1.00 1.00 0.97 0.89 0.86 0.80 0.83 0.80 0.77 0.77 0.81 0.82 0.99 1.15 1.19 1.19 1.01 0.83
0.23 0.23 0.22 0.22 0.24 0.26 0.28 0.29 0.33 0.40 0.44 0.51 0.61 0.65 0.75 0.86 0.90 0.92 0.90 0.88 0.91 0.97 0.92 0.87 0.84 0.83 0.84 0.87 0.81 0.79 0.75 0.79 0.76 0.73 0.72 0.81 0.83 0.99 1.14 1.09 1.14 1.10 0.93
0.25 0.25 0.24 0.25 0.30 0.35 0.36 0.37 0.41 0.47 0.49 0.52 0.58 0.59 0.64 0.72 0.77 0.80 0.81 0.82 0.81 0.82 0.77 0.72 0.70 0.68 0.69 0.73 0.70 0.68 0.67 0.72 0.74 0.70 0.65 0.67 0.87 0.99 1.07 1.01 0.92 1.03 1.11
0.28 0.25 0.25 0.27 0.29 0.36 0.42 0.42 0.42 0.44 0.45 0.47 0.53 0.56 0.58 0.62 0.65 0.67 0.71 0.73 0.72 0.71 0.67 0.63 0.61 0.57 0.58 0.62 0.62 0.64 0.67 0.75 0.71 0.65 0.60 0.65 0.84 0.87 0.88 0.85 0.91 1.08 1.09
0.28 0.25 0.24 0.24 0.25 0.29 0.36 0.43 0.43 0.43 0.43 0.46 0.51 0.54 0.53 0.54 0.59 0.61 0.63 0.62 0.60 0.59 0.58 0.56 0.54 0.52 0.52 0.57 0.64 0.65 0.71 0.75 0.70 0.64 0.70 0.75 0.77 0.73 0.73 0.84 0.97 0.96 0.88
0.24 0.24 0.22 0.23 0.26 0.27 0.29 0.34 0.37 0.39 0.42 0.44 0.45 0.48 0.51 0.49 0.49 0.52 0.55 0.56 0.56 0.56 0.54 0.54 0.53 0.50 0.49 0.51 0.54 0.61 0.64 0.67 0.68 0.70 0.71 0.69 0.67 0.67 0.70 0.78 0.80 0.81 0.90
0.23 0.24 0.24 0.24 0.26 0.25 0.26 0.26 0.28 0.31 0.36 0.40 0.41 0.42 0.43 0.45 0.45 0.44 0.47 0.52 0.53 0.59 0.64 0.63 0.61 0.60 0.56 0.54 0.65 0.70 0.68 0.69 0.70 0.71 0.64 0.60 0.60 0.61 0.62 0.66 0.69 0.76 0.91
0.22 0.22 0.21 0.22 0.23 0.25 0.27 0.28 0.27 0.29 0.32 0.35 0.37 0.38 0.39 0.40 0.41 0.41 0.40 0.43 0.47 0.53 0.59 0.64 0.67 0.63 0.64 0.67 0.68 0.69 0.72 0.75 0.77 0.75 0.67 0.63 0.61 0.64 0.66 0.69 0.72 0.76 0.89